<?xml version="1.0" encoding="UTF-8" standalone="no" ?>
<gpx xmlns="http://www.topografix.com/GPX/1/1" xmlns:xsi="http://www.w3.org/2001/XMLSchema-instance" xsi:schemaLocation="http://www.topografix.com/GPX/1/1 http://www.topografix.com/GPX/1/1/gpx.xsd" version="1.1" creator="VisuGPX - https://www.visugpx.com">
  <metadata>
    <name>19-08-04 Bivouac au Lac de l'Agneau et ascension du Taillefer J2 sur 2</name>
    <desc><![CDATA[Massif du Taillefer

Itinéraire :
Lac Noir et lac de l'Agneau (lieu de bivouac)
Le Taillefer alt. 2857m
Le Petit Taillefer alt. 2696m
Croix Jean Pinelli alt. 2635m
Côte des Salières alt. 1940m
Lac Claret
Lac Punay
Parking Lac du Poursollet alt. 1649m

J1 : [url]https://www.visugpx.com/KTKVA2r0ea[/url]]]></desc>
  </metadata>
  <trk>
    <name><![CDATA[19-08-04 Taillefer J2]]></name>
    <desc><![CDATA[]]></desc>
    <trkseg>
      <trkpt lat="45.05352" lon="5.93534">
        <ele>2089</ele>
        <time>2019-08-04T05:52:17.000Z</time>
      </trkpt>
      <trkpt lat="45.05353" lon="5.9354">
        <ele>2090</ele>
        <time>2019-08-04T05:52:24.000Z</time>
      </trkpt>
      <trkpt lat="45.05356" lon="5.93547">
        <ele>2091</ele>
        <time>2019-08-04T05:52:31.000Z</time>
      </trkpt>
      <trkpt lat="45.05359" lon="5.93556">
        <ele>2092</ele>
        <time>2019-08-04T05:52:39.000Z</time>
      </trkpt>
      <trkpt lat="45.05364" lon="5.93559">
        <ele>2091</ele>
        <time>2019-08-04T05:52:49.000Z</time>
      </trkpt>
      <trkpt lat="45.05368" lon="5.93556">
        <ele>2090</ele>
        <time>2019-08-04T05:52:59.000Z</time>
      </trkpt>
      <trkpt lat="45.05369" lon="5.93546">
        <ele>2091</ele>
        <time>2019-08-04T05:53:06.000Z</time>
      </trkpt>
      <trkpt lat="45.05369" lon="5.93535">
        <ele>2091</ele>
        <time>2019-08-04T05:53:14.000Z</time>
      </trkpt>
      <trkpt lat="45.05368" lon="5.93527">
        <ele>2092</ele>
        <time>2019-08-04T05:53:21.000Z</time>
      </trkpt>
      <trkpt lat="45.05368" lon="5.93518">
        <ele>2091</ele>
        <time>2019-08-04T05:53:28.000Z</time>
      </trkpt>
      <trkpt lat="45.05371" lon="5.9353">
        <ele>2091</ele>
        <time>2019-08-04T05:53:43.000Z</time>
      </trkpt>
      <trkpt lat="45.05377" lon="5.93536">
        <ele>2091</ele>
        <time>2019-08-04T05:53:50.000Z</time>
      </trkpt>
      <trkpt lat="45.05383" lon="5.93538">
        <ele>2091</ele>
        <time>2019-08-04T05:53:57.000Z</time>
      </trkpt>
      <trkpt lat="45.05388" lon="5.93541">
        <ele>2092</ele>
        <time>2019-08-04T05:54:04.000Z</time>
      </trkpt>
      <trkpt lat="45.05394" lon="5.93541">
        <ele>2092</ele>
        <time>2019-08-04T05:54:23.000Z</time>
      </trkpt>
      <trkpt lat="45.054" lon="5.93535">
        <ele>2092</ele>
        <time>2019-08-04T05:54:30.000Z</time>
      </trkpt>
      <trkpt lat="45.05406" lon="5.93532">
        <ele>2093</ele>
        <time>2019-08-04T05:54:37.000Z</time>
      </trkpt>
      <trkpt lat="45.05412" lon="5.93528">
        <ele>2093</ele>
        <time>2019-08-04T05:54:45.000Z</time>
      </trkpt>
      <trkpt lat="45.05417" lon="5.93523">
        <ele>2094</ele>
        <time>2019-08-04T05:54:52.000Z</time>
      </trkpt>
      <trkpt lat="45.05419" lon="5.93514">
        <ele>2093</ele>
        <time>2019-08-04T05:54:58.000Z</time>
      </trkpt>
      <trkpt lat="45.0542" lon="5.93501">
        <ele>2092</ele>
        <time>2019-08-04T05:55:05.000Z</time>
      </trkpt>
      <trkpt lat="45.05419" lon="5.93493">
        <ele>2092</ele>
        <time>2019-08-04T05:55:12.000Z</time>
      </trkpt>
      <trkpt lat="45.05415" lon="5.93493">
        <ele>2091</ele>
        <time>2019-08-04T05:56:59.000Z</time>
      </trkpt>
      <trkpt lat="45.05419" lon="5.93493">
        <ele>2093</ele>
        <time>2019-08-04T05:58:44.000Z</time>
      </trkpt>
      <trkpt lat="45.05425" lon="5.93498">
        <ele>2092</ele>
        <time>2019-08-04T05:58:51.000Z</time>
      </trkpt>
      <trkpt lat="45.05432" lon="5.93497">
        <ele>2091</ele>
        <time>2019-08-04T05:58:58.000Z</time>
      </trkpt>
      <trkpt lat="45.05437" lon="5.93493">
        <ele>2090</ele>
        <time>2019-08-04T05:59:06.000Z</time>
      </trkpt>
      <trkpt lat="45.05441" lon="5.93494">
        <ele>2093</ele>
        <time>2019-08-04T05:59:28.000Z</time>
      </trkpt>
      <trkpt lat="45.05446" lon="5.93487">
        <ele>2093</ele>
        <time>2019-08-04T06:00:04.000Z</time>
      </trkpt>
      <trkpt lat="45.05453" lon="5.93479">
        <ele>2092</ele>
        <time>2019-08-04T06:00:12.000Z</time>
      </trkpt>
      <trkpt lat="45.05456" lon="5.9347">
        <ele>2093</ele>
        <time>2019-08-04T06:00:19.000Z</time>
      </trkpt>
      <trkpt lat="45.0546" lon="5.93466">
        <ele>2094</ele>
        <time>2019-08-04T06:00:25.000Z</time>
      </trkpt>
      <trkpt lat="45.05465" lon="5.93466">
        <ele>2096</ele>
        <time>2019-08-04T06:01:40.000Z</time>
      </trkpt>
      <trkpt lat="45.05462" lon="5.93457">
        <ele>2094</ele>
        <time>2019-08-04T06:01:54.000Z</time>
      </trkpt>
      <trkpt lat="45.05461" lon="5.93451">
        <ele>2095</ele>
        <time>2019-08-04T06:01:58.000Z</time>
      </trkpt>
      <trkpt lat="45.05458" lon="5.93443">
        <ele>2094</ele>
        <time>2019-08-04T06:02:04.000Z</time>
      </trkpt>
      <trkpt lat="45.05456" lon="5.93436">
        <ele>2094</ele>
        <time>2019-08-04T06:02:08.000Z</time>
      </trkpt>
      <trkpt lat="45.05449" lon="5.93426">
        <ele>2095</ele>
        <time>2019-08-04T06:02:16.000Z</time>
      </trkpt>
      <trkpt lat="45.05446" lon="5.93421">
        <ele>2096</ele>
        <time>2019-08-04T06:02:20.000Z</time>
      </trkpt>
      <trkpt lat="45.05443" lon="5.93414">
        <ele>2096</ele>
        <time>2019-08-04T06:02:24.000Z</time>
      </trkpt>
      <trkpt lat="45.05441" lon="5.93408">
        <ele>2096</ele>
        <time>2019-08-04T06:02:28.000Z</time>
      </trkpt>
      <trkpt lat="45.05436" lon="5.93397">
        <ele>2097</ele>
        <time>2019-08-04T06:02:35.000Z</time>
      </trkpt>
      <trkpt lat="45.05434" lon="5.9339">
        <ele>2097</ele>
        <time>2019-08-04T06:02:39.000Z</time>
      </trkpt>
      <trkpt lat="45.0543" lon="5.9338">
        <ele>2097</ele>
        <time>2019-08-04T06:02:45.000Z</time>
      </trkpt>
      <trkpt lat="45.05428" lon="5.93375">
        <ele>2098</ele>
        <time>2019-08-04T06:02:49.000Z</time>
      </trkpt>
      <trkpt lat="45.05423" lon="5.93363">
        <ele>2098</ele>
        <time>2019-08-04T06:02:56.000Z</time>
      </trkpt>
      <trkpt lat="45.05421" lon="5.93352">
        <ele>2099</ele>
        <time>2019-08-04T06:03:03.000Z</time>
      </trkpt>
      <trkpt lat="45.05418" lon="5.93342">
        <ele>2099</ele>
        <time>2019-08-04T06:03:10.000Z</time>
      </trkpt>
      <trkpt lat="45.05415" lon="5.93336">
        <ele>2100</ele>
        <time>2019-08-04T06:03:14.000Z</time>
      </trkpt>
      <trkpt lat="45.05411" lon="5.93328">
        <ele>2099</ele>
        <time>2019-08-04T06:03:25.000Z</time>
      </trkpt>
      <trkpt lat="45.05408" lon="5.93321">
        <ele>2100</ele>
        <time>2019-08-04T06:03:29.000Z</time>
      </trkpt>
      <trkpt lat="45.05406" lon="5.93314">
        <ele>2100</ele>
        <time>2019-08-04T06:03:33.000Z</time>
      </trkpt>
      <trkpt lat="45.05401" lon="5.93304">
        <ele>2097</ele>
        <time>2019-08-04T06:03:40.000Z</time>
      </trkpt>
      <trkpt lat="45.05396" lon="5.93297">
        <ele>2098</ele>
        <time>2019-08-04T06:03:44.000Z</time>
      </trkpt>
      <trkpt lat="45.05393" lon="5.93291">
        <ele>2099</ele>
        <time>2019-08-04T06:03:48.000Z</time>
      </trkpt>
      <trkpt lat="45.05388" lon="5.93282">
        <ele>2099</ele>
        <time>2019-08-04T06:03:55.000Z</time>
      </trkpt>
      <trkpt lat="45.05383" lon="5.9327">
        <ele>2100</ele>
        <time>2019-08-04T06:04:02.000Z</time>
      </trkpt>
      <trkpt lat="45.0538" lon="5.93265">
        <ele>2100</ele>
        <time>2019-08-04T06:04:06.000Z</time>
      </trkpt>
      <trkpt lat="45.05377" lon="5.93254">
        <ele>2102</ele>
        <time>2019-08-04T06:04:14.000Z</time>
      </trkpt>
      <trkpt lat="45.05375" lon="5.93246">
        <ele>2102</ele>
        <time>2019-08-04T06:04:21.000Z</time>
      </trkpt>
      <trkpt lat="45.05372" lon="5.93238">
        <ele>2102</ele>
        <time>2019-08-04T06:04:28.000Z</time>
      </trkpt>
      <trkpt lat="45.0537" lon="5.93231">
        <ele>2103</ele>
        <time>2019-08-04T06:04:32.000Z</time>
      </trkpt>
      <trkpt lat="45.05367" lon="5.93219">
        <ele>2103</ele>
        <time>2019-08-04T06:04:39.000Z</time>
      </trkpt>
      <trkpt lat="45.05365" lon="5.93207">
        <ele>2103</ele>
        <time>2019-08-04T06:04:47.000Z</time>
      </trkpt>
      <trkpt lat="45.05364" lon="5.932">
        <ele>2104</ele>
        <time>2019-08-04T06:04:51.000Z</time>
      </trkpt>
      <trkpt lat="45.05362" lon="5.93193">
        <ele>2104</ele>
        <time>2019-08-04T06:04:55.000Z</time>
      </trkpt>
      <trkpt lat="45.05361" lon="5.93184">
        <ele>2103</ele>
        <time>2019-08-04T06:05:02.000Z</time>
      </trkpt>
      <trkpt lat="45.05362" lon="5.93177">
        <ele>2103</ele>
        <time>2019-08-04T06:05:13.000Z</time>
      </trkpt>
      <trkpt lat="45.05359" lon="5.93169">
        <ele>2104</ele>
        <time>2019-08-04T06:05:19.000Z</time>
      </trkpt>
      <trkpt lat="45.05356" lon="5.93158">
        <ele>2106</ele>
        <time>2019-08-04T06:05:26.000Z</time>
      </trkpt>
      <trkpt lat="45.05352" lon="5.93152">
        <ele>2106</ele>
        <time>2019-08-04T06:05:30.000Z</time>
      </trkpt>
      <trkpt lat="45.05349" lon="5.93143">
        <ele>2108</ele>
        <time>2019-08-04T06:05:36.000Z</time>
      </trkpt>
      <trkpt lat="45.05344" lon="5.93133">
        <ele>2108</ele>
        <time>2019-08-04T06:05:44.000Z</time>
      </trkpt>
      <trkpt lat="45.05338" lon="5.93124">
        <ele>2108</ele>
        <time>2019-08-04T06:05:52.000Z</time>
      </trkpt>
      <trkpt lat="45.05335" lon="5.93118">
        <ele>2110</ele>
        <time>2019-08-04T06:05:58.000Z</time>
      </trkpt>
      <trkpt lat="45.05328" lon="5.93112">
        <ele>2111</ele>
        <time>2019-08-04T06:06:06.000Z</time>
      </trkpt>
      <trkpt lat="45.05322" lon="5.93106">
        <ele>2111</ele>
        <time>2019-08-04T06:06:13.000Z</time>
      </trkpt>
      <trkpt lat="45.05319" lon="5.93097">
        <ele>2113</ele>
        <time>2019-08-04T06:06:21.000Z</time>
      </trkpt>
      <trkpt lat="45.05317" lon="5.93091">
        <ele>2112</ele>
        <time>2019-08-04T06:06:28.000Z</time>
      </trkpt>
      <trkpt lat="45.05311" lon="5.93084">
        <ele>2113</ele>
        <time>2019-08-04T06:06:35.000Z</time>
      </trkpt>
      <trkpt lat="45.05307" lon="5.93079">
        <ele>2113</ele>
        <time>2019-08-04T06:06:39.000Z</time>
      </trkpt>
      <trkpt lat="45.05306" lon="5.93072">
        <ele>2115</ele>
        <time>2019-08-04T06:06:50.000Z</time>
      </trkpt>
      <trkpt lat="45.05304" lon="5.93065">
        <ele>2116</ele>
        <time>2019-08-04T06:06:54.000Z</time>
      </trkpt>
      <trkpt lat="45.05303" lon="5.93055">
        <ele>2116</ele>
        <time>2019-08-04T06:07:01.000Z</time>
      </trkpt>
      <trkpt lat="45.05303" lon="5.93048">
        <ele>2116</ele>
        <time>2019-08-04T06:07:08.000Z</time>
      </trkpt>
      <trkpt lat="45.05305" lon="5.93039">
        <ele>2118</ele>
        <time>2019-08-04T06:07:15.000Z</time>
      </trkpt>
      <trkpt lat="45.05307" lon="5.9303">
        <ele>2118</ele>
        <time>2019-08-04T06:07:22.000Z</time>
      </trkpt>
      <trkpt lat="45.0531" lon="5.93024">
        <ele>2119</ele>
        <time>2019-08-04T06:07:26.000Z</time>
      </trkpt>
      <trkpt lat="45.05311" lon="5.93016">
        <ele>2118</ele>
        <time>2019-08-04T06:07:32.000Z</time>
      </trkpt>
      <trkpt lat="45.05311" lon="5.93004">
        <ele>2118</ele>
        <time>2019-08-04T06:07:46.000Z</time>
      </trkpt>
      <trkpt lat="45.05312" lon="5.92997">
        <ele>2118</ele>
        <time>2019-08-04T06:07:49.000Z</time>
      </trkpt>
      <trkpt lat="45.05313" lon="5.92986">
        <ele>2120</ele>
        <time>2019-08-04T06:07:56.000Z</time>
      </trkpt>
      <trkpt lat="45.05314" lon="5.92977">
        <ele>2120</ele>
        <time>2019-08-04T06:08:03.000Z</time>
      </trkpt>
      <trkpt lat="45.05313" lon="5.92966">
        <ele>2121</ele>
        <time>2019-08-04T06:08:10.000Z</time>
      </trkpt>
      <trkpt lat="45.05313" lon="5.9296">
        <ele>2122</ele>
        <time>2019-08-04T06:08:14.000Z</time>
      </trkpt>
      <trkpt lat="45.0531" lon="5.9295">
        <ele>2122</ele>
        <time>2019-08-04T06:08:22.000Z</time>
      </trkpt>
      <trkpt lat="45.05308" lon="5.92944">
        <ele>2124</ele>
        <time>2019-08-04T06:08:46.000Z</time>
      </trkpt>
      <trkpt lat="45.05308" lon="5.92934">
        <ele>2124</ele>
        <time>2019-08-04T06:08:53.000Z</time>
      </trkpt>
      <trkpt lat="45.05307" lon="5.92921">
        <ele>2126</ele>
        <time>2019-08-04T06:09:01.000Z</time>
      </trkpt>
      <trkpt lat="45.0531" lon="5.92913">
        <ele>2126</ele>
        <time>2019-08-04T06:09:08.000Z</time>
      </trkpt>
      <trkpt lat="45.05305" lon="5.92921">
        <ele>2127</ele>
        <time>2019-08-04T06:10:24.000Z</time>
      </trkpt>
      <trkpt lat="45.05298" lon="5.92929">
        <ele>2127</ele>
        <time>2019-08-04T06:10:31.000Z</time>
      </trkpt>
      <trkpt lat="45.05294" lon="5.92934">
        <ele>2126</ele>
        <time>2019-08-04T06:10:35.000Z</time>
      </trkpt>
      <trkpt lat="45.05289" lon="5.92939">
        <ele>2125</ele>
        <time>2019-08-04T06:10:39.000Z</time>
      </trkpt>
      <trkpt lat="45.05285" lon="5.92943">
        <ele>2124</ele>
        <time>2019-08-04T06:10:43.000Z</time>
      </trkpt>
      <trkpt lat="45.05278" lon="5.92936">
        <ele>2125</ele>
        <time>2019-08-04T06:10:50.000Z</time>
      </trkpt>
      <trkpt lat="45.05274" lon="5.92931">
        <ele>2126</ele>
        <time>2019-08-04T06:10:54.000Z</time>
      </trkpt>
      <trkpt lat="45.05265" lon="5.92926">
        <ele>2127</ele>
        <time>2019-08-04T06:11:01.000Z</time>
      </trkpt>
      <trkpt lat="45.0526" lon="5.92921">
        <ele>2127</ele>
        <time>2019-08-04T06:11:07.000Z</time>
      </trkpt>
      <trkpt lat="45.05257" lon="5.92911">
        <ele>2128</ele>
        <time>2019-08-04T06:11:14.000Z</time>
      </trkpt>
      <trkpt lat="45.05256" lon="5.92904">
        <ele>2128</ele>
        <time>2019-08-04T06:11:18.000Z</time>
      </trkpt>
      <trkpt lat="45.05257" lon="5.92896">
        <ele>2128</ele>
        <time>2019-08-04T06:11:22.000Z</time>
      </trkpt>
      <trkpt lat="45.05255" lon="5.92886">
        <ele>2129</ele>
        <time>2019-08-04T06:11:28.000Z</time>
      </trkpt>
      <trkpt lat="45.05254" lon="5.92879">
        <ele>2129</ele>
        <time>2019-08-04T06:11:32.000Z</time>
      </trkpt>
      <trkpt lat="45.05254" lon="5.92869">
        <ele>2130</ele>
        <time>2019-08-04T06:11:39.000Z</time>
      </trkpt>
      <trkpt lat="45.05253" lon="5.9286">
        <ele>2130</ele>
        <time>2019-08-04T06:11:59.000Z</time>
      </trkpt>
      <trkpt lat="45.05251" lon="5.92853">
        <ele>2130</ele>
        <time>2019-08-04T06:12:05.000Z</time>
      </trkpt>
      <trkpt lat="45.05249" lon="5.92844">
        <ele>2131</ele>
        <time>2019-08-04T06:12:09.000Z</time>
      </trkpt>
      <trkpt lat="45.05249" lon="5.92836">
        <ele>2130</ele>
        <time>2019-08-04T06:12:13.000Z</time>
      </trkpt>
      <trkpt lat="45.05248" lon="5.92829">
        <ele>2130</ele>
        <time>2019-08-04T06:12:17.000Z</time>
      </trkpt>
      <trkpt lat="45.05246" lon="5.92817">
        <ele>2130</ele>
        <time>2019-08-04T06:12:24.000Z</time>
      </trkpt>
      <trkpt lat="45.05244" lon="5.92811">
        <ele>2129</ele>
        <time>2019-08-04T06:12:28.000Z</time>
      </trkpt>
      <trkpt lat="45.0524" lon="5.928">
        <ele>2131</ele>
        <time>2019-08-04T06:12:36.000Z</time>
      </trkpt>
      <trkpt lat="45.05238" lon="5.92794">
        <ele>2131</ele>
        <time>2019-08-04T06:12:44.000Z</time>
      </trkpt>
      <trkpt lat="45.05236" lon="5.92787">
        <ele>2128</ele>
        <time>2019-08-04T06:12:51.000Z</time>
      </trkpt>
      <trkpt lat="45.05234" lon="5.92781">
        <ele>2129</ele>
        <time>2019-08-04T06:12:55.000Z</time>
      </trkpt>
      <trkpt lat="45.0523" lon="5.92769">
        <ele>2128</ele>
        <time>2019-08-04T06:13:02.000Z</time>
      </trkpt>
      <trkpt lat="45.05228" lon="5.9276">
        <ele>2129</ele>
        <time>2019-08-04T06:13:08.000Z</time>
      </trkpt>
      <trkpt lat="45.05226" lon="5.92753">
        <ele>2129</ele>
        <time>2019-08-04T06:13:24.000Z</time>
      </trkpt>
      <trkpt lat="45.05226" lon="5.92742">
        <ele>2130</ele>
        <time>2019-08-04T06:13:31.000Z</time>
      </trkpt>
      <trkpt lat="45.05221" lon="5.9273">
        <ele>2130</ele>
        <time>2019-08-04T06:13:39.000Z</time>
      </trkpt>
      <trkpt lat="45.05217" lon="5.92722">
        <ele>2130</ele>
        <time>2019-08-04T06:13:46.000Z</time>
      </trkpt>
      <trkpt lat="45.05214" lon="5.92712">
        <ele>2132</ele>
        <time>2019-08-04T06:13:54.000Z</time>
      </trkpt>
      <trkpt lat="45.05212" lon="5.92701">
        <ele>2132</ele>
        <time>2019-08-04T06:14:02.000Z</time>
      </trkpt>
      <trkpt lat="45.05209" lon="5.92694">
        <ele>2132</ele>
        <time>2019-08-04T06:14:09.000Z</time>
      </trkpt>
      <trkpt lat="45.05204" lon="5.92689">
        <ele>2132</ele>
        <time>2019-08-04T06:17:18.000Z</time>
      </trkpt>
      <trkpt lat="45.05201" lon="5.92681">
        <ele>2133</ele>
        <time>2019-08-04T06:17:25.000Z</time>
      </trkpt>
      <trkpt lat="45.05198" lon="5.92674">
        <ele>2135</ele>
        <time>2019-08-04T06:17:31.000Z</time>
      </trkpt>
      <trkpt lat="45.05195" lon="5.92669">
        <ele>2136</ele>
        <time>2019-08-04T06:17:39.000Z</time>
      </trkpt>
      <trkpt lat="45.0519" lon="5.92667">
        <ele>2141</ele>
        <time>2019-08-04T06:17:57.000Z</time>
      </trkpt>
      <trkpt lat="45.05186" lon="5.92671">
        <ele>2141</ele>
        <time>2019-08-04T06:18:19.000Z</time>
      </trkpt>
      <trkpt lat="45.05182" lon="5.92668">
        <ele>2144</ele>
        <time>2019-08-04T06:18:32.000Z</time>
      </trkpt>
      <trkpt lat="45.05178" lon="5.92672">
        <ele>2146</ele>
        <time>2019-08-04T06:18:44.000Z</time>
      </trkpt>
      <trkpt lat="45.05179" lon="5.92678">
        <ele>2147</ele>
        <time>2019-08-04T06:18:52.000Z</time>
      </trkpt>
      <trkpt lat="45.05178" lon="5.92686">
        <ele>2148</ele>
        <time>2019-08-04T06:19:02.000Z</time>
      </trkpt>
      <trkpt lat="45.05177" lon="5.92692">
        <ele>2151</ele>
        <time>2019-08-04T06:19:12.000Z</time>
      </trkpt>
      <trkpt lat="45.05174" lon="5.92701">
        <ele>2152</ele>
        <time>2019-08-04T06:19:23.000Z</time>
      </trkpt>
      <trkpt lat="45.05172" lon="5.92707">
        <ele>2157</ele>
        <time>2019-08-04T06:19:33.000Z</time>
      </trkpt>
      <trkpt lat="45.05172" lon="5.92714">
        <ele>2160</ele>
        <time>2019-08-04T06:19:40.000Z</time>
      </trkpt>
      <trkpt lat="45.05175" lon="5.9272">
        <ele>2161</ele>
        <time>2019-08-04T06:19:46.000Z</time>
      </trkpt>
      <trkpt lat="45.05174" lon="5.92729">
        <ele>2162</ele>
        <time>2019-08-04T06:19:54.000Z</time>
      </trkpt>
      <trkpt lat="45.05173" lon="5.92739">
        <ele>2163</ele>
        <time>2019-08-04T06:20:02.000Z</time>
      </trkpt>
      <trkpt lat="45.0517" lon="5.92746">
        <ele>2165</ele>
        <time>2019-08-04T06:21:16.000Z</time>
      </trkpt>
      <trkpt lat="45.05166" lon="5.92754">
        <ele>2167</ele>
        <time>2019-08-04T06:21:27.000Z</time>
      </trkpt>
      <trkpt lat="45.05165" lon="5.92761">
        <ele>2173</ele>
        <time>2019-08-04T06:21:41.000Z</time>
      </trkpt>
      <trkpt lat="45.05165" lon="5.9277">
        <ele>2174</ele>
        <time>2019-08-04T06:21:52.000Z</time>
      </trkpt>
      <trkpt lat="45.0517" lon="5.92776">
        <ele>2176</ele>
        <time>2019-08-04T06:22:56.000Z</time>
      </trkpt>
      <trkpt lat="45.05165" lon="5.92771">
        <ele>2176</ele>
        <time>2019-08-04T06:24:21.000Z</time>
      </trkpt>
      <trkpt lat="45.05159" lon="5.9277">
        <ele>2176</ele>
        <time>2019-08-04T06:24:28.000Z</time>
      </trkpt>
      <trkpt lat="45.05154" lon="5.92767">
        <ele>2177</ele>
        <time>2019-08-04T06:24:39.000Z</time>
      </trkpt>
      <trkpt lat="45.05148" lon="5.92763">
        <ele>2178</ele>
        <time>2019-08-04T06:24:45.000Z</time>
      </trkpt>
      <trkpt lat="45.05142" lon="5.9276">
        <ele>2179</ele>
        <time>2019-08-04T06:24:52.000Z</time>
      </trkpt>
      <trkpt lat="45.05134" lon="5.92762">
        <ele>2179</ele>
        <time>2019-08-04T06:24:59.000Z</time>
      </trkpt>
      <trkpt lat="45.0513" lon="5.92764">
        <ele>2180</ele>
        <time>2019-08-04T06:25:05.000Z</time>
      </trkpt>
      <trkpt lat="45.05123" lon="5.92763">
        <ele>2181</ele>
        <time>2019-08-04T06:25:42.000Z</time>
      </trkpt>
      <trkpt lat="45.05117" lon="5.92761">
        <ele>2181</ele>
        <time>2019-08-04T06:25:49.000Z</time>
      </trkpt>
      <trkpt lat="45.05113" lon="5.92759">
        <ele>2183</ele>
        <time>2019-08-04T06:25:55.000Z</time>
      </trkpt>
      <trkpt lat="45.05105" lon="5.92756">
        <ele>2182</ele>
        <time>2019-08-04T06:26:02.000Z</time>
      </trkpt>
      <trkpt lat="45.05099" lon="5.92755">
        <ele>2184</ele>
        <time>2019-08-04T06:26:09.000Z</time>
      </trkpt>
      <trkpt lat="45.05093" lon="5.92758">
        <ele>2184</ele>
        <time>2019-08-04T06:26:19.000Z</time>
      </trkpt>
      <trkpt lat="45.05088" lon="5.92756">
        <ele>2186</ele>
        <time>2019-08-04T06:26:26.000Z</time>
      </trkpt>
      <trkpt lat="45.05084" lon="5.92753">
        <ele>2190</ele>
        <time>2019-08-04T06:26:36.000Z</time>
      </trkpt>
      <trkpt lat="45.05078" lon="5.92757">
        <ele>2191</ele>
        <time>2019-08-04T06:26:49.000Z</time>
      </trkpt>
      <trkpt lat="45.05073" lon="5.92758">
        <ele>2193</ele>
        <time>2019-08-04T06:27:01.000Z</time>
      </trkpt>
      <trkpt lat="45.05066" lon="5.92755">
        <ele>2193</ele>
        <time>2019-08-04T06:27:10.000Z</time>
      </trkpt>
      <trkpt lat="45.05062" lon="5.92753">
        <ele>2194</ele>
        <time>2019-08-04T06:27:17.000Z</time>
      </trkpt>
      <trkpt lat="45.05059" lon="5.92744">
        <ele>2198</ele>
        <time>2019-08-04T06:27:24.000Z</time>
      </trkpt>
      <trkpt lat="45.05057" lon="5.92738">
        <ele>2200</ele>
        <time>2019-08-04T06:27:30.000Z</time>
      </trkpt>
      <trkpt lat="45.05052" lon="5.92735">
        <ele>2201</ele>
        <time>2019-08-04T06:28:09.000Z</time>
      </trkpt>
      <trkpt lat="45.05045" lon="5.92734">
        <ele>2199</ele>
        <time>2019-08-04T06:28:17.000Z</time>
      </trkpt>
      <trkpt lat="45.0504" lon="5.92732">
        <ele>2200</ele>
        <time>2019-08-04T06:28:24.000Z</time>
      </trkpt>
      <trkpt lat="45.05034" lon="5.92729">
        <ele>2202</ele>
        <time>2019-08-04T06:28:35.000Z</time>
      </trkpt>
      <trkpt lat="45.05027" lon="5.92728">
        <ele>2203</ele>
        <time>2019-08-04T06:28:46.000Z</time>
      </trkpt>
      <trkpt lat="45.05022" lon="5.92725">
        <ele>2204</ele>
        <time>2019-08-04T06:28:54.000Z</time>
      </trkpt>
      <trkpt lat="45.05016" lon="5.92725">
        <ele>2208</ele>
        <time>2019-08-04T06:29:01.000Z</time>
      </trkpt>
      <trkpt lat="45.05014" lon="5.92718">
        <ele>2214</ele>
        <time>2019-08-04T06:29:12.000Z</time>
      </trkpt>
      <trkpt lat="45.05012" lon="5.92711">
        <ele>2216</ele>
        <time>2019-08-04T06:29:24.000Z</time>
      </trkpt>
      <trkpt lat="45.05008" lon="5.92706">
        <ele>2216</ele>
        <time>2019-08-04T06:29:41.000Z</time>
      </trkpt>
      <trkpt lat="45.05007" lon="5.92699">
        <ele>2219</ele>
        <time>2019-08-04T06:29:55.000Z</time>
      </trkpt>
      <trkpt lat="45.05003" lon="5.92695">
        <ele>2221</ele>
        <time>2019-08-04T06:30:06.000Z</time>
      </trkpt>
      <trkpt lat="45.04998" lon="5.92695">
        <ele>2226</ele>
        <time>2019-08-04T06:30:20.000Z</time>
      </trkpt>
      <trkpt lat="45.04996" lon="5.92689">
        <ele>2227</ele>
        <time>2019-08-04T06:30:32.000Z</time>
      </trkpt>
      <trkpt lat="45.04992" lon="5.92684">
        <ele>2228</ele>
        <time>2019-08-04T06:30:43.000Z</time>
      </trkpt>
      <trkpt lat="45.04987" lon="5.9268">
        <ele>2232</ele>
        <time>2019-08-04T06:31:10.000Z</time>
      </trkpt>
      <trkpt lat="45.04983" lon="5.92679">
        <ele>2234</ele>
        <time>2019-08-04T06:31:23.000Z</time>
      </trkpt>
      <trkpt lat="45.04979" lon="5.92683">
        <ele>2236</ele>
        <time>2019-08-04T06:31:34.000Z</time>
      </trkpt>
      <trkpt lat="45.04975" lon="5.92691">
        <ele>2239</ele>
        <time>2019-08-04T06:31:48.000Z</time>
      </trkpt>
      <trkpt lat="45.0497" lon="5.92693">
        <ele>2244</ele>
        <time>2019-08-04T06:32:06.000Z</time>
      </trkpt>
      <trkpt lat="45.04969" lon="5.92701">
        <ele>2247</ele>
        <time>2019-08-04T06:32:21.000Z</time>
      </trkpt>
      <trkpt lat="45.04964" lon="5.927">
        <ele>2246</ele>
        <time>2019-08-04T06:32:35.000Z</time>
      </trkpt>
      <trkpt lat="45.0496" lon="5.92691">
        <ele>2246</ele>
        <time>2019-08-04T06:32:44.000Z</time>
      </trkpt>
      <trkpt lat="45.04959" lon="5.92683">
        <ele>2246</ele>
        <time>2019-08-04T06:32:54.000Z</time>
      </trkpt>
      <trkpt lat="45.04956" lon="5.92689">
        <ele>2248</ele>
        <time>2019-08-04T06:33:04.000Z</time>
      </trkpt>
      <trkpt lat="45.0495" lon="5.92688">
        <ele>2243</ele>
        <time>2019-08-04T06:33:18.000Z</time>
      </trkpt>
      <trkpt lat="45.04945" lon="5.92683">
        <ele>2242</ele>
        <time>2019-08-04T06:33:25.000Z</time>
      </trkpt>
      <trkpt lat="45.0494" lon="5.92686">
        <ele>2245</ele>
        <time>2019-08-04T06:33:36.000Z</time>
      </trkpt>
      <trkpt lat="45.04934" lon="5.9268">
        <ele>2246</ele>
        <time>2019-08-04T06:33:44.000Z</time>
      </trkpt>
      <trkpt lat="45.04929" lon="5.92677">
        <ele>2251</ele>
        <time>2019-08-04T06:33:54.000Z</time>
      </trkpt>
      <trkpt lat="45.04924" lon="5.92682">
        <ele>2256</ele>
        <time>2019-08-04T06:34:42.000Z</time>
      </trkpt>
      <trkpt lat="45.04919" lon="5.92685">
        <ele>2261</ele>
        <time>2019-08-04T06:35:22.000Z</time>
      </trkpt>
      <trkpt lat="45.04915" lon="5.9269">
        <ele>2264</ele>
        <time>2019-08-04T06:35:29.000Z</time>
      </trkpt>
      <trkpt lat="45.04908" lon="5.9269">
        <ele>2263</ele>
        <time>2019-08-04T06:35:44.000Z</time>
      </trkpt>
      <trkpt lat="45.04903" lon="5.92691">
        <ele>2263</ele>
        <time>2019-08-04T06:35:52.000Z</time>
      </trkpt>
      <trkpt lat="45.04899" lon="5.92697">
        <ele>2263</ele>
        <time>2019-08-04T06:36:02.000Z</time>
      </trkpt>
      <trkpt lat="45.04896" lon="5.92705">
        <ele>2265</ele>
        <time>2019-08-04T06:36:10.000Z</time>
      </trkpt>
      <trkpt lat="45.04892" lon="5.92712">
        <ele>2267</ele>
        <time>2019-08-04T06:36:16.000Z</time>
      </trkpt>
      <trkpt lat="45.04886" lon="5.9271">
        <ele>2268</ele>
        <time>2019-08-04T06:36:26.000Z</time>
      </trkpt>
      <trkpt lat="45.04885" lon="5.92703">
        <ele>2267</ele>
        <time>2019-08-04T06:36:33.000Z</time>
      </trkpt>
      <trkpt lat="45.04881" lon="5.92698">
        <ele>2267</ele>
        <time>2019-08-04T06:36:43.000Z</time>
      </trkpt>
      <trkpt lat="45.04876" lon="5.92692">
        <ele>2268</ele>
        <time>2019-08-04T06:36:57.000Z</time>
      </trkpt>
      <trkpt lat="45.04872" lon="5.92685">
        <ele>2270</ele>
        <time>2019-08-04T06:37:04.000Z</time>
      </trkpt>
      <trkpt lat="45.0487" lon="5.92679">
        <ele>2273</ele>
        <time>2019-08-04T06:37:14.000Z</time>
      </trkpt>
      <trkpt lat="45.04865" lon="5.92674">
        <ele>2276</ele>
        <time>2019-08-04T06:37:26.000Z</time>
      </trkpt>
      <trkpt lat="45.04861" lon="5.92669">
        <ele>2278</ele>
        <time>2019-08-04T06:37:48.000Z</time>
      </trkpt>
      <trkpt lat="45.04855" lon="5.92663">
        <ele>2281</ele>
        <time>2019-08-04T06:38:00.000Z</time>
      </trkpt>
      <trkpt lat="45.04851" lon="5.92667">
        <ele>2283</ele>
        <time>2019-08-04T06:38:12.000Z</time>
      </trkpt>
      <trkpt lat="45.04847" lon="5.92671">
        <ele>2285</ele>
        <time>2019-08-04T06:38:23.000Z</time>
      </trkpt>
      <trkpt lat="45.04842" lon="5.92672">
        <ele>2287</ele>
        <time>2019-08-04T06:38:40.000Z</time>
      </trkpt>
      <trkpt lat="45.04837" lon="5.92678">
        <ele>2289</ele>
        <time>2019-08-04T06:38:52.000Z</time>
      </trkpt>
      <trkpt lat="45.04832" lon="5.9268">
        <ele>2287</ele>
        <time>2019-08-04T06:39:24.000Z</time>
      </trkpt>
      <trkpt lat="45.04827" lon="5.92678">
        <ele>2290</ele>
        <time>2019-08-04T06:39:46.000Z</time>
      </trkpt>
      <trkpt lat="45.04823" lon="5.92684">
        <ele>2294</ele>
        <time>2019-08-04T06:39:56.000Z</time>
      </trkpt>
      <trkpt lat="45.04818" lon="5.9269">
        <ele>2296</ele>
        <time>2019-08-04T06:40:08.000Z</time>
      </trkpt>
      <trkpt lat="45.04814" lon="5.92691">
        <ele>2300</ele>
        <time>2019-08-04T06:40:30.000Z</time>
      </trkpt>
      <trkpt lat="45.0481" lon="5.92696">
        <ele>2304</ele>
        <time>2019-08-04T06:40:44.000Z</time>
      </trkpt>
      <trkpt lat="45.04807" lon="5.92689">
        <ele>2314</ele>
        <time>2019-08-04T06:41:20.000Z</time>
      </trkpt>
      <trkpt lat="45.04803" lon="5.92684">
        <ele>2312</ele>
        <time>2019-08-04T06:41:58.000Z</time>
      </trkpt>
      <trkpt lat="45.048" lon="5.92679">
        <ele>2312</ele>
        <time>2019-08-04T06:42:08.000Z</time>
      </trkpt>
      <trkpt lat="45.04795" lon="5.92677">
        <ele>2315</ele>
        <time>2019-08-04T06:42:21.000Z</time>
      </trkpt>
      <trkpt lat="45.0479" lon="5.92676">
        <ele>2319</ele>
        <time>2019-08-04T06:42:35.000Z</time>
      </trkpt>
      <trkpt lat="45.04786" lon="5.92679">
        <ele>2329</ele>
        <time>2019-08-04T06:43:00.000Z</time>
      </trkpt>
      <trkpt lat="45.04783" lon="5.92685">
        <ele>2330</ele>
        <time>2019-08-04T06:43:14.000Z</time>
      </trkpt>
      <trkpt lat="45.04781" lon="5.92691">
        <ele>2334</ele>
        <time>2019-08-04T06:43:28.000Z</time>
      </trkpt>
      <trkpt lat="45.04775" lon="5.92691">
        <ele>2339</ele>
        <time>2019-08-04T06:43:57.000Z</time>
      </trkpt>
      <trkpt lat="45.04771" lon="5.92688">
        <ele>2347</ele>
        <time>2019-08-04T06:44:32.000Z</time>
      </trkpt>
      <trkpt lat="45.04767" lon="5.92686">
        <ele>2347</ele>
        <time>2019-08-04T06:44:45.000Z</time>
      </trkpt>
      <trkpt lat="45.04767" lon="5.92678">
        <ele>2355</ele>
        <time>2019-08-04T06:47:59.000Z</time>
      </trkpt>
      <trkpt lat="45.04768" lon="5.92671">
        <ele>2354</ele>
        <time>2019-08-04T06:48:12.000Z</time>
      </trkpt>
      <trkpt lat="45.04764" lon="5.92666">
        <ele>2360</ele>
        <time>2019-08-04T06:48:52.000Z</time>
      </trkpt>
      <trkpt lat="45.04765" lon="5.92659">
        <ele>2364</ele>
        <time>2019-08-04T06:49:18.000Z</time>
      </trkpt>
      <trkpt lat="45.0476" lon="5.92658">
        <ele>2368</ele>
        <time>2019-08-04T06:49:48.000Z</time>
      </trkpt>
      <trkpt lat="45.04754" lon="5.92654">
        <ele>2366</ele>
        <time>2019-08-04T06:50:04.000Z</time>
      </trkpt>
      <trkpt lat="45.04751" lon="5.92649">
        <ele>2369</ele>
        <time>2019-08-04T06:50:17.000Z</time>
      </trkpt>
      <trkpt lat="45.04752" lon="5.92643">
        <ele>2372</ele>
        <time>2019-08-04T06:50:35.000Z</time>
      </trkpt>
      <trkpt lat="45.04748" lon="5.92644">
        <ele>2372</ele>
        <time>2019-08-04T06:51:05.000Z</time>
      </trkpt>
      <trkpt lat="45.04743" lon="5.92649">
        <ele>2374</ele>
        <time>2019-08-04T06:51:20.000Z</time>
      </trkpt>
      <trkpt lat="45.0474" lon="5.92654">
        <ele>2376</ele>
        <time>2019-08-04T06:51:37.000Z</time>
      </trkpt>
      <trkpt lat="45.04738" lon="5.9266">
        <ele>2376</ele>
        <time>2019-08-04T06:51:48.000Z</time>
      </trkpt>
      <trkpt lat="45.04732" lon="5.92662">
        <ele>2381</ele>
        <time>2019-08-04T06:52:34.000Z</time>
      </trkpt>
      <trkpt lat="45.04728" lon="5.92667">
        <ele>2382</ele>
        <time>2019-08-04T06:52:45.000Z</time>
      </trkpt>
      <trkpt lat="45.04724" lon="5.92671">
        <ele>2384</ele>
        <time>2019-08-04T06:52:59.000Z</time>
      </trkpt>
      <trkpt lat="45.04719" lon="5.92676">
        <ele>2384</ele>
        <time>2019-08-04T06:53:07.000Z</time>
      </trkpt>
      <trkpt lat="45.04712" lon="5.92678">
        <ele>2387</ele>
        <time>2019-08-04T06:53:22.000Z</time>
      </trkpt>
      <trkpt lat="45.04708" lon="5.92681">
        <ele>2390</ele>
        <time>2019-08-04T06:53:33.000Z</time>
      </trkpt>
      <trkpt lat="45.04703" lon="5.92682">
        <ele>2390</ele>
        <time>2019-08-04T06:53:43.000Z</time>
      </trkpt>
      <trkpt lat="45.04697" lon="5.92682">
        <ele>2392</ele>
        <time>2019-08-04T06:53:53.000Z</time>
      </trkpt>
      <trkpt lat="45.04691" lon="5.92685">
        <ele>2398</ele>
        <time>2019-08-04T06:54:06.000Z</time>
      </trkpt>
      <trkpt lat="45.04686" lon="5.92685">
        <ele>2399</ele>
        <time>2019-08-04T06:54:14.000Z</time>
      </trkpt>
      <trkpt lat="45.04681" lon="5.92687">
        <ele>2401</ele>
        <time>2019-08-04T06:54:23.000Z</time>
      </trkpt>
      <trkpt lat="45.04675" lon="5.92687">
        <ele>2404</ele>
        <time>2019-08-04T06:54:34.000Z</time>
      </trkpt>
      <trkpt lat="45.04669" lon="5.92685">
        <ele>2406</ele>
        <time>2019-08-04T06:54:44.000Z</time>
      </trkpt>
      <trkpt lat="45.04663" lon="5.92685">
        <ele>2408</ele>
        <time>2019-08-04T06:54:52.000Z</time>
      </trkpt>
      <trkpt lat="45.04658" lon="5.9269">
        <ele>2409</ele>
        <time>2019-08-04T06:55:02.000Z</time>
      </trkpt>
      <trkpt lat="45.04652" lon="5.92691">
        <ele>2409</ele>
        <time>2019-08-04T06:55:12.000Z</time>
      </trkpt>
      <trkpt lat="45.04645" lon="5.92688">
        <ele>2410</ele>
        <time>2019-08-04T06:55:19.000Z</time>
      </trkpt>
      <trkpt lat="45.04639" lon="5.92688">
        <ele>2412</ele>
        <time>2019-08-04T06:55:27.000Z</time>
      </trkpt>
      <trkpt lat="45.04634" lon="5.92682">
        <ele>2417</ele>
        <time>2019-08-04T06:55:37.000Z</time>
      </trkpt>
      <trkpt lat="45.04629" lon="5.92682">
        <ele>2419</ele>
        <time>2019-08-04T06:55:50.000Z</time>
      </trkpt>
      <trkpt lat="45.04624" lon="5.92681">
        <ele>2422</ele>
        <time>2019-08-04T06:56:01.000Z</time>
      </trkpt>
      <trkpt lat="45.04622" lon="5.92675">
        <ele>2425</ele>
        <time>2019-08-04T06:56:34.000Z</time>
      </trkpt>
      <trkpt lat="45.04617" lon="5.92676">
        <ele>2424</ele>
        <time>2019-08-04T06:56:41.000Z</time>
      </trkpt>
      <trkpt lat="45.04613" lon="5.92672">
        <ele>2428</ele>
        <time>2019-08-04T06:56:48.000Z</time>
      </trkpt>
      <trkpt lat="45.04609" lon="5.92665">
        <ele>2432</ele>
        <time>2019-08-04T06:57:00.000Z</time>
      </trkpt>
      <trkpt lat="45.04604" lon="5.92662">
        <ele>2433</ele>
        <time>2019-08-04T06:57:08.000Z</time>
      </trkpt>
      <trkpt lat="45.04597" lon="5.92665">
        <ele>2434</ele>
        <time>2019-08-04T06:57:23.000Z</time>
      </trkpt>
      <trkpt lat="45.04593" lon="5.92661">
        <ele>2438</ele>
        <time>2019-08-04T06:57:30.000Z</time>
      </trkpt>
      <trkpt lat="45.0459" lon="5.92656">
        <ele>2439</ele>
        <time>2019-08-04T06:57:44.000Z</time>
      </trkpt>
      <trkpt lat="45.04586" lon="5.92649">
        <ele>2443</ele>
        <time>2019-08-04T06:57:52.000Z</time>
      </trkpt>
      <trkpt lat="45.04581" lon="5.92649">
        <ele>2442</ele>
        <time>2019-08-04T06:57:59.000Z</time>
      </trkpt>
      <trkpt lat="45.04576" lon="5.92644">
        <ele>2445</ele>
        <time>2019-08-04T06:58:06.000Z</time>
      </trkpt>
      <trkpt lat="45.04574" lon="5.92638">
        <ele>2448</ele>
        <time>2019-08-04T06:58:17.000Z</time>
      </trkpt>
      <trkpt lat="45.04567" lon="5.92635">
        <ele>2448</ele>
        <time>2019-08-04T06:58:28.000Z</time>
      </trkpt>
      <trkpt lat="45.04563" lon="5.9263">
        <ele>2452</ele>
        <time>2019-08-04T06:58:39.000Z</time>
      </trkpt>
      <trkpt lat="45.04558" lon="5.92624">
        <ele>2456</ele>
        <time>2019-08-04T06:58:54.000Z</time>
      </trkpt>
      <trkpt lat="45.04556" lon="5.92617">
        <ele>2456</ele>
        <time>2019-08-04T06:59:02.000Z</time>
      </trkpt>
      <trkpt lat="45.04555" lon="5.92609">
        <ele>2460</ele>
        <time>2019-08-04T06:59:17.000Z</time>
      </trkpt>
      <trkpt lat="45.04555" lon="5.92599">
        <ele>2461</ele>
        <time>2019-08-04T06:59:31.000Z</time>
      </trkpt>
      <trkpt lat="45.04553" lon="5.92593">
        <ele>2461</ele>
        <time>2019-08-04T06:59:41.000Z</time>
      </trkpt>
      <trkpt lat="45.04549" lon="5.92587">
        <ele>2466</ele>
        <time>2019-08-04T06:59:55.000Z</time>
      </trkpt>
      <trkpt lat="45.04545" lon="5.92583">
        <ele>2468</ele>
        <time>2019-08-04T07:00:06.000Z</time>
      </trkpt>
      <trkpt lat="45.04541" lon="5.92577">
        <ele>2469</ele>
        <time>2019-08-04T07:00:13.000Z</time>
      </trkpt>
      <trkpt lat="45.04542" lon="5.92571">
        <ele>2473</ele>
        <time>2019-08-04T07:00:24.000Z</time>
      </trkpt>
      <trkpt lat="45.0454" lon="5.92565">
        <ele>2474</ele>
        <time>2019-08-04T07:00:37.000Z</time>
      </trkpt>
      <trkpt lat="45.04535" lon="5.92561">
        <ele>2478</ele>
        <time>2019-08-04T07:00:52.000Z</time>
      </trkpt>
      <trkpt lat="45.04531" lon="5.92554">
        <ele>2479</ele>
        <time>2019-08-04T07:01:06.000Z</time>
      </trkpt>
      <trkpt lat="45.04529" lon="5.92548">
        <ele>2480</ele>
        <time>2019-08-04T07:01:16.000Z</time>
      </trkpt>
      <trkpt lat="45.04528" lon="5.92541">
        <ele>2484</ele>
        <time>2019-08-04T07:01:27.000Z</time>
      </trkpt>
      <trkpt lat="45.04525" lon="5.92535">
        <ele>2485</ele>
        <time>2019-08-04T07:01:41.000Z</time>
      </trkpt>
      <trkpt lat="45.04522" lon="5.9253">
        <ele>2489</ele>
        <time>2019-08-04T07:01:58.000Z</time>
      </trkpt>
      <trkpt lat="45.0452" lon="5.92523">
        <ele>2488</ele>
        <time>2019-08-04T07:02:13.000Z</time>
      </trkpt>
      <trkpt lat="45.04516" lon="5.92518">
        <ele>2493</ele>
        <time>2019-08-04T07:02:32.000Z</time>
      </trkpt>
      <trkpt lat="45.04511" lon="5.92518">
        <ele>2492</ele>
        <time>2019-08-04T07:02:48.000Z</time>
      </trkpt>
      <trkpt lat="45.04507" lon="5.92515">
        <ele>2495</ele>
        <time>2019-08-04T07:02:59.000Z</time>
      </trkpt>
      <trkpt lat="45.04505" lon="5.92506">
        <ele>2500</ele>
        <time>2019-08-04T07:03:18.000Z</time>
      </trkpt>
      <trkpt lat="45.04501" lon="5.92503">
        <ele>2501</ele>
        <time>2019-08-04T07:03:28.000Z</time>
      </trkpt>
      <trkpt lat="45.04496" lon="5.925">
        <ele>2501</ele>
        <time>2019-08-04T07:03:42.000Z</time>
      </trkpt>
      <trkpt lat="45.04494" lon="5.92492">
        <ele>2504</ele>
        <time>2019-08-04T07:03:56.000Z</time>
      </trkpt>
      <trkpt lat="45.04493" lon="5.92485">
        <ele>2507</ele>
        <time>2019-08-04T07:04:07.000Z</time>
      </trkpt>
      <trkpt lat="45.0449" lon="5.92481">
        <ele>2510</ele>
        <time>2019-08-04T07:04:20.000Z</time>
      </trkpt>
      <trkpt lat="45.04486" lon="5.92478">
        <ele>2514</ele>
        <time>2019-08-04T07:04:35.000Z</time>
      </trkpt>
      <trkpt lat="45.04482" lon="5.92474">
        <ele>2514</ele>
        <time>2019-08-04T07:04:49.000Z</time>
      </trkpt>
      <trkpt lat="45.04478" lon="5.9247">
        <ele>2515</ele>
        <time>2019-08-04T07:04:55.000Z</time>
      </trkpt>
      <trkpt lat="45.04473" lon="5.92467">
        <ele>2517</ele>
        <time>2019-08-04T07:05:12.000Z</time>
      </trkpt>
      <trkpt lat="45.04469" lon="5.92462">
        <ele>2519</ele>
        <time>2019-08-04T07:05:25.000Z</time>
      </trkpt>
      <trkpt lat="45.04465" lon="5.92465">
        <ele>2519</ele>
        <time>2019-08-04T07:05:35.000Z</time>
      </trkpt>
      <trkpt lat="45.0446" lon="5.92465">
        <ele>2521</ele>
        <time>2019-08-04T07:05:46.000Z</time>
      </trkpt>
      <trkpt lat="45.04456" lon="5.92467">
        <ele>2524</ele>
        <time>2019-08-04T07:05:54.000Z</time>
      </trkpt>
      <trkpt lat="45.04451" lon="5.9246">
        <ele>2526</ele>
        <time>2019-08-04T07:06:06.000Z</time>
      </trkpt>
      <trkpt lat="45.04449" lon="5.92454">
        <ele>2528</ele>
        <time>2019-08-04T07:06:20.000Z</time>
      </trkpt>
      <trkpt lat="45.04446" lon="5.92446">
        <ele>2529</ele>
        <time>2019-08-04T07:06:34.000Z</time>
      </trkpt>
      <trkpt lat="45.04443" lon="5.92442">
        <ele>2531</ele>
        <time>2019-08-04T07:06:49.000Z</time>
      </trkpt>
      <trkpt lat="45.04442" lon="5.92436">
        <ele>2534</ele>
        <time>2019-08-04T07:07:04.000Z</time>
      </trkpt>
      <trkpt lat="45.04437" lon="5.92436">
        <ele>2538</ele>
        <time>2019-08-04T07:07:19.000Z</time>
      </trkpt>
      <trkpt lat="45.04431" lon="5.92435">
        <ele>2539</ele>
        <time>2019-08-04T07:07:29.000Z</time>
      </trkpt>
      <trkpt lat="45.04426" lon="5.92434">
        <ele>2540</ele>
        <time>2019-08-04T07:07:39.000Z</time>
      </trkpt>
      <trkpt lat="45.0442" lon="5.92434">
        <ele>2540</ele>
        <time>2019-08-04T07:07:49.000Z</time>
      </trkpt>
      <trkpt lat="45.04414" lon="5.92435">
        <ele>2542</ele>
        <time>2019-08-04T07:08:01.000Z</time>
      </trkpt>
      <trkpt lat="45.04409" lon="5.92438">
        <ele>2545</ele>
        <time>2019-08-04T07:08:11.000Z</time>
      </trkpt>
      <trkpt lat="45.04404" lon="5.92432">
        <ele>2550</ele>
        <time>2019-08-04T07:08:20.000Z</time>
      </trkpt>
      <trkpt lat="45.04399" lon="5.92434">
        <ele>2552</ele>
        <time>2019-08-04T07:08:31.000Z</time>
      </trkpt>
      <trkpt lat="45.04394" lon="5.9243">
        <ele>2556</ele>
        <time>2019-08-04T07:08:44.000Z</time>
      </trkpt>
      <trkpt lat="45.0439" lon="5.92428">
        <ele>2559</ele>
        <time>2019-08-04T07:08:55.000Z</time>
      </trkpt>
      <trkpt lat="45.04384" lon="5.92426">
        <ele>2565</ele>
        <time>2019-08-04T07:09:09.000Z</time>
      </trkpt>
      <trkpt lat="45.0438" lon="5.92426">
        <ele>2564</ele>
        <time>2019-08-04T07:09:29.000Z</time>
      </trkpt>
      <trkpt lat="45.04377" lon="5.9242">
        <ele>2568</ele>
        <time>2019-08-04T07:10:30.000Z</time>
      </trkpt>
      <trkpt lat="45.04378" lon="5.92413">
        <ele>2567</ele>
        <time>2019-08-04T07:10:40.000Z</time>
      </trkpt>
      <trkpt lat="45.04375" lon="5.92407">
        <ele>2569</ele>
        <time>2019-08-04T07:11:09.000Z</time>
      </trkpt>
      <trkpt lat="45.04371" lon="5.92405">
        <ele>2570</ele>
        <time>2019-08-04T07:11:23.000Z</time>
      </trkpt>
      <trkpt lat="45.04373" lon="5.92398">
        <ele>2575</ele>
        <time>2019-08-04T07:11:42.000Z</time>
      </trkpt>
      <trkpt lat="45.04377" lon="5.92395">
        <ele>2576</ele>
        <time>2019-08-04T07:11:53.000Z</time>
      </trkpt>
      <trkpt lat="45.04379" lon="5.92389">
        <ele>2585</ele>
        <time>2019-08-04T07:12:18.000Z</time>
      </trkpt>
      <trkpt lat="45.04373" lon="5.92386">
        <ele>2588</ele>
        <time>2019-08-04T07:12:40.000Z</time>
      </trkpt>
      <trkpt lat="45.0437" lon="5.92381">
        <ele>2594</ele>
        <time>2019-08-04T07:12:58.000Z</time>
      </trkpt>
      <trkpt lat="45.04373" lon="5.92373">
        <ele>2595</ele>
        <time>2019-08-04T07:13:24.000Z</time>
      </trkpt>
      <trkpt lat="45.04372" lon="5.92366">
        <ele>2599</ele>
        <time>2019-08-04T07:13:43.000Z</time>
      </trkpt>
      <trkpt lat="45.0437" lon="5.92359">
        <ele>2602</ele>
        <time>2019-08-04T07:13:54.000Z</time>
      </trkpt>
      <trkpt lat="45.0437" lon="5.92352">
        <ele>2604</ele>
        <time>2019-08-04T07:14:11.000Z</time>
      </trkpt>
      <trkpt lat="45.04369" lon="5.92345">
        <ele>2607</ele>
        <time>2019-08-04T07:14:25.000Z</time>
      </trkpt>
      <trkpt lat="45.0437" lon="5.92337">
        <ele>2611</ele>
        <time>2019-08-04T07:14:47.000Z</time>
      </trkpt>
      <trkpt lat="45.04371" lon="5.92327">
        <ele>2611</ele>
        <time>2019-08-04T07:15:02.000Z</time>
      </trkpt>
      <trkpt lat="45.0437" lon="5.92321">
        <ele>2613</ele>
        <time>2019-08-04T07:15:18.000Z</time>
      </trkpt>
      <trkpt lat="45.04368" lon="5.92314">
        <ele>2614</ele>
        <time>2019-08-04T07:15:28.000Z</time>
      </trkpt>
      <trkpt lat="45.04368" lon="5.92307">
        <ele>2624</ele>
        <time>2019-08-04T07:16:10.000Z</time>
      </trkpt>
      <trkpt lat="45.04366" lon="5.923">
        <ele>2624</ele>
        <time>2019-08-04T07:16:30.000Z</time>
      </trkpt>
      <trkpt lat="45.04366" lon="5.92291">
        <ele>2625</ele>
        <time>2019-08-04T07:16:41.000Z</time>
      </trkpt>
      <trkpt lat="45.04366" lon="5.92285">
        <ele>2631</ele>
        <time>2019-08-04T07:17:02.000Z</time>
      </trkpt>
      <trkpt lat="45.04361" lon="5.92287">
        <ele>2629</ele>
        <time>2019-08-04T07:17:27.000Z</time>
      </trkpt>
      <trkpt lat="45.04355" lon="5.92286">
        <ele>2629</ele>
        <time>2019-08-04T07:17:42.000Z</time>
      </trkpt>
      <trkpt lat="45.04351" lon="5.92284">
        <ele>2632</ele>
        <time>2019-08-04T07:17:55.000Z</time>
      </trkpt>
      <trkpt lat="45.04348" lon="5.92277">
        <ele>2637</ele>
        <time>2019-08-04T07:18:18.000Z</time>
      </trkpt>
      <trkpt lat="45.04347" lon="5.9227">
        <ele>2639</ele>
        <time>2019-08-04T07:18:44.000Z</time>
      </trkpt>
      <trkpt lat="45.04344" lon="5.92265">
        <ele>2641</ele>
        <time>2019-08-04T07:18:54.000Z</time>
      </trkpt>
      <trkpt lat="45.04341" lon="5.92258">
        <ele>2642</ele>
        <time>2019-08-04T07:19:09.000Z</time>
      </trkpt>
      <trkpt lat="45.04343" lon="5.9225">
        <ele>2647</ele>
        <time>2019-08-04T07:19:23.000Z</time>
      </trkpt>
      <trkpt lat="45.04344" lon="5.92243">
        <ele>2654</ele>
        <time>2019-08-04T07:22:35.000Z</time>
      </trkpt>
      <trkpt lat="45.0434" lon="5.92238">
        <ele>2654</ele>
        <time>2019-08-04T07:22:46.000Z</time>
      </trkpt>
      <trkpt lat="45.04341" lon="5.92232">
        <ele>2657</ele>
        <time>2019-08-04T07:23:08.000Z</time>
      </trkpt>
      <trkpt lat="45.04336" lon="5.92228">
        <ele>2658</ele>
        <time>2019-08-04T07:23:23.000Z</time>
      </trkpt>
      <trkpt lat="45.04336" lon="5.9222">
        <ele>2659</ele>
        <time>2019-08-04T07:23:33.000Z</time>
      </trkpt>
      <trkpt lat="45.04335" lon="5.92212">
        <ele>2663</ele>
        <time>2019-08-04T07:23:47.000Z</time>
      </trkpt>
      <trkpt lat="45.04335" lon="5.92206">
        <ele>2666</ele>
        <time>2019-08-04T07:24:18.000Z</time>
      </trkpt>
      <trkpt lat="45.0433" lon="5.92203">
        <ele>2666</ele>
        <time>2019-08-04T07:24:30.000Z</time>
      </trkpt>
      <trkpt lat="45.04326" lon="5.92201">
        <ele>2671</ele>
        <time>2019-08-04T07:24:42.000Z</time>
      </trkpt>
      <trkpt lat="45.04323" lon="5.92195">
        <ele>2676</ele>
        <time>2019-08-04T07:24:57.000Z</time>
      </trkpt>
      <trkpt lat="45.04317" lon="5.92195">
        <ele>2675</ele>
        <time>2019-08-04T07:25:11.000Z</time>
      </trkpt>
      <trkpt lat="45.04315" lon="5.92188">
        <ele>2680</ele>
        <time>2019-08-04T07:25:30.000Z</time>
      </trkpt>
      <trkpt lat="45.04312" lon="5.92182">
        <ele>2682</ele>
        <time>2019-08-04T07:25:51.000Z</time>
      </trkpt>
      <trkpt lat="45.04307" lon="5.92182">
        <ele>2685</ele>
        <time>2019-08-04T07:26:09.000Z</time>
      </trkpt>
      <trkpt lat="45.04303" lon="5.92183">
        <ele>2687</ele>
        <time>2019-08-04T07:26:21.000Z</time>
      </trkpt>
      <trkpt lat="45.04296" lon="5.92182">
        <ele>2688</ele>
        <time>2019-08-04T07:26:31.000Z</time>
      </trkpt>
      <trkpt lat="45.04291" lon="5.92182">
        <ele>2688</ele>
        <time>2019-08-04T07:26:45.000Z</time>
      </trkpt>
      <trkpt lat="45.04286" lon="5.92178">
        <ele>2690</ele>
        <time>2019-08-04T07:26:55.000Z</time>
      </trkpt>
      <trkpt lat="45.04282" lon="5.92172">
        <ele>2693</ele>
        <time>2019-08-04T07:27:05.000Z</time>
      </trkpt>
      <trkpt lat="45.04277" lon="5.92174">
        <ele>2697</ele>
        <time>2019-08-04T07:27:19.000Z</time>
      </trkpt>
      <trkpt lat="45.04271" lon="5.92175">
        <ele>2703</ele>
        <time>2019-08-04T07:27:34.000Z</time>
      </trkpt>
      <trkpt lat="45.04266" lon="5.92175">
        <ele>2707</ele>
        <time>2019-08-04T07:27:41.000Z</time>
      </trkpt>
      <trkpt lat="45.04265" lon="5.92168">
        <ele>2713</ele>
        <time>2019-08-04T07:28:00.000Z</time>
      </trkpt>
      <trkpt lat="45.04265" lon="5.9216">
        <ele>2718</ele>
        <time>2019-08-04T07:28:12.000Z</time>
      </trkpt>
      <trkpt lat="45.04261" lon="5.92157">
        <ele>2720</ele>
        <time>2019-08-04T07:28:22.000Z</time>
      </trkpt>
      <trkpt lat="45.04256" lon="5.92157">
        <ele>2720</ele>
        <time>2019-08-04T07:28:30.000Z</time>
      </trkpt>
      <trkpt lat="45.04248" lon="5.92158">
        <ele>2722</ele>
        <time>2019-08-04T07:28:38.000Z</time>
      </trkpt>
      <trkpt lat="45.04243" lon="5.92158">
        <ele>2724</ele>
        <time>2019-08-04T07:28:46.000Z</time>
      </trkpt>
      <trkpt lat="45.04237" lon="5.92162">
        <ele>2729</ele>
        <time>2019-08-04T07:28:54.000Z</time>
      </trkpt>
      <trkpt lat="45.04232" lon="5.92164">
        <ele>2730</ele>
        <time>2019-08-04T07:29:01.000Z</time>
      </trkpt>
      <trkpt lat="45.04227" lon="5.92167">
        <ele>2732</ele>
        <time>2019-08-04T07:29:10.000Z</time>
      </trkpt>
      <trkpt lat="45.04222" lon="5.92166">
        <ele>2734</ele>
        <time>2019-08-04T07:29:20.000Z</time>
      </trkpt>
      <trkpt lat="45.04217" lon="5.92168">
        <ele>2734</ele>
        <time>2019-08-04T07:29:28.000Z</time>
      </trkpt>
      <trkpt lat="45.04212" lon="5.92169">
        <ele>2736</ele>
        <time>2019-08-04T07:29:40.000Z</time>
      </trkpt>
      <trkpt lat="45.04207" lon="5.92175">
        <ele>2738</ele>
        <time>2019-08-04T07:29:50.000Z</time>
      </trkpt>
      <trkpt lat="45.04201" lon="5.92172">
        <ele>2739</ele>
        <time>2019-08-04T07:30:41.000Z</time>
      </trkpt>
      <trkpt lat="45.04196" lon="5.92167">
        <ele>2741</ele>
        <time>2019-08-04T07:30:48.000Z</time>
      </trkpt>
      <trkpt lat="45.0419" lon="5.92163">
        <ele>2742</ele>
        <time>2019-08-04T07:30:55.000Z</time>
      </trkpt>
      <trkpt lat="45.04185" lon="5.92163">
        <ele>2743</ele>
        <time>2019-08-04T07:31:01.000Z</time>
      </trkpt>
      <trkpt lat="45.0418" lon="5.92165">
        <ele>2744</ele>
        <time>2019-08-04T07:31:08.000Z</time>
      </trkpt>
      <trkpt lat="45.04172" lon="5.92165">
        <ele>2746</ele>
        <time>2019-08-04T07:31:18.000Z</time>
      </trkpt>
      <trkpt lat="45.04167" lon="5.92166">
        <ele>2747</ele>
        <time>2019-08-04T07:31:25.000Z</time>
      </trkpt>
      <trkpt lat="45.04163" lon="5.92162">
        <ele>2748</ele>
        <time>2019-08-04T07:31:32.000Z</time>
      </trkpt>
      <trkpt lat="45.04158" lon="5.92161">
        <ele>2751</ele>
        <time>2019-08-04T07:31:40.000Z</time>
      </trkpt>
      <trkpt lat="45.04154" lon="5.92155">
        <ele>2751</ele>
        <time>2019-08-04T07:31:46.000Z</time>
      </trkpt>
      <trkpt lat="45.0415" lon="5.92149">
        <ele>2752</ele>
        <time>2019-08-04T07:31:50.000Z</time>
      </trkpt>
      <trkpt lat="45.04145" lon="5.92147">
        <ele>2754</ele>
        <time>2019-08-04T07:32:00.000Z</time>
      </trkpt>
      <trkpt lat="45.04139" lon="5.92147">
        <ele>2756</ele>
        <time>2019-08-04T07:32:12.000Z</time>
      </trkpt>
      <trkpt lat="45.04134" lon="5.92146">
        <ele>2757</ele>
        <time>2019-08-04T07:32:18.000Z</time>
      </trkpt>
      <trkpt lat="45.04129" lon="5.92146">
        <ele>2758</ele>
        <time>2019-08-04T07:32:25.000Z</time>
      </trkpt>
      <trkpt lat="45.04124" lon="5.92144">
        <ele>2759</ele>
        <time>2019-08-04T07:32:33.000Z</time>
      </trkpt>
      <trkpt lat="45.04118" lon="5.9214">
        <ele>2761</ele>
        <time>2019-08-04T07:32:40.000Z</time>
      </trkpt>
      <trkpt lat="45.04112" lon="5.92135">
        <ele>2762</ele>
        <time>2019-08-04T07:32:48.000Z</time>
      </trkpt>
      <trkpt lat="45.04108" lon="5.92136">
        <ele>2762</ele>
        <time>2019-08-04T07:32:52.000Z</time>
      </trkpt>
      <trkpt lat="45.04102" lon="5.92136">
        <ele>2763</ele>
        <time>2019-08-04T07:33:00.000Z</time>
      </trkpt>
      <trkpt lat="45.04099" lon="5.9213">
        <ele>2766</ele>
        <time>2019-08-04T07:33:07.000Z</time>
      </trkpt>
      <trkpt lat="45.04095" lon="5.92127">
        <ele>2771</ele>
        <time>2019-08-04T07:33:16.000Z</time>
      </trkpt>
      <trkpt lat="45.0409" lon="5.92121">
        <ele>2773</ele>
        <time>2019-08-04T07:33:23.000Z</time>
      </trkpt>
      <trkpt lat="45.04083" lon="5.92121">
        <ele>2774</ele>
        <time>2019-08-04T07:33:33.000Z</time>
      </trkpt>
      <trkpt lat="45.04077" lon="5.92117">
        <ele>2775</ele>
        <time>2019-08-04T07:33:43.000Z</time>
      </trkpt>
      <trkpt lat="45.04071" lon="5.92115">
        <ele>2775</ele>
        <time>2019-08-04T07:33:50.000Z</time>
      </trkpt>
      <trkpt lat="45.04066" lon="5.92115">
        <ele>2775</ele>
        <time>2019-08-04T07:33:56.000Z</time>
      </trkpt>
      <trkpt lat="45.04061" lon="5.92113">
        <ele>2782</ele>
        <time>2019-08-04T07:35:58.000Z</time>
      </trkpt>
      <trkpt lat="45.04056" lon="5.92116">
        <ele>2782</ele>
        <time>2019-08-04T07:36:04.000Z</time>
      </trkpt>
      <trkpt lat="45.0405" lon="5.9212">
        <ele>2784</ele>
        <time>2019-08-04T07:36:10.000Z</time>
      </trkpt>
      <trkpt lat="45.04044" lon="5.92121">
        <ele>2787</ele>
        <time>2019-08-04T07:36:18.000Z</time>
      </trkpt>
      <trkpt lat="45.0404" lon="5.92123">
        <ele>2790</ele>
        <time>2019-08-04T07:36:25.000Z</time>
      </trkpt>
      <trkpt lat="45.04035" lon="5.92124">
        <ele>2792</ele>
        <time>2019-08-04T07:36:35.000Z</time>
      </trkpt>
      <trkpt lat="45.04029" lon="5.92123">
        <ele>2796</ele>
        <time>2019-08-04T07:36:46.000Z</time>
      </trkpt>
      <trkpt lat="45.04024" lon="5.92122">
        <ele>2799</ele>
        <time>2019-08-04T07:36:55.000Z</time>
      </trkpt>
      <trkpt lat="45.04019" lon="5.92125">
        <ele>2798</ele>
        <time>2019-08-04T07:37:09.000Z</time>
      </trkpt>
      <trkpt lat="45.04012" lon="5.92126">
        <ele>2800</ele>
        <time>2019-08-04T07:37:20.000Z</time>
      </trkpt>
      <trkpt lat="45.04008" lon="5.92129">
        <ele>2801</ele>
        <time>2019-08-04T07:37:26.000Z</time>
      </trkpt>
      <trkpt lat="45.04002" lon="5.92132">
        <ele>2801</ele>
        <time>2019-08-04T07:37:36.000Z</time>
      </trkpt>
      <trkpt lat="45.03998" lon="5.92138">
        <ele>2804</ele>
        <time>2019-08-04T07:37:47.000Z</time>
      </trkpt>
      <trkpt lat="45.03995" lon="5.92142">
        <ele>2805</ele>
        <time>2019-08-04T07:37:54.000Z</time>
      </trkpt>
      <trkpt lat="45.0399" lon="5.92145">
        <ele>2807</ele>
        <time>2019-08-04T07:38:02.000Z</time>
      </trkpt>
      <trkpt lat="45.03984" lon="5.92145">
        <ele>2809</ele>
        <time>2019-08-04T07:38:08.000Z</time>
      </trkpt>
      <trkpt lat="45.03977" lon="5.92145">
        <ele>2810</ele>
        <time>2019-08-04T07:38:16.000Z</time>
      </trkpt>
      <trkpt lat="45.03971" lon="5.92148">
        <ele>2811</ele>
        <time>2019-08-04T07:38:25.000Z</time>
      </trkpt>
      <trkpt lat="45.03966" lon="5.92149">
        <ele>2813</ele>
        <time>2019-08-04T07:38:34.000Z</time>
      </trkpt>
      <trkpt lat="45.03961" lon="5.92151">
        <ele>2814</ele>
        <time>2019-08-04T07:38:41.000Z</time>
      </trkpt>
      <trkpt lat="45.03956" lon="5.92153">
        <ele>2816</ele>
        <time>2019-08-04T07:38:48.000Z</time>
      </trkpt>
      <trkpt lat="45.03951" lon="5.92157">
        <ele>2819</ele>
        <time>2019-08-04T07:39:01.000Z</time>
      </trkpt>
      <trkpt lat="45.03946" lon="5.92156">
        <ele>2821</ele>
        <time>2019-08-04T07:39:12.000Z</time>
      </trkpt>
      <trkpt lat="45.03941" lon="5.92158">
        <ele>2823</ele>
        <time>2019-08-04T07:39:27.000Z</time>
      </trkpt>
      <trkpt lat="45.03935" lon="5.92159">
        <ele>2825</ele>
        <time>2019-08-04T07:39:39.000Z</time>
      </trkpt>
      <trkpt lat="45.03931" lon="5.92163">
        <ele>2827</ele>
        <time>2019-08-04T07:39:52.000Z</time>
      </trkpt>
      <trkpt lat="45.0393" lon="5.9217">
        <ele>2831</ele>
        <time>2019-08-04T07:40:11.000Z</time>
      </trkpt>
      <trkpt lat="45.03931" lon="5.92177">
        <ele>2833</ele>
        <time>2019-08-04T07:40:26.000Z</time>
      </trkpt>
      <trkpt lat="45.03927" lon="5.92181">
        <ele>2838</ele>
        <time>2019-08-04T07:40:40.000Z</time>
      </trkpt>
      <trkpt lat="45.03923" lon="5.92185">
        <ele>2841</ele>
        <time>2019-08-04T07:40:58.000Z</time>
      </trkpt>
      <trkpt lat="45.03924" lon="5.92191">
        <ele>2841</ele>
        <time>2019-08-04T07:41:10.000Z</time>
      </trkpt>
      <trkpt lat="45.03919" lon="5.92193">
        <ele>2845</ele>
        <time>2019-08-04T07:41:26.000Z</time>
      </trkpt>
      <trkpt lat="45.03917" lon="5.92199">
        <ele>2847</ele>
        <time>2019-08-04T07:41:40.000Z</time>
      </trkpt>
      <trkpt lat="45.03915" lon="5.92204">
        <ele>2852</ele>
        <time>2019-08-04T07:41:59.000Z</time>
      </trkpt>
      <trkpt lat="45.0391" lon="5.92204">
        <ele>2853</ele>
        <time>2019-08-04T07:42:11.000Z</time>
      </trkpt>
      <trkpt lat="45.0391" lon="5.92211">
        <ele>2856</ele>
        <time>2019-08-04T07:42:28.000Z</time>
      </trkpt>
      <trkpt lat="45.03907" lon="5.92216">
        <ele>2859</ele>
        <time>2019-08-04T07:42:46.000Z</time>
      </trkpt>
      <trkpt lat="45.03902" lon="5.92221">
        <ele>2862</ele>
        <time>2019-08-04T07:43:26.000Z</time>
      </trkpt>
      <trkpt lat="45.03903" lon="5.92227">
        <ele>2861</ele>
        <time>2019-08-04T07:43:37.000Z</time>
      </trkpt>
      <trkpt lat="45.03899" lon="5.9223">
        <ele>2865</ele>
        <time>2019-08-04T07:43:51.000Z</time>
      </trkpt>
      <trkpt lat="45.03896" lon="5.92236">
        <ele>2870</ele>
        <time>2019-08-04T07:44:12.000Z</time>
      </trkpt>
      <trkpt lat="45.03893" lon="5.92242">
        <ele>2871</ele>
        <time>2019-08-04T07:44:27.000Z</time>
      </trkpt>
      <trkpt lat="45.03889" lon="5.92249">
        <ele>2876</ele>
        <time>2019-08-04T07:44:45.000Z</time>
      </trkpt>
      <trkpt lat="45.03885" lon="5.92253">
        <ele>2880</ele>
        <time>2019-08-04T07:45:04.000Z</time>
      </trkpt>
      <trkpt lat="45.0388" lon="5.92254">
        <ele>2883</ele>
        <time>2019-08-04T07:45:17.000Z</time>
      </trkpt>
      <trkpt lat="45.03876" lon="5.92258">
        <ele>2885</ele>
        <time>2019-08-04T07:45:31.000Z</time>
      </trkpt>
      <trkpt lat="45.03872" lon="5.92263">
        <ele>2889</ele>
        <time>2019-08-04T07:45:42.000Z</time>
      </trkpt>
      <trkpt lat="45.03868" lon="5.92267">
        <ele>2891</ele>
        <time>2019-08-04T07:45:52.000Z</time>
      </trkpt>
      <trkpt lat="45.03872" lon="5.92275">
        <ele>2894</ele>
        <time>2019-08-04T07:46:32.000Z</time>
      </trkpt>
      <trkpt lat="45.03877" lon="5.92278">
        <ele>2894</ele>
        <time>2019-08-04T07:46:39.000Z</time>
      </trkpt>
      <trkpt lat="45.03881" lon="5.92283">
        <ele>2896</ele>
        <time>2019-08-04T07:46:46.000Z</time>
      </trkpt>
      <trkpt lat="45.03884" lon="5.92288">
        <ele>2897</ele>
        <time>2019-08-04T07:46:52.000Z</time>
      </trkpt>
      <trkpt lat="45.03886" lon="5.92296">
        <ele>2898</ele>
        <time>2019-08-04T07:46:58.000Z</time>
      </trkpt>
      <trkpt lat="45.0389" lon="5.92307">
        <ele>2900</ele>
        <time>2019-08-04T07:47:06.000Z</time>
      </trkpt>
      <trkpt lat="45.03894" lon="5.92314">
        <ele>2899</ele>
        <time>2019-08-04T07:47:12.000Z</time>
      </trkpt>
      <trkpt lat="45.03899" lon="5.92321">
        <ele>2900</ele>
        <time>2019-08-04T07:47:20.000Z</time>
      </trkpt>
      <trkpt lat="45.03904" lon="5.92329">
        <ele>2901</ele>
        <time>2019-08-04T07:47:27.000Z</time>
      </trkpt>
      <trkpt lat="45.03908" lon="5.92336">
        <ele>2902</ele>
        <time>2019-08-04T07:47:33.000Z</time>
      </trkpt>
      <trkpt lat="45.03912" lon="5.92341">
        <ele>2902</ele>
        <time>2019-08-04T07:47:37.000Z</time>
      </trkpt>
      <trkpt lat="45.03917" lon="5.92349">
        <ele>2904</ele>
        <time>2019-08-04T07:47:44.000Z</time>
      </trkpt>
      <trkpt lat="45.0392" lon="5.92358">
        <ele>2904</ele>
        <time>2019-08-04T07:47:50.000Z</time>
      </trkpt>
      <trkpt lat="45.03926" lon="5.92366">
        <ele>2904</ele>
        <time>2019-08-04T07:47:57.000Z</time>
      </trkpt>
      <trkpt lat="45.03931" lon="5.92374">
        <ele>2903</ele>
        <time>2019-08-04T07:48:03.000Z</time>
      </trkpt>
      <trkpt lat="45.03933" lon="5.9238">
        <ele>2904</ele>
        <time>2019-08-04T07:48:07.000Z</time>
      </trkpt>
      <trkpt lat="45.03936" lon="5.92391">
        <ele>2905</ele>
        <time>2019-08-04T07:48:15.000Z</time>
      </trkpt>
      <trkpt lat="45.03938" lon="5.92397">
        <ele>2907</ele>
        <time>2019-08-04T07:48:19.000Z</time>
      </trkpt>
      <trkpt lat="45.0394" lon="5.92406">
        <ele>2907</ele>
        <time>2019-08-04T07:48:26.000Z</time>
      </trkpt>
      <trkpt lat="45.03939" lon="5.92413">
        <ele>2910</ele>
        <time>2019-08-04T07:48:33.000Z</time>
      </trkpt>
      <trkpt lat="45.03942" lon="5.92419">
        <ele>2911</ele>
        <time>2019-08-04T07:49:23.000Z</time>
      </trkpt>
      <trkpt lat="45.03946" lon="5.92426">
        <ele>2912</ele>
        <time>2019-08-04T07:49:30.000Z</time>
      </trkpt>
      <trkpt lat="45.03952" lon="5.9243">
        <ele>2912</ele>
        <time>2019-08-04T07:49:37.000Z</time>
      </trkpt>
      <trkpt lat="45.03959" lon="5.92429">
        <ele>2912</ele>
        <time>2019-08-04T07:49:44.000Z</time>
      </trkpt>
      <trkpt lat="45.03965" lon="5.92425">
        <ele>2911</ele>
        <time>2019-08-04T07:49:51.000Z</time>
      </trkpt>
      <trkpt lat="45.03973" lon="5.92426">
        <ele>2912</ele>
        <time>2019-08-04T07:49:57.000Z</time>
      </trkpt>
      <trkpt lat="45.03979" lon="5.92428">
        <ele>2911</ele>
        <time>2019-08-04T07:50:04.000Z</time>
      </trkpt>
      <trkpt lat="45.03985" lon="5.92433">
        <ele>2910</ele>
        <time>2019-08-04T07:50:12.000Z</time>
      </trkpt>
      <trkpt lat="45.03989" lon="5.92438">
        <ele>2910</ele>
        <time>2019-08-04T07:50:32.000Z</time>
      </trkpt>
      <trkpt lat="45.03995" lon="5.92441">
        <ele>2910</ele>
        <time>2019-08-04T07:50:39.000Z</time>
      </trkpt>
      <trkpt lat="45.04002" lon="5.92444">
        <ele>2909</ele>
        <time>2019-08-04T07:50:46.000Z</time>
      </trkpt>
      <trkpt lat="45.04007" lon="5.92448">
        <ele>2908</ele>
        <time>2019-08-04T07:51:10.000Z</time>
      </trkpt>
      <trkpt lat="45.04012" lon="5.9245">
        <ele>2903</ele>
        <time>2019-08-04T08:50:02.000Z</time>
      </trkpt>
      <trkpt lat="45.04006" lon="5.92452">
        <ele>2904</ele>
        <time>2019-08-04T08:52:11.000Z</time>
      </trkpt>
      <trkpt lat="45.04005" lon="5.92444">
        <ele>2903</ele>
        <time>2019-08-04T08:53:08.000Z</time>
      </trkpt>
      <trkpt lat="45.04" lon="5.92443">
        <ele>2904</ele>
        <time>2019-08-04T08:53:41.000Z</time>
      </trkpt>
      <trkpt lat="45.03996" lon="5.92448">
        <ele>2905</ele>
        <time>2019-08-04T08:53:48.000Z</time>
      </trkpt>
      <trkpt lat="45.03991" lon="5.92455">
        <ele>2905</ele>
        <time>2019-08-04T08:53:56.000Z</time>
      </trkpt>
      <trkpt lat="45.03987" lon="5.9246">
        <ele>2905</ele>
        <time>2019-08-04T08:54:02.000Z</time>
      </trkpt>
      <trkpt lat="45.03984" lon="5.92468">
        <ele>2905</ele>
        <time>2019-08-04T08:54:08.000Z</time>
      </trkpt>
      <trkpt lat="45.03982" lon="5.92476">
        <ele>2906</ele>
        <time>2019-08-04T08:54:14.000Z</time>
      </trkpt>
      <trkpt lat="45.03979" lon="5.92485">
        <ele>2906</ele>
        <time>2019-08-04T08:54:22.000Z</time>
      </trkpt>
      <trkpt lat="45.03975" lon="5.92491">
        <ele>2906</ele>
        <time>2019-08-04T08:54:30.000Z</time>
      </trkpt>
      <trkpt lat="45.0397" lon="5.92496">
        <ele>2904</ele>
        <time>2019-08-04T08:54:38.000Z</time>
      </trkpt>
      <trkpt lat="45.03966" lon="5.92495">
        <ele>2902</ele>
        <time>2019-08-04T08:55:41.000Z</time>
      </trkpt>
      <trkpt lat="45.03967" lon="5.92489">
        <ele>2902</ele>
        <time>2019-08-04T08:57:32.000Z</time>
      </trkpt>
      <trkpt lat="45.0397" lon="5.9248">
        <ele>2903</ele>
        <time>2019-08-04T08:57:43.000Z</time>
      </trkpt>
      <trkpt lat="45.03969" lon="5.92474">
        <ele>2904</ele>
        <time>2019-08-04T08:57:50.000Z</time>
      </trkpt>
      <trkpt lat="45.03966" lon="5.92466">
        <ele>2904</ele>
        <time>2019-08-04T08:58:00.000Z</time>
      </trkpt>
      <trkpt lat="45.03963" lon="5.92461">
        <ele>2906</ele>
        <time>2019-08-04T08:58:24.000Z</time>
      </trkpt>
      <trkpt lat="45.03963" lon="5.92452">
        <ele>2906</ele>
        <time>2019-08-04T08:58:31.000Z</time>
      </trkpt>
      <trkpt lat="45.0396" lon="5.92443">
        <ele>2907</ele>
        <time>2019-08-04T08:58:39.000Z</time>
      </trkpt>
      <trkpt lat="45.03957" lon="5.92435">
        <ele>2907</ele>
        <time>2019-08-04T08:58:46.000Z</time>
      </trkpt>
      <trkpt lat="45.03953" lon="5.92429">
        <ele>2908</ele>
        <time>2019-08-04T08:58:53.000Z</time>
      </trkpt>
      <trkpt lat="45.03949" lon="5.92421">
        <ele>2909</ele>
        <time>2019-08-04T08:59:00.000Z</time>
      </trkpt>
      <trkpt lat="45.03943" lon="5.92418">
        <ele>2909</ele>
        <time>2019-08-04T08:59:07.000Z</time>
      </trkpt>
      <trkpt lat="45.03938" lon="5.92419">
        <ele>2910</ele>
        <time>2019-08-04T08:59:24.000Z</time>
      </trkpt>
      <trkpt lat="45.03936" lon="5.92412">
        <ele>2909</ele>
        <time>2019-08-04T08:59:59.000Z</time>
      </trkpt>
      <trkpt lat="45.03936" lon="5.92404">
        <ele>2909</ele>
        <time>2019-08-04T09:00:10.000Z</time>
      </trkpt>
      <trkpt lat="45.03939" lon="5.92394">
        <ele>2908</ele>
        <time>2019-08-04T09:00:45.000Z</time>
      </trkpt>
      <trkpt lat="45.03943" lon="5.92386">
        <ele>2908</ele>
        <time>2019-08-04T09:00:51.000Z</time>
      </trkpt>
      <trkpt lat="45.03944" lon="5.9238">
        <ele>2908</ele>
        <time>2019-08-04T09:00:58.000Z</time>
      </trkpt>
      <trkpt lat="45.0394" lon="5.92378">
        <ele>2908</ele>
        <time>2019-08-04T09:01:39.000Z</time>
      </trkpt>
      <trkpt lat="45.03933" lon="5.92376">
        <ele>2908</ele>
        <time>2019-08-04T09:01:45.000Z</time>
      </trkpt>
      <trkpt lat="45.03926" lon="5.92373">
        <ele>2908</ele>
        <time>2019-08-04T09:01:53.000Z</time>
      </trkpt>
      <trkpt lat="45.0392" lon="5.92367">
        <ele>2906</ele>
        <time>2019-08-04T09:02:00.000Z</time>
      </trkpt>
      <trkpt lat="45.03916" lon="5.92359">
        <ele>2905</ele>
        <time>2019-08-04T09:02:06.000Z</time>
      </trkpt>
      <trkpt lat="45.03913" lon="5.92353">
        <ele>2905</ele>
        <time>2019-08-04T09:02:10.000Z</time>
      </trkpt>
      <trkpt lat="45.03911" lon="5.92348">
        <ele>2904</ele>
        <time>2019-08-04T09:02:14.000Z</time>
      </trkpt>
      <trkpt lat="45.03908" lon="5.92342">
        <ele>2904</ele>
        <time>2019-08-04T09:02:18.000Z</time>
      </trkpt>
      <trkpt lat="45.03904" lon="5.92334">
        <ele>2903</ele>
        <time>2019-08-04T09:02:24.000Z</time>
      </trkpt>
      <trkpt lat="45.03899" lon="5.92326">
        <ele>2902</ele>
        <time>2019-08-04T09:02:31.000Z</time>
      </trkpt>
      <trkpt lat="45.03894" lon="5.92319">
        <ele>2901</ele>
        <time>2019-08-04T09:02:38.000Z</time>
      </trkpt>
      <trkpt lat="45.03889" lon="5.92312">
        <ele>2901</ele>
        <time>2019-08-04T09:02:44.000Z</time>
      </trkpt>
      <trkpt lat="45.03887" lon="5.92305">
        <ele>2899</ele>
        <time>2019-08-04T09:02:51.000Z</time>
      </trkpt>
      <trkpt lat="45.03885" lon="5.92297">
        <ele>2896</ele>
        <time>2019-08-04T09:02:57.000Z</time>
      </trkpt>
      <trkpt lat="45.03881" lon="5.92291">
        <ele>2896</ele>
        <time>2019-08-04T09:03:15.000Z</time>
      </trkpt>
      <trkpt lat="45.03877" lon="5.92287">
        <ele>2898</ele>
        <time>2019-08-04T09:03:33.000Z</time>
      </trkpt>
      <trkpt lat="45.03873" lon="5.92282">
        <ele>2897</ele>
        <time>2019-08-04T09:04:31.000Z</time>
      </trkpt>
      <trkpt lat="45.0387" lon="5.92278">
        <ele>2896</ele>
        <time>2019-08-04T09:04:38.000Z</time>
      </trkpt>
      <trkpt lat="45.03867" lon="5.9227">
        <ele>2895</ele>
        <time>2019-08-04T09:04:49.000Z</time>
      </trkpt>
      <trkpt lat="45.03866" lon="5.92262">
        <ele>2893</ele>
        <time>2019-08-04T09:05:03.000Z</time>
      </trkpt>
      <trkpt lat="45.03864" lon="5.92254">
        <ele>2893</ele>
        <time>2019-08-04T09:05:10.000Z</time>
      </trkpt>
      <trkpt lat="45.03859" lon="5.92248">
        <ele>2892</ele>
        <time>2019-08-04T09:05:17.000Z</time>
      </trkpt>
      <trkpt lat="45.03856" lon="5.92239">
        <ele>2892</ele>
        <time>2019-08-04T09:05:24.000Z</time>
      </trkpt>
      <trkpt lat="45.03856" lon="5.92233">
        <ele>2890</ele>
        <time>2019-08-04T09:05:50.000Z</time>
      </trkpt>
      <trkpt lat="45.03851" lon="5.92231">
        <ele>2889</ele>
        <time>2019-08-04T09:06:26.000Z</time>
      </trkpt>
      <trkpt lat="45.03845" lon="5.92228">
        <ele>2889</ele>
        <time>2019-08-04T09:06:34.000Z</time>
      </trkpt>
      <trkpt lat="45.03838" lon="5.92226">
        <ele>2889</ele>
        <time>2019-08-04T09:06:42.000Z</time>
      </trkpt>
      <trkpt lat="45.03833" lon="5.92223">
        <ele>2888</ele>
        <time>2019-08-04T09:06:52.000Z</time>
      </trkpt>
      <trkpt lat="45.03827" lon="5.92217">
        <ele>2888</ele>
        <time>2019-08-04T09:07:00.000Z</time>
      </trkpt>
      <trkpt lat="45.03822" lon="5.92214">
        <ele>2886</ele>
        <time>2019-08-04T09:07:07.000Z</time>
      </trkpt>
      <trkpt lat="45.03817" lon="5.92211">
        <ele>2883</ele>
        <time>2019-08-04T09:07:16.000Z</time>
      </trkpt>
      <trkpt lat="45.03813" lon="5.92206">
        <ele>2882</ele>
        <time>2019-08-04T09:07:30.000Z</time>
      </trkpt>
      <trkpt lat="45.03808" lon="5.92202">
        <ele>2879</ele>
        <time>2019-08-04T09:07:47.000Z</time>
      </trkpt>
      <trkpt lat="45.03803" lon="5.92198">
        <ele>2877</ele>
        <time>2019-08-04T09:07:55.000Z</time>
      </trkpt>
      <trkpt lat="45.03797" lon="5.92195">
        <ele>2873</ele>
        <time>2019-08-04T09:08:10.000Z</time>
      </trkpt>
      <trkpt lat="45.03793" lon="5.92191">
        <ele>2872</ele>
        <time>2019-08-04T09:08:22.000Z</time>
      </trkpt>
      <trkpt lat="45.03789" lon="5.92187">
        <ele>2872</ele>
        <time>2019-08-04T09:08:29.000Z</time>
      </trkpt>
      <trkpt lat="45.03783" lon="5.92179">
        <ele>2872</ele>
        <time>2019-08-04T09:08:36.000Z</time>
      </trkpt>
      <trkpt lat="45.03777" lon="5.92173">
        <ele>2869</ele>
        <time>2019-08-04T09:09:34.000Z</time>
      </trkpt>
      <trkpt lat="45.03772" lon="5.9217">
        <ele>2868</ele>
        <time>2019-08-04T09:10:50.000Z</time>
      </trkpt>
      <trkpt lat="45.03776" lon="5.92174">
        <ele>2867</ele>
        <time>2019-08-04T09:11:41.000Z</time>
      </trkpt>
      <trkpt lat="45.03782" lon="5.92177">
        <ele>2868</ele>
        <time>2019-08-04T09:11:48.000Z</time>
      </trkpt>
      <trkpt lat="45.03787" lon="5.92173">
        <ele>2865</ele>
        <time>2019-08-04T09:11:58.000Z</time>
      </trkpt>
      <trkpt lat="45.03792" lon="5.92166">
        <ele>2862</ele>
        <time>2019-08-04T09:12:12.000Z</time>
      </trkpt>
      <trkpt lat="45.03789" lon="5.92161">
        <ele>2861</ele>
        <time>2019-08-04T09:12:21.000Z</time>
      </trkpt>
      <trkpt lat="45.03794" lon="5.92159">
        <ele>2861</ele>
        <time>2019-08-04T09:12:28.000Z</time>
      </trkpt>
      <trkpt lat="45.03799" lon="5.92158">
        <ele>2860</ele>
        <time>2019-08-04T09:12:43.000Z</time>
      </trkpt>
      <trkpt lat="45.03803" lon="5.92155">
        <ele>2858</ele>
        <time>2019-08-04T09:12:50.000Z</time>
      </trkpt>
      <trkpt lat="45.03808" lon="5.92153">
        <ele>2855</ele>
        <time>2019-08-04T09:13:00.000Z</time>
      </trkpt>
      <trkpt lat="45.03812" lon="5.92146">
        <ele>2850</ele>
        <time>2019-08-04T09:13:16.000Z</time>
      </trkpt>
      <trkpt lat="45.03817" lon="5.9214">
        <ele>2846</ele>
        <time>2019-08-04T09:13:30.000Z</time>
      </trkpt>
      <trkpt lat="45.03823" lon="5.92137">
        <ele>2845</ele>
        <time>2019-08-04T09:13:43.000Z</time>
      </trkpt>
      <trkpt lat="45.03831" lon="5.92135">
        <ele>2843</ele>
        <time>2019-08-04T09:13:54.000Z</time>
      </trkpt>
      <trkpt lat="45.03836" lon="5.92134">
        <ele>2841</ele>
        <time>2019-08-04T09:14:02.000Z</time>
      </trkpt>
      <trkpt lat="45.03841" lon="5.92133">
        <ele>2838</ele>
        <time>2019-08-04T09:14:12.000Z</time>
      </trkpt>
      <trkpt lat="45.03846" lon="5.92128">
        <ele>2836</ele>
        <time>2019-08-04T09:14:22.000Z</time>
      </trkpt>
      <trkpt lat="45.03851" lon="5.92126">
        <ele>2834</ele>
        <time>2019-08-04T09:14:29.000Z</time>
      </trkpt>
      <trkpt lat="45.03857" lon="5.92124">
        <ele>2831</ele>
        <time>2019-08-04T09:14:47.000Z</time>
      </trkpt>
      <trkpt lat="45.03863" lon="5.92121">
        <ele>2828</ele>
        <time>2019-08-04T09:14:58.000Z</time>
      </trkpt>
      <trkpt lat="45.03866" lon="5.92116">
        <ele>2825</ele>
        <time>2019-08-04T09:15:08.000Z</time>
      </trkpt>
      <trkpt lat="45.0387" lon="5.92113">
        <ele>2823</ele>
        <time>2019-08-04T09:15:16.000Z</time>
      </trkpt>
      <trkpt lat="45.03875" lon="5.92112">
        <ele>2821</ele>
        <time>2019-08-04T09:15:26.000Z</time>
      </trkpt>
      <trkpt lat="45.03882" lon="5.92109">
        <ele>2819</ele>
        <time>2019-08-04T09:15:36.000Z</time>
      </trkpt>
      <trkpt lat="45.03887" lon="5.92107">
        <ele>2817</ele>
        <time>2019-08-04T09:15:43.000Z</time>
      </trkpt>
      <trkpt lat="45.03893" lon="5.92104">
        <ele>2813</ele>
        <time>2019-08-04T09:15:54.000Z</time>
      </trkpt>
      <trkpt lat="45.03898" lon="5.92104">
        <ele>2813</ele>
        <time>2019-08-04T09:15:58.000Z</time>
      </trkpt>
      <trkpt lat="45.03904" lon="5.92103">
        <ele>2810</ele>
        <time>2019-08-04T09:16:04.000Z</time>
      </trkpt>
      <trkpt lat="45.03908" lon="5.92103">
        <ele>2808</ele>
        <time>2019-08-04T09:16:15.000Z</time>
      </trkpt>
      <trkpt lat="45.03915" lon="5.921">
        <ele>2806</ele>
        <time>2019-08-04T09:16:32.000Z</time>
      </trkpt>
      <trkpt lat="45.03921" lon="5.92101">
        <ele>2806</ele>
        <time>2019-08-04T09:16:41.000Z</time>
      </trkpt>
      <trkpt lat="45.03927" lon="5.92101">
        <ele>2804</ele>
        <time>2019-08-04T09:16:51.000Z</time>
      </trkpt>
      <trkpt lat="45.03933" lon="5.92104">
        <ele>2806</ele>
        <time>2019-08-04T09:17:01.000Z</time>
      </trkpt>
      <trkpt lat="45.03939" lon="5.92108">
        <ele>2806</ele>
        <time>2019-08-04T09:17:12.000Z</time>
      </trkpt>
      <trkpt lat="45.03945" lon="5.92109">
        <ele>2805</ele>
        <time>2019-08-04T09:17:23.000Z</time>
      </trkpt>
      <trkpt lat="45.0395" lon="5.9211">
        <ele>2804</ele>
        <time>2019-08-04T09:17:30.000Z</time>
      </trkpt>
      <trkpt lat="45.03955" lon="5.9211">
        <ele>2803</ele>
        <time>2019-08-04T09:17:36.000Z</time>
      </trkpt>
      <trkpt lat="45.03962" lon="5.92107">
        <ele>2802</ele>
        <time>2019-08-04T09:17:44.000Z</time>
      </trkpt>
      <trkpt lat="45.03967" lon="5.92104">
        <ele>2803</ele>
        <time>2019-08-04T09:17:51.000Z</time>
      </trkpt>
      <trkpt lat="45.03974" lon="5.92103">
        <ele>2803</ele>
        <time>2019-08-04T09:18:02.000Z</time>
      </trkpt>
      <trkpt lat="45.03979" lon="5.92102">
        <ele>2801</ele>
        <time>2019-08-04T09:18:10.000Z</time>
      </trkpt>
      <trkpt lat="45.03984" lon="5.92099">
        <ele>2801</ele>
        <time>2019-08-04T09:18:18.000Z</time>
      </trkpt>
      <trkpt lat="45.03988" lon="5.92093">
        <ele>2800</ele>
        <time>2019-08-04T09:18:25.000Z</time>
      </trkpt>
      <trkpt lat="45.03991" lon="5.92089">
        <ele>2799</ele>
        <time>2019-08-04T09:18:31.000Z</time>
      </trkpt>
      <trkpt lat="45.03996" lon="5.92085">
        <ele>2800</ele>
        <time>2019-08-04T09:18:38.000Z</time>
      </trkpt>
      <trkpt lat="45.04" lon="5.92082">
        <ele>2799</ele>
        <time>2019-08-04T09:18:45.000Z</time>
      </trkpt>
      <trkpt lat="45.04005" lon="5.92081">
        <ele>2797</ele>
        <time>2019-08-04T09:18:55.000Z</time>
      </trkpt>
      <trkpt lat="45.04006" lon="5.92075">
        <ele>2793</ele>
        <time>2019-08-04T09:19:09.000Z</time>
      </trkpt>
      <trkpt lat="45.04011" lon="5.92067">
        <ele>2793</ele>
        <time>2019-08-04T09:19:17.000Z</time>
      </trkpt>
      <trkpt lat="45.04015" lon="5.92061">
        <ele>2792</ele>
        <time>2019-08-04T09:19:24.000Z</time>
      </trkpt>
      <trkpt lat="45.04018" lon="5.92051">
        <ele>2791</ele>
        <time>2019-08-04T09:19:30.000Z</time>
      </trkpt>
      <trkpt lat="45.04024" lon="5.92044">
        <ele>2789</ele>
        <time>2019-08-04T09:19:38.000Z</time>
      </trkpt>
      <trkpt lat="45.04029" lon="5.92037">
        <ele>2787</ele>
        <time>2019-08-04T09:19:45.000Z</time>
      </trkpt>
      <trkpt lat="45.04035" lon="5.9203">
        <ele>2785</ele>
        <time>2019-08-04T09:19:52.000Z</time>
      </trkpt>
      <trkpt lat="45.0404" lon="5.92021">
        <ele>2785</ele>
        <time>2019-08-04T09:20:00.000Z</time>
      </trkpt>
      <trkpt lat="45.04034" lon="5.92022">
        <ele>2788</ele>
        <time>2019-08-04T09:20:19.000Z</time>
      </trkpt>
      <trkpt lat="45.04029" lon="5.92024">
        <ele>2787</ele>
        <time>2019-08-04T09:20:25.000Z</time>
      </trkpt>
      <trkpt lat="45.04023" lon="5.92026">
        <ele>2787</ele>
        <time>2019-08-04T09:20:33.000Z</time>
      </trkpt>
      <trkpt lat="45.04027" lon="5.92022">
        <ele>2785</ele>
        <time>2019-08-04T09:21:02.000Z</time>
      </trkpt>
      <trkpt lat="45.04029" lon="5.92016">
        <ele>2782</ele>
        <time>2019-08-04T09:21:12.000Z</time>
      </trkpt>
      <trkpt lat="45.04023" lon="5.92016">
        <ele>2779</ele>
        <time>2019-08-04T09:21:27.000Z</time>
      </trkpt>
      <trkpt lat="45.04022" lon="5.9201">
        <ele>2780</ele>
        <time>2019-08-04T09:21:40.000Z</time>
      </trkpt>
      <trkpt lat="45.04018" lon="5.92012">
        <ele>2779</ele>
        <time>2019-08-04T09:21:50.000Z</time>
      </trkpt>
      <trkpt lat="45.04013" lon="5.92009">
        <ele>2774</ele>
        <time>2019-08-04T09:22:08.000Z</time>
      </trkpt>
      <trkpt lat="45.04007" lon="5.92009">
        <ele>2772</ele>
        <time>2019-08-04T09:22:22.000Z</time>
      </trkpt>
      <trkpt lat="45.04003" lon="5.92007">
        <ele>2772</ele>
        <time>2019-08-04T09:22:30.000Z</time>
      </trkpt>
      <trkpt lat="45.03999" lon="5.92003">
        <ele>2771</ele>
        <time>2019-08-04T09:22:51.000Z</time>
      </trkpt>
      <trkpt lat="45.03996" lon="5.91997">
        <ele>2768</ele>
        <time>2019-08-04T09:23:05.000Z</time>
      </trkpt>
      <trkpt lat="45.03995" lon="5.91991">
        <ele>2764</ele>
        <time>2019-08-04T09:23:15.000Z</time>
      </trkpt>
      <trkpt lat="45.03991" lon="5.91988">
        <ele>2762</ele>
        <time>2019-08-04T09:24:29.000Z</time>
      </trkpt>
      <trkpt lat="45.03986" lon="5.91983">
        <ele>2762</ele>
        <time>2019-08-04T09:24:46.000Z</time>
      </trkpt>
      <trkpt lat="45.03984" lon="5.91977">
        <ele>2759</ele>
        <time>2019-08-04T09:25:06.000Z</time>
      </trkpt>
      <trkpt lat="45.0398" lon="5.91973">
        <ele>2756</ele>
        <time>2019-08-04T09:25:20.000Z</time>
      </trkpt>
      <trkpt lat="45.03976" lon="5.91975">
        <ele>2756</ele>
        <time>2019-08-04T09:25:34.000Z</time>
      </trkpt>
      <trkpt lat="45.03972" lon="5.91974">
        <ele>2754</ele>
        <time>2019-08-04T09:25:56.000Z</time>
      </trkpt>
      <trkpt lat="45.03969" lon="5.91967">
        <ele>2754</ele>
        <time>2019-08-04T09:26:21.000Z</time>
      </trkpt>
      <trkpt lat="45.03964" lon="5.91966">
        <ele>2753</ele>
        <time>2019-08-04T09:26:34.000Z</time>
      </trkpt>
      <trkpt lat="45.03959" lon="5.91964">
        <ele>2755</ele>
        <time>2019-08-04T09:26:48.000Z</time>
      </trkpt>
      <trkpt lat="45.03956" lon="5.91959">
        <ele>2756</ele>
        <time>2019-08-04T09:27:05.000Z</time>
      </trkpt>
      <trkpt lat="45.03953" lon="5.91953">
        <ele>2756</ele>
        <time>2019-08-04T09:27:19.000Z</time>
      </trkpt>
      <trkpt lat="45.03948" lon="5.91951">
        <ele>2753</ele>
        <time>2019-08-04T09:27:47.000Z</time>
      </trkpt>
      <trkpt lat="45.03944" lon="5.91945">
        <ele>2754</ele>
        <time>2019-08-04T09:27:57.000Z</time>
      </trkpt>
      <trkpt lat="45.03939" lon="5.91942">
        <ele>2752</ele>
        <time>2019-08-04T09:28:12.000Z</time>
      </trkpt>
      <trkpt lat="45.03935" lon="5.91935">
        <ele>2751</ele>
        <time>2019-08-04T09:28:25.000Z</time>
      </trkpt>
      <trkpt lat="45.03932" lon="5.91931">
        <ele>2751</ele>
        <time>2019-08-04T09:28:34.000Z</time>
      </trkpt>
      <trkpt lat="45.03928" lon="5.91925">
        <ele>2748</ele>
        <time>2019-08-04T09:28:49.000Z</time>
      </trkpt>
      <trkpt lat="45.03923" lon="5.9192">
        <ele>2747</ele>
        <time>2019-08-04T09:29:02.000Z</time>
      </trkpt>
      <trkpt lat="45.03918" lon="5.91914">
        <ele>2745</ele>
        <time>2019-08-04T09:29:10.000Z</time>
      </trkpt>
      <trkpt lat="45.03918" lon="5.91906">
        <ele>2745</ele>
        <time>2019-08-04T09:29:18.000Z</time>
      </trkpt>
      <trkpt lat="45.03916" lon="5.91898">
        <ele>2741</ele>
        <time>2019-08-04T09:29:29.000Z</time>
      </trkpt>
      <trkpt lat="45.03912" lon="5.91892">
        <ele>2739</ele>
        <time>2019-08-04T09:29:42.000Z</time>
      </trkpt>
      <trkpt lat="45.03917" lon="5.91884">
        <ele>2736</ele>
        <time>2019-08-04T09:29:53.000Z</time>
      </trkpt>
      <trkpt lat="45.03914" lon="5.91878">
        <ele>2735</ele>
        <time>2019-08-04T09:30:00.000Z</time>
      </trkpt>
      <trkpt lat="45.03914" lon="5.91869">
        <ele>2735</ele>
        <time>2019-08-04T09:30:11.000Z</time>
      </trkpt>
      <trkpt lat="45.03919" lon="5.91866">
        <ele>2734</ele>
        <time>2019-08-04T09:30:18.000Z</time>
      </trkpt>
      <trkpt lat="45.03919" lon="5.91859">
        <ele>2732</ele>
        <time>2019-08-04T09:30:30.000Z</time>
      </trkpt>
      <trkpt lat="45.03925" lon="5.91854">
        <ele>2730</ele>
        <time>2019-08-04T09:30:38.000Z</time>
      </trkpt>
      <trkpt lat="45.03929" lon="5.91847">
        <ele>2729</ele>
        <time>2019-08-04T09:30:44.000Z</time>
      </trkpt>
      <trkpt lat="45.03934" lon="5.91839">
        <ele>2730</ele>
        <time>2019-08-04T09:30:52.000Z</time>
      </trkpt>
      <trkpt lat="45.03938" lon="5.91834">
        <ele>2730</ele>
        <time>2019-08-04T09:30:59.000Z</time>
      </trkpt>
      <trkpt lat="45.03935" lon="5.91827">
        <ele>2728</ele>
        <time>2019-08-04T09:31:11.000Z</time>
      </trkpt>
      <trkpt lat="45.03933" lon="5.91821">
        <ele>2728</ele>
        <time>2019-08-04T09:31:18.000Z</time>
      </trkpt>
      <trkpt lat="45.03929" lon="5.91813">
        <ele>2727</ele>
        <time>2019-08-04T09:31:34.000Z</time>
      </trkpt>
      <trkpt lat="45.03931" lon="5.91803">
        <ele>2726</ele>
        <time>2019-08-04T09:31:41.000Z</time>
      </trkpt>
      <trkpt lat="45.03927" lon="5.91797">
        <ele>2725</ele>
        <time>2019-08-04T09:31:48.000Z</time>
      </trkpt>
      <trkpt lat="45.03925" lon="5.91788">
        <ele>2724</ele>
        <time>2019-08-04T09:31:56.000Z</time>
      </trkpt>
      <trkpt lat="45.03925" lon="5.91781">
        <ele>2721</ele>
        <time>2019-08-04T09:32:07.000Z</time>
      </trkpt>
      <trkpt lat="45.03926" lon="5.91774">
        <ele>2719</ele>
        <time>2019-08-04T09:32:17.000Z</time>
      </trkpt>
      <trkpt lat="45.03924" lon="5.91766">
        <ele>2715</ele>
        <time>2019-08-04T09:32:32.000Z</time>
      </trkpt>
      <trkpt lat="45.03922" lon="5.9176">
        <ele>2715</ele>
        <time>2019-08-04T09:32:38.000Z</time>
      </trkpt>
      <trkpt lat="45.03921" lon="5.91753">
        <ele>2714</ele>
        <time>2019-08-04T09:32:44.000Z</time>
      </trkpt>
      <trkpt lat="45.03922" lon="5.91742">
        <ele>2714</ele>
        <time>2019-08-04T09:32:51.000Z</time>
      </trkpt>
      <trkpt lat="45.0392" lon="5.91731">
        <ele>2714</ele>
        <time>2019-08-04T09:32:59.000Z</time>
      </trkpt>
      <trkpt lat="45.03919" lon="5.91722">
        <ele>2712</ele>
        <time>2019-08-04T09:33:06.000Z</time>
      </trkpt>
      <trkpt lat="45.0392" lon="5.91716">
        <ele>2713</ele>
        <time>2019-08-04T09:33:10.000Z</time>
      </trkpt>
      <trkpt lat="45.03922" lon="5.91708">
        <ele>2712</ele>
        <time>2019-08-04T09:33:20.000Z</time>
      </trkpt>
      <trkpt lat="45.03922" lon="5.917">
        <ele>2712</ele>
        <time>2019-08-04T09:33:26.000Z</time>
      </trkpt>
      <trkpt lat="45.03919" lon="5.91691">
        <ele>2712</ele>
        <time>2019-08-04T09:33:33.000Z</time>
      </trkpt>
      <trkpt lat="45.03915" lon="5.91679">
        <ele>2710</ele>
        <time>2019-08-04T09:33:40.000Z</time>
      </trkpt>
      <trkpt lat="45.03915" lon="5.91671">
        <ele>2710</ele>
        <time>2019-08-04T09:33:44.000Z</time>
      </trkpt>
      <trkpt lat="45.03918" lon="5.91662">
        <ele>2709</ele>
        <time>2019-08-04T09:33:51.000Z</time>
      </trkpt>
      <trkpt lat="45.03922" lon="5.91654">
        <ele>2710</ele>
        <time>2019-08-04T09:33:58.000Z</time>
      </trkpt>
      <trkpt lat="45.03923" lon="5.91645">
        <ele>2711</ele>
        <time>2019-08-04T09:34:04.000Z</time>
      </trkpt>
      <trkpt lat="45.03918" lon="5.91642">
        <ele>2714</ele>
        <time>2019-08-04T09:34:15.000Z</time>
      </trkpt>
      <trkpt lat="45.03924" lon="5.91636">
        <ele>2715</ele>
        <time>2019-08-04T09:34:44.000Z</time>
      </trkpt>
      <trkpt lat="45.03929" lon="5.91628">
        <ele>2714</ele>
        <time>2019-08-04T09:34:51.000Z</time>
      </trkpt>
      <trkpt lat="45.03933" lon="5.91626">
        <ele>2715</ele>
        <time>2019-08-04T09:34:57.000Z</time>
      </trkpt>
      <trkpt lat="45.03938" lon="5.91619">
        <ele>2716</ele>
        <time>2019-08-04T09:35:04.000Z</time>
      </trkpt>
      <trkpt lat="45.03942" lon="5.91613">
        <ele>2719</ele>
        <time>2019-08-04T09:35:11.000Z</time>
      </trkpt>
      <trkpt lat="45.03945" lon="5.91606">
        <ele>2721</ele>
        <time>2019-08-04T09:35:18.000Z</time>
      </trkpt>
      <trkpt lat="45.03945" lon="5.91598">
        <ele>2722</ele>
        <time>2019-08-04T09:35:24.000Z</time>
      </trkpt>
      <trkpt lat="45.0395" lon="5.91592">
        <ele>2723</ele>
        <time>2019-08-04T09:35:31.000Z</time>
      </trkpt>
      <trkpt lat="45.03953" lon="5.91583">
        <ele>2723</ele>
        <time>2019-08-04T09:35:38.000Z</time>
      </trkpt>
      <trkpt lat="45.03953" lon="5.91574">
        <ele>2724</ele>
        <time>2019-08-04T09:35:45.000Z</time>
      </trkpt>
      <trkpt lat="45.03955" lon="5.91566">
        <ele>2727</ele>
        <time>2019-08-04T09:35:51.000Z</time>
      </trkpt>
      <trkpt lat="45.03956" lon="5.91556">
        <ele>2728</ele>
        <time>2019-08-04T09:35:58.000Z</time>
      </trkpt>
      <trkpt lat="45.03955" lon="5.91546">
        <ele>2728</ele>
        <time>2019-08-04T09:36:05.000Z</time>
      </trkpt>
      <trkpt lat="45.03955" lon="5.91536">
        <ele>2729</ele>
        <time>2019-08-04T09:36:12.000Z</time>
      </trkpt>
      <trkpt lat="45.03954" lon="5.91526">
        <ele>2730</ele>
        <time>2019-08-04T09:36:19.000Z</time>
      </trkpt>
      <trkpt lat="45.03956" lon="5.9152">
        <ele>2730</ele>
        <time>2019-08-04T09:36:23.000Z</time>
      </trkpt>
      <trkpt lat="45.0396" lon="5.9151">
        <ele>2731</ele>
        <time>2019-08-04T09:36:30.000Z</time>
      </trkpt>
      <trkpt lat="45.0396" lon="5.915">
        <ele>2732</ele>
        <time>2019-08-04T09:36:37.000Z</time>
      </trkpt>
      <trkpt lat="45.03959" lon="5.91489">
        <ele>2734</ele>
        <time>2019-08-04T09:36:44.000Z</time>
      </trkpt>
      <trkpt lat="45.03957" lon="5.91479">
        <ele>2735</ele>
        <time>2019-08-04T09:36:52.000Z</time>
      </trkpt>
      <trkpt lat="45.03954" lon="5.91472">
        <ele>2735</ele>
        <time>2019-08-04T09:36:59.000Z</time>
      </trkpt>
      <trkpt lat="45.0395" lon="5.91467">
        <ele>2736</ele>
        <time>2019-08-04T09:37:06.000Z</time>
      </trkpt>
      <trkpt lat="45.03946" lon="5.91459">
        <ele>2735</ele>
        <time>2019-08-04T09:37:13.000Z</time>
      </trkpt>
      <trkpt lat="45.03948" lon="5.91451">
        <ele>2738</ele>
        <time>2019-08-04T09:37:20.000Z</time>
      </trkpt>
      <trkpt lat="45.03951" lon="5.91445">
        <ele>2738</ele>
        <time>2019-08-04T09:37:24.000Z</time>
      </trkpt>
      <trkpt lat="45.0395" lon="5.91435">
        <ele>2740</ele>
        <time>2019-08-04T09:37:31.000Z</time>
      </trkpt>
      <trkpt lat="45.03945" lon="5.91426">
        <ele>2743</ele>
        <time>2019-08-04T09:37:39.000Z</time>
      </trkpt>
      <trkpt lat="45.03942" lon="5.91416">
        <ele>2744</ele>
        <time>2019-08-04T09:39:17.000Z</time>
      </trkpt>
      <trkpt lat="45.03938" lon="5.91408">
        <ele>2743</ele>
        <time>2019-08-04T09:39:24.000Z</time>
      </trkpt>
      <trkpt lat="45.03936" lon="5.91401">
        <ele>2744</ele>
        <time>2019-08-04T09:39:28.000Z</time>
      </trkpt>
      <trkpt lat="45.03932" lon="5.91393">
        <ele>2743</ele>
        <time>2019-08-04T09:39:35.000Z</time>
      </trkpt>
      <trkpt lat="45.0393" lon="5.91386">
        <ele>2741</ele>
        <time>2019-08-04T09:39:41.000Z</time>
      </trkpt>
      <trkpt lat="45.03926" lon="5.91379">
        <ele>2740</ele>
        <time>2019-08-04T09:39:47.000Z</time>
      </trkpt>
      <trkpt lat="45.03921" lon="5.9137">
        <ele>2738</ele>
        <time>2019-08-04T09:39:55.000Z</time>
      </trkpt>
      <trkpt lat="45.03919" lon="5.91364">
        <ele>2738</ele>
        <time>2019-08-04T09:39:59.000Z</time>
      </trkpt>
      <trkpt lat="45.03918" lon="5.91357">
        <ele>2737</ele>
        <time>2019-08-04T09:40:05.000Z</time>
      </trkpt>
      <trkpt lat="45.03914" lon="5.91349">
        <ele>2736</ele>
        <time>2019-08-04T09:41:06.000Z</time>
      </trkpt>
      <trkpt lat="45.03913" lon="5.91339">
        <ele>2736</ele>
        <time>2019-08-04T09:41:12.000Z</time>
      </trkpt>
      <trkpt lat="45.03911" lon="5.91332">
        <ele>2737</ele>
        <time>2019-08-04T09:41:16.000Z</time>
      </trkpt>
      <trkpt lat="45.03909" lon="5.91322">
        <ele>2736</ele>
        <time>2019-08-04T09:41:23.000Z</time>
      </trkpt>
      <trkpt lat="45.03906" lon="5.91312">
        <ele>2736</ele>
        <time>2019-08-04T09:41:30.000Z</time>
      </trkpt>
      <trkpt lat="45.03905" lon="5.91303">
        <ele>2735</ele>
        <time>2019-08-04T09:41:37.000Z</time>
      </trkpt>
      <trkpt lat="45.03904" lon="5.91293">
        <ele>2734</ele>
        <time>2019-08-04T09:41:44.000Z</time>
      </trkpt>
      <trkpt lat="45.03903" lon="5.91281">
        <ele>2733</ele>
        <time>2019-08-04T09:41:52.000Z</time>
      </trkpt>
      <trkpt lat="45.03901" lon="5.91274">
        <ele>2732</ele>
        <time>2019-08-04T09:41:56.000Z</time>
      </trkpt>
      <trkpt lat="45.03897" lon="5.91266">
        <ele>2732</ele>
        <time>2019-08-04T09:42:02.000Z</time>
      </trkpt>
      <trkpt lat="45.03896" lon="5.91257">
        <ele>2731</ele>
        <time>2019-08-04T09:42:20.000Z</time>
      </trkpt>
      <trkpt lat="45.03894" lon="5.9125">
        <ele>2730</ele>
        <time>2019-08-04T09:42:24.000Z</time>
      </trkpt>
      <trkpt lat="45.03892" lon="5.91244">
        <ele>2730</ele>
        <time>2019-08-04T09:42:28.000Z</time>
      </trkpt>
      <trkpt lat="45.03892" lon="5.91237">
        <ele>2730</ele>
        <time>2019-08-04T09:42:32.000Z</time>
      </trkpt>
      <trkpt lat="45.0389" lon="5.91231">
        <ele>2730</ele>
        <time>2019-08-04T09:42:36.000Z</time>
      </trkpt>
      <trkpt lat="45.03887" lon="5.9122">
        <ele>2729</ele>
        <time>2019-08-04T09:42:43.000Z</time>
      </trkpt>
      <trkpt lat="45.03885" lon="5.91212">
        <ele>2728</ele>
        <time>2019-08-04T09:42:51.000Z</time>
      </trkpt>
      <trkpt lat="45.0388" lon="5.91214">
        <ele>2727</ele>
        <time>2019-08-04T09:43:00.000Z</time>
      </trkpt>
      <trkpt lat="45.0388" lon="5.91207">
        <ele>2725</ele>
        <time>2019-08-04T09:43:42.000Z</time>
      </trkpt>
      <trkpt lat="45.03881" lon="5.91201">
        <ele>2726</ele>
        <time>2019-08-04T09:43:53.000Z</time>
      </trkpt>
      <trkpt lat="45.03879" lon="5.91193">
        <ele>2725</ele>
        <time>2019-08-04T09:44:28.000Z</time>
      </trkpt>
      <trkpt lat="45.03876" lon="5.91188">
        <ele>2724</ele>
        <time>2019-08-04T09:44:36.000Z</time>
      </trkpt>
      <trkpt lat="45.03875" lon="5.91178">
        <ele>2725</ele>
        <time>2019-08-04T09:44:44.000Z</time>
      </trkpt>
      <trkpt lat="45.03873" lon="5.91173">
        <ele>2724</ele>
        <time>2019-08-04T09:44:51.000Z</time>
      </trkpt>
      <trkpt lat="45.03871" lon="5.91163">
        <ele>2724</ele>
        <time>2019-08-04T09:44:59.000Z</time>
      </trkpt>
      <trkpt lat="45.03868" lon="5.91154">
        <ele>2725</ele>
        <time>2019-08-04T09:45:06.000Z</time>
      </trkpt>
      <trkpt lat="45.03867" lon="5.91145">
        <ele>2726</ele>
        <time>2019-08-04T09:45:14.000Z</time>
      </trkpt>
      <trkpt lat="45.03866" lon="5.91134">
        <ele>2728</ele>
        <time>2019-08-04T09:45:24.000Z</time>
      </trkpt>
      <trkpt lat="45.03862" lon="5.91125">
        <ele>2728</ele>
        <time>2019-08-04T09:45:31.000Z</time>
      </trkpt>
      <trkpt lat="45.03862" lon="5.91115">
        <ele>2728</ele>
        <time>2019-08-04T09:45:38.000Z</time>
      </trkpt>
      <trkpt lat="45.03861" lon="5.91106">
        <ele>2728</ele>
        <time>2019-08-04T09:45:45.000Z</time>
      </trkpt>
      <trkpt lat="45.03858" lon="5.91098">
        <ele>2728</ele>
        <time>2019-08-04T09:45:54.000Z</time>
      </trkpt>
      <trkpt lat="45.03853" lon="5.91091">
        <ele>2728</ele>
        <time>2019-08-04T09:46:01.000Z</time>
      </trkpt>
      <trkpt lat="45.03849" lon="5.91081">
        <ele>2726</ele>
        <time>2019-08-04T09:46:09.000Z</time>
      </trkpt>
      <trkpt lat="45.03845" lon="5.91077">
        <ele>2725</ele>
        <time>2019-08-04T09:46:17.000Z</time>
      </trkpt>
      <trkpt lat="45.03844" lon="5.91069">
        <ele>2727</ele>
        <time>2019-08-04T09:46:31.000Z</time>
      </trkpt>
      <trkpt lat="45.03838" lon="5.91062">
        <ele>2727</ele>
        <time>2019-08-04T09:46:38.000Z</time>
      </trkpt>
      <trkpt lat="45.03831" lon="5.91056">
        <ele>2725</ele>
        <time>2019-08-04T09:46:46.000Z</time>
      </trkpt>
      <trkpt lat="45.03825" lon="5.91049">
        <ele>2725</ele>
        <time>2019-08-04T09:46:53.000Z</time>
      </trkpt>
      <trkpt lat="45.0382" lon="5.91043">
        <ele>2725</ele>
        <time>2019-08-04T09:47:00.000Z</time>
      </trkpt>
      <trkpt lat="45.03818" lon="5.91037">
        <ele>2725</ele>
        <time>2019-08-04T09:47:11.000Z</time>
      </trkpt>
      <trkpt lat="45.03813" lon="5.91028">
        <ele>2724</ele>
        <time>2019-08-04T09:47:30.000Z</time>
      </trkpt>
      <trkpt lat="45.0381" lon="5.91023">
        <ele>2722</ele>
        <time>2019-08-04T09:47:34.000Z</time>
      </trkpt>
      <trkpt lat="45.03806" lon="5.91018">
        <ele>2721</ele>
        <time>2019-08-04T09:47:38.000Z</time>
      </trkpt>
      <trkpt lat="45.03801" lon="5.9101">
        <ele>2719</ele>
        <time>2019-08-04T09:47:45.000Z</time>
      </trkpt>
      <trkpt lat="45.03796" lon="5.91002">
        <ele>2718</ele>
        <time>2019-08-04T09:47:52.000Z</time>
      </trkpt>
      <trkpt lat="45.0379" lon="5.90993">
        <ele>2718</ele>
        <time>2019-08-04T09:47:59.000Z</time>
      </trkpt>
      <trkpt lat="45.03786" lon="5.90983">
        <ele>2718</ele>
        <time>2019-08-04T09:48:29.000Z</time>
      </trkpt>
      <trkpt lat="45.0378" lon="5.90973">
        <ele>2717</ele>
        <time>2019-08-04T09:48:36.000Z</time>
      </trkpt>
      <trkpt lat="45.03778" lon="5.90967">
        <ele>2717</ele>
        <time>2019-08-04T09:48:40.000Z</time>
      </trkpt>
      <trkpt lat="45.03774" lon="5.9096">
        <ele>2715</ele>
        <time>2019-08-04T09:48:47.000Z</time>
      </trkpt>
      <trkpt lat="45.0377" lon="5.90953">
        <ele>2714</ele>
        <time>2019-08-04T09:48:54.000Z</time>
      </trkpt>
      <trkpt lat="45.03767" lon="5.90947">
        <ele>2710</ele>
        <time>2019-08-04T09:49:39.000Z</time>
      </trkpt>
      <trkpt lat="45.03768" lon="5.90937">
        <ele>2708</ele>
        <time>2019-08-04T09:49:50.000Z</time>
      </trkpt>
      <trkpt lat="45.03764" lon="5.90929">
        <ele>2708</ele>
        <time>2019-08-04T09:49:57.000Z</time>
      </trkpt>
      <trkpt lat="45.03759" lon="5.90923">
        <ele>2707</ele>
        <time>2019-08-04T09:50:04.000Z</time>
      </trkpt>
      <trkpt lat="45.03756" lon="5.90918">
        <ele>2706</ele>
        <time>2019-08-04T09:50:08.000Z</time>
      </trkpt>
      <trkpt lat="45.03753" lon="5.90909">
        <ele>2705</ele>
        <time>2019-08-04T09:50:16.000Z</time>
      </trkpt>
      <trkpt lat="45.03748" lon="5.90904">
        <ele>2705</ele>
        <time>2019-08-04T09:50:27.000Z</time>
      </trkpt>
      <trkpt lat="45.03745" lon="5.90899">
        <ele>2705</ele>
        <time>2019-08-04T09:50:35.000Z</time>
      </trkpt>
      <trkpt lat="45.03742" lon="5.90891">
        <ele>2706</ele>
        <time>2019-08-04T09:51:05.000Z</time>
      </trkpt>
      <trkpt lat="45.0374" lon="5.90884">
        <ele>2705</ele>
        <time>2019-08-04T09:51:15.000Z</time>
      </trkpt>
      <trkpt lat="45.03739" lon="5.90878">
        <ele>2705</ele>
        <time>2019-08-04T09:51:52.000Z</time>
      </trkpt>
      <trkpt lat="45.03735" lon="5.90872">
        <ele>2706</ele>
        <time>2019-08-04T09:52:39.000Z</time>
      </trkpt>
      <trkpt lat="45.03733" lon="5.90865">
        <ele>2706</ele>
        <time>2019-08-04T09:52:50.000Z</time>
      </trkpt>
      <trkpt lat="45.0373" lon="5.9086">
        <ele>2705</ele>
        <time>2019-08-04T09:53:02.000Z</time>
      </trkpt>
      <trkpt lat="45.03726" lon="5.90855">
        <ele>2705</ele>
        <time>2019-08-04T09:53:09.000Z</time>
      </trkpt>
      <trkpt lat="45.03723" lon="5.90847">
        <ele>2703</ele>
        <time>2019-08-04T09:53:19.000Z</time>
      </trkpt>
      <trkpt lat="45.03719" lon="5.90843">
        <ele>2702</ele>
        <time>2019-08-04T09:53:29.000Z</time>
      </trkpt>
      <trkpt lat="45.03714" lon="5.90836">
        <ele>2700</ele>
        <time>2019-08-04T09:53:40.000Z</time>
      </trkpt>
      <trkpt lat="45.03714" lon="5.90829">
        <ele>2699</ele>
        <time>2019-08-04T09:53:50.000Z</time>
      </trkpt>
      <trkpt lat="45.03711" lon="5.90822">
        <ele>2699</ele>
        <time>2019-08-04T09:54:01.000Z</time>
      </trkpt>
      <trkpt lat="45.03708" lon="5.90817">
        <ele>2699</ele>
        <time>2019-08-04T09:54:12.000Z</time>
      </trkpt>
      <trkpt lat="45.03705" lon="5.90812">
        <ele>2699</ele>
        <time>2019-08-04T09:54:19.000Z</time>
      </trkpt>
      <trkpt lat="45.03702" lon="5.90807">
        <ele>2698</ele>
        <time>2019-08-04T09:54:30.000Z</time>
      </trkpt>
      <trkpt lat="45.03701" lon="5.908">
        <ele>2700</ele>
        <time>2019-08-04T09:55:15.000Z</time>
      </trkpt>
      <trkpt lat="45.03698" lon="5.90793">
        <ele>2697</ele>
        <time>2019-08-04T09:55:29.000Z</time>
      </trkpt>
      <trkpt lat="45.03696" lon="5.90787">
        <ele>2696</ele>
        <time>2019-08-04T09:55:39.000Z</time>
      </trkpt>
      <trkpt lat="45.03693" lon="5.90782">
        <ele>2694</ele>
        <time>2019-08-04T09:55:49.000Z</time>
      </trkpt>
      <trkpt lat="45.0369" lon="5.90776">
        <ele>2693</ele>
        <time>2019-08-04T09:55:55.000Z</time>
      </trkpt>
      <trkpt lat="45.03688" lon="5.90768">
        <ele>2695</ele>
        <time>2019-08-04T09:56:02.000Z</time>
      </trkpt>
      <trkpt lat="45.03686" lon="5.90762">
        <ele>2696</ele>
        <time>2019-08-04T09:56:09.000Z</time>
      </trkpt>
      <trkpt lat="45.03682" lon="5.90756">
        <ele>2696</ele>
        <time>2019-08-04T09:56:16.000Z</time>
      </trkpt>
      <trkpt lat="45.03679" lon="5.90748">
        <ele>2694</ele>
        <time>2019-08-04T09:56:30.000Z</time>
      </trkpt>
      <trkpt lat="45.03674" lon="5.90741">
        <ele>2692</ele>
        <time>2019-08-04T09:56:48.000Z</time>
      </trkpt>
      <trkpt lat="45.03672" lon="5.90735">
        <ele>2692</ele>
        <time>2019-08-04T09:56:56.000Z</time>
      </trkpt>
      <trkpt lat="45.0367" lon="5.90727">
        <ele>2693</ele>
        <time>2019-08-04T09:57:03.000Z</time>
      </trkpt>
      <trkpt lat="45.03667" lon="5.9072">
        <ele>2692</ele>
        <time>2019-08-04T09:57:11.000Z</time>
      </trkpt>
      <trkpt lat="45.03664" lon="5.90714">
        <ele>2692</ele>
        <time>2019-08-04T09:57:35.000Z</time>
      </trkpt>
      <trkpt lat="45.0366" lon="5.90709">
        <ele>2692</ele>
        <time>2019-08-04T09:57:44.000Z</time>
      </trkpt>
      <trkpt lat="45.03657" lon="5.90701">
        <ele>2692</ele>
        <time>2019-08-04T09:57:55.000Z</time>
      </trkpt>
      <trkpt lat="45.03655" lon="5.90693">
        <ele>2691</ele>
        <time>2019-08-04T09:58:06.000Z</time>
      </trkpt>
      <trkpt lat="45.03656" lon="5.90686">
        <ele>2691</ele>
        <time>2019-08-04T09:58:13.000Z</time>
      </trkpt>
      <trkpt lat="45.03654" lon="5.90678">
        <ele>2690</ele>
        <time>2019-08-04T09:58:20.000Z</time>
      </trkpt>
      <trkpt lat="45.03654" lon="5.90671">
        <ele>2690</ele>
        <time>2019-08-04T09:58:34.000Z</time>
      </trkpt>
      <trkpt lat="45.03653" lon="5.90664">
        <ele>2691</ele>
        <time>2019-08-04T09:58:52.000Z</time>
      </trkpt>
      <trkpt lat="45.03654" lon="5.90657">
        <ele>2691</ele>
        <time>2019-08-04T09:59:02.000Z</time>
      </trkpt>
      <trkpt lat="45.03651" lon="5.9065">
        <ele>2691</ele>
        <time>2019-08-04T09:59:09.000Z</time>
      </trkpt>
      <trkpt lat="45.03648" lon="5.90643">
        <ele>2689</ele>
        <time>2019-08-04T09:59:20.000Z</time>
      </trkpt>
      <trkpt lat="45.03646" lon="5.90636">
        <ele>2688</ele>
        <time>2019-08-04T09:59:36.000Z</time>
      </trkpt>
      <trkpt lat="45.03644" lon="5.9063">
        <ele>2689</ele>
        <time>2019-08-04T09:59:49.000Z</time>
      </trkpt>
      <trkpt lat="45.03642" lon="5.90623">
        <ele>2690</ele>
        <time>2019-08-04T09:59:57.000Z</time>
      </trkpt>
      <trkpt lat="45.0364" lon="5.90616">
        <ele>2690</ele>
        <time>2019-08-04T10:00:04.000Z</time>
      </trkpt>
      <trkpt lat="45.03639" lon="5.90609">
        <ele>2690</ele>
        <time>2019-08-04T10:00:11.000Z</time>
      </trkpt>
      <trkpt lat="45.03636" lon="5.90604">
        <ele>2690</ele>
        <time>2019-08-04T10:00:17.000Z</time>
      </trkpt>
      <trkpt lat="45.03633" lon="5.90597">
        <ele>2690</ele>
        <time>2019-08-04T10:00:48.000Z</time>
      </trkpt>
      <trkpt lat="45.03631" lon="5.90592">
        <ele>2690</ele>
        <time>2019-08-04T10:00:57.000Z</time>
      </trkpt>
      <trkpt lat="45.0363" lon="5.90585">
        <ele>2689</ele>
        <time>2019-08-04T10:01:05.000Z</time>
      </trkpt>
      <trkpt lat="45.03625" lon="5.90579">
        <ele>2688</ele>
        <time>2019-08-04T10:01:15.000Z</time>
      </trkpt>
      <trkpt lat="45.03621" lon="5.90573">
        <ele>2688</ele>
        <time>2019-08-04T10:01:25.000Z</time>
      </trkpt>
      <trkpt lat="45.03618" lon="5.90564">
        <ele>2686</ele>
        <time>2019-08-04T10:01:35.000Z</time>
      </trkpt>
      <trkpt lat="45.03615" lon="5.90556">
        <ele>2683</ele>
        <time>2019-08-04T10:01:46.000Z</time>
      </trkpt>
      <trkpt lat="45.03614" lon="5.90547">
        <ele>2680</ele>
        <time>2019-08-04T10:01:54.000Z</time>
      </trkpt>
      <trkpt lat="45.03609" lon="5.90537">
        <ele>2679</ele>
        <time>2019-08-04T10:02:02.000Z</time>
      </trkpt>
      <trkpt lat="45.03605" lon="5.90531">
        <ele>2678</ele>
        <time>2019-08-04T10:02:08.000Z</time>
      </trkpt>
      <trkpt lat="45.03601" lon="5.90525">
        <ele>2678</ele>
        <time>2019-08-04T10:02:15.000Z</time>
      </trkpt>
      <trkpt lat="45.03597" lon="5.9052">
        <ele>2675</ele>
        <time>2019-08-04T10:02:25.000Z</time>
      </trkpt>
      <trkpt lat="45.03595" lon="5.90512">
        <ele>2673</ele>
        <time>2019-08-04T10:02:36.000Z</time>
      </trkpt>
      <trkpt lat="45.03594" lon="5.90504">
        <ele>2670</ele>
        <time>2019-08-04T10:02:45.000Z</time>
      </trkpt>
      <trkpt lat="45.03594" lon="5.90494">
        <ele>2671</ele>
        <time>2019-08-04T10:03:06.000Z</time>
      </trkpt>
      <trkpt lat="45.03593" lon="5.90487">
        <ele>2671</ele>
        <time>2019-08-04T10:03:16.000Z</time>
      </trkpt>
      <trkpt lat="45.0359" lon="5.90482">
        <ele>2670</ele>
        <time>2019-08-04T10:03:26.000Z</time>
      </trkpt>
      <trkpt lat="45.03589" lon="5.90476">
        <ele>2669</ele>
        <time>2019-08-04T10:03:58.000Z</time>
      </trkpt>
      <trkpt lat="45.03585" lon="5.90472">
        <ele>2670</ele>
        <time>2019-08-04T10:04:37.000Z</time>
      </trkpt>
      <trkpt lat="45.03582" lon="5.90466">
        <ele>2670</ele>
        <time>2019-08-04T10:04:47.000Z</time>
      </trkpt>
      <trkpt lat="45.03578" lon="5.90461">
        <ele>2668</ele>
        <time>2019-08-04T10:04:54.000Z</time>
      </trkpt>
      <trkpt lat="45.03572" lon="5.90453">
        <ele>2668</ele>
        <time>2019-08-04T10:05:07.000Z</time>
      </trkpt>
      <trkpt lat="45.03569" lon="5.90446">
        <ele>2667</ele>
        <time>2019-08-04T10:05:16.000Z</time>
      </trkpt>
      <trkpt lat="45.03565" lon="5.9044">
        <ele>2666</ele>
        <time>2019-08-04T10:05:23.000Z</time>
      </trkpt>
      <trkpt lat="45.03563" lon="5.90432">
        <ele>2664</ele>
        <time>2019-08-04T10:05:30.000Z</time>
      </trkpt>
      <trkpt lat="45.0356" lon="5.90424">
        <ele>2664</ele>
        <time>2019-08-04T10:05:38.000Z</time>
      </trkpt>
      <trkpt lat="45.03555" lon="5.90422">
        <ele>2660</ele>
        <time>2019-08-04T10:06:05.000Z</time>
      </trkpt>
      <trkpt lat="45.03553" lon="5.90415">
        <ele>2658</ele>
        <time>2019-08-04T10:06:15.000Z</time>
      </trkpt>
      <trkpt lat="45.03548" lon="5.90415">
        <ele>2656</ele>
        <time>2019-08-04T10:06:29.000Z</time>
      </trkpt>
      <trkpt lat="45.03544" lon="5.90411">
        <ele>2653</ele>
        <time>2019-08-04T10:06:37.000Z</time>
      </trkpt>
      <trkpt lat="45.03539" lon="5.90406">
        <ele>2648</ele>
        <time>2019-08-04T10:06:54.000Z</time>
      </trkpt>
      <trkpt lat="45.03535" lon="5.90404">
        <ele>2647</ele>
        <time>2019-08-04T10:07:01.000Z</time>
      </trkpt>
      <trkpt lat="45.03531" lon="5.90399">
        <ele>2645</ele>
        <time>2019-08-04T10:07:08.000Z</time>
      </trkpt>
      <trkpt lat="45.03525" lon="5.90394">
        <ele>2643</ele>
        <time>2019-08-04T10:07:15.000Z</time>
      </trkpt>
      <trkpt lat="45.03519" lon="5.90392">
        <ele>2641</ele>
        <time>2019-08-04T10:07:23.000Z</time>
      </trkpt>
      <trkpt lat="45.03515" lon="5.90387">
        <ele>2637</ele>
        <time>2019-08-04T10:07:37.000Z</time>
      </trkpt>
      <trkpt lat="45.03511" lon="5.90383">
        <ele>2639</ele>
        <time>2019-08-04T10:08:32.000Z</time>
      </trkpt>
      <trkpt lat="45.03506" lon="5.90382">
        <ele>2635</ele>
        <time>2019-08-04T10:08:46.000Z</time>
      </trkpt>
      <trkpt lat="45.03502" lon="5.90376">
        <ele>2632</ele>
        <time>2019-08-04T10:08:53.000Z</time>
      </trkpt>
      <trkpt lat="45.03498" lon="5.90368">
        <ele>2630</ele>
        <time>2019-08-04T10:08:59.000Z</time>
      </trkpt>
      <trkpt lat="45.03493" lon="5.90363">
        <ele>2629</ele>
        <time>2019-08-04T10:09:06.000Z</time>
      </trkpt>
      <trkpt lat="45.03487" lon="5.90356">
        <ele>2628</ele>
        <time>2019-08-04T10:09:14.000Z</time>
      </trkpt>
      <trkpt lat="45.03482" lon="5.9035">
        <ele>2627</ele>
        <time>2019-08-04T10:09:21.000Z</time>
      </trkpt>
      <trkpt lat="45.03476" lon="5.90346">
        <ele>2624</ele>
        <time>2019-08-04T10:09:28.000Z</time>
      </trkpt>
      <trkpt lat="45.03471" lon="5.90343">
        <ele>2623</ele>
        <time>2019-08-04T10:09:38.000Z</time>
      </trkpt>
      <trkpt lat="45.03464" lon="5.90344">
        <ele>2622</ele>
        <time>2019-08-04T10:09:46.000Z</time>
      </trkpt>
      <trkpt lat="45.03455" lon="5.90347">
        <ele>2620</ele>
        <time>2019-08-04T10:09:54.000Z</time>
      </trkpt>
      <trkpt lat="45.0345" lon="5.90342">
        <ele>2619</ele>
        <time>2019-08-04T10:10:01.000Z</time>
      </trkpt>
      <trkpt lat="45.03444" lon="5.9034">
        <ele>2615</ele>
        <time>2019-08-04T10:10:10.000Z</time>
      </trkpt>
      <trkpt lat="45.03438" lon="5.90335">
        <ele>2615</ele>
        <time>2019-08-04T10:10:18.000Z</time>
      </trkpt>
      <trkpt lat="45.03433" lon="5.9033">
        <ele>2611</ele>
        <time>2019-08-04T10:10:26.000Z</time>
      </trkpt>
      <trkpt lat="45.03427" lon="5.90329">
        <ele>2610</ele>
        <time>2019-08-04T10:10:32.000Z</time>
      </trkpt>
      <trkpt lat="45.0342" lon="5.90329">
        <ele>2608</ele>
        <time>2019-08-04T10:10:40.000Z</time>
      </trkpt>
      <trkpt lat="45.03415" lon="5.90327">
        <ele>2606</ele>
        <time>2019-08-04T10:10:47.000Z</time>
      </trkpt>
      <trkpt lat="45.03409" lon="5.90324">
        <ele>2604</ele>
        <time>2019-08-04T10:10:54.000Z</time>
      </trkpt>
      <trkpt lat="45.03402" lon="5.90324">
        <ele>2601</ele>
        <time>2019-08-04T10:11:02.000Z</time>
      </trkpt>
      <trkpt lat="45.03397" lon="5.90325">
        <ele>2599</ele>
        <time>2019-08-04T10:11:09.000Z</time>
      </trkpt>
      <trkpt lat="45.03392" lon="5.90327">
        <ele>2597</ele>
        <time>2019-08-04T10:11:16.000Z</time>
      </trkpt>
      <trkpt lat="45.03387" lon="5.90327">
        <ele>2595</ele>
        <time>2019-08-04T10:11:22.000Z</time>
      </trkpt>
      <trkpt lat="45.03379" lon="5.90328">
        <ele>2592</ele>
        <time>2019-08-04T10:11:32.000Z</time>
      </trkpt>
      <trkpt lat="45.03372" lon="5.90333">
        <ele>2590</ele>
        <time>2019-08-04T10:11:43.000Z</time>
      </trkpt>
      <trkpt lat="45.03366" lon="5.90332">
        <ele>2586</ele>
        <time>2019-08-04T10:11:53.000Z</time>
      </trkpt>
      <trkpt lat="45.03358" lon="5.90333">
        <ele>2583</ele>
        <time>2019-08-04T10:12:10.000Z</time>
      </trkpt>
      <trkpt lat="45.03351" lon="5.90335">
        <ele>2582</ele>
        <time>2019-08-04T10:12:17.000Z</time>
      </trkpt>
      <trkpt lat="45.03344" lon="5.90335">
        <ele>2580</ele>
        <time>2019-08-04T10:12:24.000Z</time>
      </trkpt>
      <trkpt lat="45.03338" lon="5.90331">
        <ele>2579</ele>
        <time>2019-08-04T10:12:31.000Z</time>
      </trkpt>
      <trkpt lat="45.03333" lon="5.90337">
        <ele>2578</ele>
        <time>2019-08-04T10:12:38.000Z</time>
      </trkpt>
      <trkpt lat="45.03328" lon="5.90331">
        <ele>2574</ele>
        <time>2019-08-04T10:12:49.000Z</time>
      </trkpt>
      <trkpt lat="45.03327" lon="5.90324">
        <ele>2571</ele>
        <time>2019-08-04T10:12:56.000Z</time>
      </trkpt>
      <trkpt lat="45.03327" lon="5.90315">
        <ele>2569</ele>
        <time>2019-08-04T10:13:04.000Z</time>
      </trkpt>
      <trkpt lat="45.03325" lon="5.90308">
        <ele>2567</ele>
        <time>2019-08-04T10:13:11.000Z</time>
      </trkpt>
      <trkpt lat="45.03324" lon="5.90301">
        <ele>2565</ele>
        <time>2019-08-04T10:13:18.000Z</time>
      </trkpt>
      <trkpt lat="45.03322" lon="5.90293">
        <ele>2563</ele>
        <time>2019-08-04T10:13:26.000Z</time>
      </trkpt>
      <trkpt lat="45.0332" lon="5.90285">
        <ele>2559</ele>
        <time>2019-08-04T10:13:34.000Z</time>
      </trkpt>
      <trkpt lat="45.0332" lon="5.90278">
        <ele>2556</ele>
        <time>2019-08-04T10:13:41.000Z</time>
      </trkpt>
      <trkpt lat="45.0332" lon="5.90271">
        <ele>2553</ele>
        <time>2019-08-04T10:13:48.000Z</time>
      </trkpt>
      <trkpt lat="45.03321" lon="5.90263">
        <ele>2551</ele>
        <time>2019-08-04T10:13:55.000Z</time>
      </trkpt>
      <trkpt lat="45.03321" lon="5.90253">
        <ele>2550</ele>
        <time>2019-08-04T10:14:03.000Z</time>
      </trkpt>
      <trkpt lat="45.03319" lon="5.90245">
        <ele>2548</ele>
        <time>2019-08-04T10:14:10.000Z</time>
      </trkpt>
      <trkpt lat="45.03321" lon="5.90235">
        <ele>2544</ele>
        <time>2019-08-04T10:14:18.000Z</time>
      </trkpt>
      <trkpt lat="45.03323" lon="5.90226">
        <ele>2542</ele>
        <time>2019-08-04T10:14:24.000Z</time>
      </trkpt>
      <trkpt lat="45.03324" lon="5.90218">
        <ele>2541</ele>
        <time>2019-08-04T10:14:31.000Z</time>
      </trkpt>
      <trkpt lat="45.03323" lon="5.90209">
        <ele>2538</ele>
        <time>2019-08-04T10:14:38.000Z</time>
      </trkpt>
      <trkpt lat="45.03323" lon="5.90202">
        <ele>2537</ele>
        <time>2019-08-04T10:14:45.000Z</time>
      </trkpt>
      <trkpt lat="45.03323" lon="5.90192">
        <ele>2535</ele>
        <time>2019-08-04T10:14:56.000Z</time>
      </trkpt>
      <trkpt lat="45.03324" lon="5.90184">
        <ele>2532</ele>
        <time>2019-08-04T10:15:03.000Z</time>
      </trkpt>
      <trkpt lat="45.03323" lon="5.90176">
        <ele>2531</ele>
        <time>2019-08-04T10:15:10.000Z</time>
      </trkpt>
      <trkpt lat="45.03317" lon="5.90174">
        <ele>2528</ele>
        <time>2019-08-04T10:15:18.000Z</time>
      </trkpt>
      <trkpt lat="45.03312" lon="5.90169">
        <ele>2525</ele>
        <time>2019-08-04T10:15:26.000Z</time>
      </trkpt>
      <trkpt lat="45.03306" lon="5.90165">
        <ele>2524</ele>
        <time>2019-08-04T10:15:34.000Z</time>
      </trkpt>
      <trkpt lat="45.03307" lon="5.90155">
        <ele>2521</ele>
        <time>2019-08-04T10:15:42.000Z</time>
      </trkpt>
      <trkpt lat="45.03308" lon="5.90144">
        <ele>2518</ele>
        <time>2019-08-04T10:15:50.000Z</time>
      </trkpt>
      <trkpt lat="45.03309" lon="5.90137">
        <ele>2519</ele>
        <time>2019-08-04T10:15:54.000Z</time>
      </trkpt>
      <trkpt lat="45.03304" lon="5.90129">
        <ele>2516</ele>
        <time>2019-08-04T10:16:02.000Z</time>
      </trkpt>
      <trkpt lat="45.03295" lon="5.90127">
        <ele>2514</ele>
        <time>2019-08-04T10:16:10.000Z</time>
      </trkpt>
      <trkpt lat="45.03292" lon="5.9012">
        <ele>2511</ele>
        <time>2019-08-04T10:16:17.000Z</time>
      </trkpt>
      <trkpt lat="45.03294" lon="5.90109">
        <ele>2509</ele>
        <time>2019-08-04T10:16:24.000Z</time>
      </trkpt>
      <trkpt lat="45.03289" lon="5.901">
        <ele>2508</ele>
        <time>2019-08-04T10:16:31.000Z</time>
      </trkpt>
      <trkpt lat="45.03285" lon="5.90097">
        <ele>2506</ele>
        <time>2019-08-04T10:16:35.000Z</time>
      </trkpt>
      <trkpt lat="45.03281" lon="5.90093">
        <ele>2505</ele>
        <time>2019-08-04T10:16:42.000Z</time>
      </trkpt>
      <trkpt lat="45.03285" lon="5.90088">
        <ele>2502</ele>
        <time>2019-08-04T10:18:57.000Z</time>
      </trkpt>
      <trkpt lat="45.0329" lon="5.90087">
        <ele>2501</ele>
        <time>2019-08-04T10:19:07.000Z</time>
      </trkpt>
      <trkpt lat="45.03295" lon="5.90087">
        <ele>2499</ele>
        <time>2019-08-04T10:19:16.000Z</time>
      </trkpt>
      <trkpt lat="45.03304" lon="5.90087">
        <ele>2497</ele>
        <time>2019-08-04T10:19:24.000Z</time>
      </trkpt>
      <trkpt lat="45.03311" lon="5.90089">
        <ele>2495</ele>
        <time>2019-08-04T10:19:31.000Z</time>
      </trkpt>
      <trkpt lat="45.03317" lon="5.90093">
        <ele>2494</ele>
        <time>2019-08-04T10:19:38.000Z</time>
      </trkpt>
      <trkpt lat="45.03324" lon="5.90097">
        <ele>2493</ele>
        <time>2019-08-04T10:19:44.000Z</time>
      </trkpt>
      <trkpt lat="45.03332" lon="5.90096">
        <ele>2491</ele>
        <time>2019-08-04T10:19:51.000Z</time>
      </trkpt>
      <trkpt lat="45.03338" lon="5.90097">
        <ele>2491</ele>
        <time>2019-08-04T10:19:58.000Z</time>
      </trkpt>
      <trkpt lat="45.03344" lon="5.90101">
        <ele>2489</ele>
        <time>2019-08-04T10:20:10.000Z</time>
      </trkpt>
      <trkpt lat="45.03348" lon="5.90103">
        <ele>2489</ele>
        <time>2019-08-04T10:20:14.000Z</time>
      </trkpt>
      <trkpt lat="45.03353" lon="5.90105">
        <ele>2488</ele>
        <time>2019-08-04T10:20:21.000Z</time>
      </trkpt>
      <trkpt lat="45.03359" lon="5.90103">
        <ele>2486</ele>
        <time>2019-08-04T10:20:35.000Z</time>
      </trkpt>
      <trkpt lat="45.03363" lon="5.90103">
        <ele>2484</ele>
        <time>2019-08-04T10:20:42.000Z</time>
      </trkpt>
      <trkpt lat="45.03371" lon="5.90101">
        <ele>2482</ele>
        <time>2019-08-04T10:20:49.000Z</time>
      </trkpt>
      <trkpt lat="45.03376" lon="5.90099">
        <ele>2483</ele>
        <time>2019-08-04T10:20:59.000Z</time>
      </trkpt>
      <trkpt lat="45.03383" lon="5.90096">
        <ele>2479</ele>
        <time>2019-08-04T10:21:06.000Z</time>
      </trkpt>
      <trkpt lat="45.0339" lon="5.90096">
        <ele>2478</ele>
        <time>2019-08-04T10:21:14.000Z</time>
      </trkpt>
      <trkpt lat="45.03394" lon="5.90092">
        <ele>2475</ele>
        <time>2019-08-04T10:21:22.000Z</time>
      </trkpt>
      <trkpt lat="45.034" lon="5.90088">
        <ele>2475</ele>
        <time>2019-08-04T10:21:30.000Z</time>
      </trkpt>
      <trkpt lat="45.03406" lon="5.90086">
        <ele>2473</ele>
        <time>2019-08-04T10:21:37.000Z</time>
      </trkpt>
      <trkpt lat="45.03411" lon="5.90082">
        <ele>2471</ele>
        <time>2019-08-04T10:21:44.000Z</time>
      </trkpt>
      <trkpt lat="45.03417" lon="5.90075">
        <ele>2468</ele>
        <time>2019-08-04T10:21:52.000Z</time>
      </trkpt>
      <trkpt lat="45.03424" lon="5.90071">
        <ele>2465</ele>
        <time>2019-08-04T10:21:59.000Z</time>
      </trkpt>
      <trkpt lat="45.03427" lon="5.90066">
        <ele>2464</ele>
        <time>2019-08-04T10:22:06.000Z</time>
      </trkpt>
      <trkpt lat="45.03432" lon="5.90064">
        <ele>2459</ele>
        <time>2019-08-04T10:22:16.000Z</time>
      </trkpt>
      <trkpt lat="45.03437" lon="5.90063">
        <ele>2458</ele>
        <time>2019-08-04T10:22:27.000Z</time>
      </trkpt>
      <trkpt lat="45.03442" lon="5.90061">
        <ele>2455</ele>
        <time>2019-08-04T10:22:34.000Z</time>
      </trkpt>
      <trkpt lat="45.03447" lon="5.90057">
        <ele>2454</ele>
        <time>2019-08-04T10:22:41.000Z</time>
      </trkpt>
      <trkpt lat="45.03453" lon="5.90054">
        <ele>2452</ele>
        <time>2019-08-04T10:22:48.000Z</time>
      </trkpt>
      <trkpt lat="45.03459" lon="5.90052">
        <ele>2452</ele>
        <time>2019-08-04T10:22:55.000Z</time>
      </trkpt>
      <trkpt lat="45.03462" lon="5.90046">
        <ele>2450</ele>
        <time>2019-08-04T10:23:02.000Z</time>
      </trkpt>
      <trkpt lat="45.03466" lon="5.90043">
        <ele>2449</ele>
        <time>2019-08-04T10:23:06.000Z</time>
      </trkpt>
      <trkpt lat="45.03475" lon="5.90042">
        <ele>2448</ele>
        <time>2019-08-04T10:23:14.000Z</time>
      </trkpt>
      <trkpt lat="45.03482" lon="5.90046">
        <ele>2447</ele>
        <time>2019-08-04T10:23:22.000Z</time>
      </trkpt>
      <trkpt lat="45.03486" lon="5.90049">
        <ele>2445</ele>
        <time>2019-08-04T10:23:29.000Z</time>
      </trkpt>
      <trkpt lat="45.03491" lon="5.90048">
        <ele>2443</ele>
        <time>2019-08-04T10:23:44.000Z</time>
      </trkpt>
      <trkpt lat="45.03497" lon="5.90046">
        <ele>2442</ele>
        <time>2019-08-04T10:23:52.000Z</time>
      </trkpt>
      <trkpt lat="45.03503" lon="5.90044">
        <ele>2440</ele>
        <time>2019-08-04T10:23:59.000Z</time>
      </trkpt>
      <trkpt lat="45.03509" lon="5.90047">
        <ele>2438</ele>
        <time>2019-08-04T10:24:06.000Z</time>
      </trkpt>
      <trkpt lat="45.03513" lon="5.90051">
        <ele>2436</ele>
        <time>2019-08-04T10:24:13.000Z</time>
      </trkpt>
      <trkpt lat="45.03519" lon="5.90053">
        <ele>2433</ele>
        <time>2019-08-04T10:24:23.000Z</time>
      </trkpt>
      <trkpt lat="45.03524" lon="5.90051">
        <ele>2431</ele>
        <time>2019-08-04T10:24:34.000Z</time>
      </trkpt>
      <trkpt lat="45.03529" lon="5.9005">
        <ele>2430</ele>
        <time>2019-08-04T10:24:40.000Z</time>
      </trkpt>
      <trkpt lat="45.03534" lon="5.90048">
        <ele>2431</ele>
        <time>2019-08-04T10:26:29.000Z</time>
      </trkpt>
      <trkpt lat="45.03539" lon="5.90048">
        <ele>2429</ele>
        <time>2019-08-04T10:26:42.000Z</time>
      </trkpt>
      <trkpt lat="45.03546" lon="5.90049">
        <ele>2427</ele>
        <time>2019-08-04T10:26:49.000Z</time>
      </trkpt>
      <trkpt lat="45.03549" lon="5.90054">
        <ele>2426</ele>
        <time>2019-08-04T10:26:53.000Z</time>
      </trkpt>
      <trkpt lat="45.03553" lon="5.90058">
        <ele>2426</ele>
        <time>2019-08-04T10:27:00.000Z</time>
      </trkpt>
      <trkpt lat="45.03558" lon="5.90059">
        <ele>2425</ele>
        <time>2019-08-04T10:27:06.000Z</time>
      </trkpt>
      <trkpt lat="45.03563" lon="5.90062">
        <ele>2425</ele>
        <time>2019-08-04T10:27:13.000Z</time>
      </trkpt>
      <trkpt lat="45.03571" lon="5.90059">
        <ele>2427</ele>
        <time>2019-08-04T10:27:20.000Z</time>
      </trkpt>
      <trkpt lat="45.03577" lon="5.90056">
        <ele>2425</ele>
        <time>2019-08-04T10:27:26.000Z</time>
      </trkpt>
      <trkpt lat="45.03583" lon="5.90058">
        <ele>2426</ele>
        <time>2019-08-04T10:27:34.000Z</time>
      </trkpt>
      <trkpt lat="45.0359" lon="5.90058">
        <ele>2425</ele>
        <time>2019-08-04T10:27:41.000Z</time>
      </trkpt>
      <trkpt lat="45.03594" lon="5.90058">
        <ele>2426</ele>
        <time>2019-08-04T10:27:45.000Z</time>
      </trkpt>
      <trkpt lat="45.03601" lon="5.90058">
        <ele>2425</ele>
        <time>2019-08-04T10:27:52.000Z</time>
      </trkpt>
      <trkpt lat="45.03609" lon="5.90058">
        <ele>2425</ele>
        <time>2019-08-04T10:27:58.000Z</time>
      </trkpt>
      <trkpt lat="45.03615" lon="5.90056">
        <ele>2426</ele>
        <time>2019-08-04T10:28:02.000Z</time>
      </trkpt>
      <trkpt lat="45.03622" lon="5.90052">
        <ele>2427</ele>
        <time>2019-08-04T10:28:09.000Z</time>
      </trkpt>
      <trkpt lat="45.03624" lon="5.90044">
        <ele>2428</ele>
        <time>2019-08-04T10:28:16.000Z</time>
      </trkpt>
      <trkpt lat="45.03632" lon="5.90041">
        <ele>2428</ele>
        <time>2019-08-04T10:28:26.000Z</time>
      </trkpt>
      <trkpt lat="45.03637" lon="5.90038">
        <ele>2428</ele>
        <time>2019-08-04T10:28:30.000Z</time>
      </trkpt>
      <trkpt lat="45.03642" lon="5.90032">
        <ele>2428</ele>
        <time>2019-08-04T10:28:36.000Z</time>
      </trkpt>
      <trkpt lat="45.03645" lon="5.90025">
        <ele>2429</ele>
        <time>2019-08-04T10:28:43.000Z</time>
      </trkpt>
      <trkpt lat="45.03649" lon="5.90021">
        <ele>2428</ele>
        <time>2019-08-04T10:28:50.000Z</time>
      </trkpt>
      <trkpt lat="45.03655" lon="5.90019">
        <ele>2427</ele>
        <time>2019-08-04T10:28:57.000Z</time>
      </trkpt>
      <trkpt lat="45.03661" lon="5.90017">
        <ele>2426</ele>
        <time>2019-08-04T10:29:03.000Z</time>
      </trkpt>
      <trkpt lat="45.03665" lon="5.90015">
        <ele>2427</ele>
        <time>2019-08-04T10:29:07.000Z</time>
      </trkpt>
      <trkpt lat="45.03669" lon="5.90011">
        <ele>2427</ele>
        <time>2019-08-04T10:29:11.000Z</time>
      </trkpt>
      <trkpt lat="45.03677" lon="5.90007">
        <ele>2428</ele>
        <time>2019-08-04T10:29:18.000Z</time>
      </trkpt>
      <trkpt lat="45.03682" lon="5.90002">
        <ele>2429</ele>
        <time>2019-08-04T10:29:25.000Z</time>
      </trkpt>
      <trkpt lat="45.03688" lon="5.89998">
        <ele>2429</ele>
        <time>2019-08-04T10:29:31.000Z</time>
      </trkpt>
      <trkpt lat="45.03692" lon="5.89993">
        <ele>2431</ele>
        <time>2019-08-04T10:29:37.000Z</time>
      </trkpt>
      <trkpt lat="45.03697" lon="5.89986">
        <ele>2432</ele>
        <time>2019-08-04T10:29:44.000Z</time>
      </trkpt>
      <trkpt lat="45.03703" lon="5.89983">
        <ele>2433</ele>
        <time>2019-08-04T10:29:51.000Z</time>
      </trkpt>
      <trkpt lat="45.03706" lon="5.89977">
        <ele>2433</ele>
        <time>2019-08-04T10:29:58.000Z</time>
      </trkpt>
      <trkpt lat="45.0371" lon="5.89971">
        <ele>2435</ele>
        <time>2019-08-04T10:30:09.000Z</time>
      </trkpt>
      <trkpt lat="45.03715" lon="5.89969">
        <ele>2437</ele>
        <time>2019-08-04T10:30:17.000Z</time>
      </trkpt>
      <trkpt lat="45.03721" lon="5.89966">
        <ele>2434</ele>
        <time>2019-08-04T10:32:06.000Z</time>
      </trkpt>
      <trkpt lat="45.03725" lon="5.89963">
        <ele>2434</ele>
        <time>2019-08-04T10:32:10.000Z</time>
      </trkpt>
      <trkpt lat="45.03733" lon="5.89957">
        <ele>2433</ele>
        <time>2019-08-04T10:32:17.000Z</time>
      </trkpt>
      <trkpt lat="45.03739" lon="5.89952">
        <ele>2432</ele>
        <time>2019-08-04T10:32:23.000Z</time>
      </trkpt>
      <trkpt lat="45.03743" lon="5.89949">
        <ele>2431</ele>
        <time>2019-08-04T10:32:27.000Z</time>
      </trkpt>
      <trkpt lat="45.03749" lon="5.89943">
        <ele>2431</ele>
        <time>2019-08-04T10:32:33.000Z</time>
      </trkpt>
      <trkpt lat="45.03754" lon="5.89937">
        <ele>2429</ele>
        <time>2019-08-04T10:32:40.000Z</time>
      </trkpt>
      <trkpt lat="45.03762" lon="5.89932">
        <ele>2427</ele>
        <time>2019-08-04T10:32:48.000Z</time>
      </trkpt>
      <trkpt lat="45.03766" lon="5.89925">
        <ele>2426</ele>
        <time>2019-08-04T10:32:56.000Z</time>
      </trkpt>
      <trkpt lat="45.03766" lon="5.89918">
        <ele>2424</ele>
        <time>2019-08-04T10:33:06.000Z</time>
      </trkpt>
      <trkpt lat="45.0377" lon="5.89911">
        <ele>2423</ele>
        <time>2019-08-04T10:33:13.000Z</time>
      </trkpt>
      <trkpt lat="45.03775" lon="5.89905">
        <ele>2420</ele>
        <time>2019-08-04T10:33:20.000Z</time>
      </trkpt>
      <trkpt lat="45.03779" lon="5.89897">
        <ele>2419</ele>
        <time>2019-08-04T10:33:28.000Z</time>
      </trkpt>
      <trkpt lat="45.03781" lon="5.89887">
        <ele>2415</ele>
        <time>2019-08-04T10:33:39.000Z</time>
      </trkpt>
      <trkpt lat="45.03783" lon="5.89878">
        <ele>2413</ele>
        <time>2019-08-04T10:33:46.000Z</time>
      </trkpt>
      <trkpt lat="45.03786" lon="5.89872">
        <ele>2411</ele>
        <time>2019-08-04T10:33:54.000Z</time>
      </trkpt>
      <trkpt lat="45.03789" lon="5.89863">
        <ele>2408</ele>
        <time>2019-08-04T10:34:02.000Z</time>
      </trkpt>
      <trkpt lat="45.03792" lon="5.89855">
        <ele>2407</ele>
        <time>2019-08-04T10:34:06.000Z</time>
      </trkpt>
      <trkpt lat="45.03795" lon="5.8985">
        <ele>2407</ele>
        <time>2019-08-04T10:34:10.000Z</time>
      </trkpt>
      <trkpt lat="45.03799" lon="5.89845">
        <ele>2406</ele>
        <time>2019-08-04T10:34:14.000Z</time>
      </trkpt>
      <trkpt lat="45.03802" lon="5.89836">
        <ele>2406</ele>
        <time>2019-08-04T10:34:20.000Z</time>
      </trkpt>
      <trkpt lat="45.03806" lon="5.89827">
        <ele>2405</ele>
        <time>2019-08-04T10:34:26.000Z</time>
      </trkpt>
      <trkpt lat="45.03809" lon="5.8982">
        <ele>2405</ele>
        <time>2019-08-04T10:34:30.000Z</time>
      </trkpt>
      <trkpt lat="45.03809" lon="5.89811">
        <ele>2403</ele>
        <time>2019-08-04T10:34:36.000Z</time>
      </trkpt>
      <trkpt lat="45.03809" lon="5.89804">
        <ele>2403</ele>
        <time>2019-08-04T10:34:40.000Z</time>
      </trkpt>
      <trkpt lat="45.03811" lon="5.89794">
        <ele>2402</ele>
        <time>2019-08-04T10:34:47.000Z</time>
      </trkpt>
      <trkpt lat="45.03815" lon="5.89786">
        <ele>2399</ele>
        <time>2019-08-04T10:34:54.000Z</time>
      </trkpt>
      <trkpt lat="45.03818" lon="5.89779">
        <ele>2398</ele>
        <time>2019-08-04T10:35:00.000Z</time>
      </trkpt>
      <trkpt lat="45.03821" lon="5.89769">
        <ele>2397</ele>
        <time>2019-08-04T10:35:39.000Z</time>
      </trkpt>
      <trkpt lat="45.03824" lon="5.89762">
        <ele>2396</ele>
        <time>2019-08-04T10:35:43.000Z</time>
      </trkpt>
      <trkpt lat="45.03829" lon="5.89754">
        <ele>2395</ele>
        <time>2019-08-04T10:35:50.000Z</time>
      </trkpt>
      <trkpt lat="45.03835" lon="5.89746">
        <ele>2395</ele>
        <time>2019-08-04T10:35:56.000Z</time>
      </trkpt>
      <trkpt lat="45.03839" lon="5.89741">
        <ele>2394</ele>
        <time>2019-08-04T10:36:00.000Z</time>
      </trkpt>
      <trkpt lat="45.03845" lon="5.89735">
        <ele>2394</ele>
        <time>2019-08-04T10:36:07.000Z</time>
      </trkpt>
      <trkpt lat="45.03853" lon="5.8973">
        <ele>2395</ele>
        <time>2019-08-04T10:36:13.000Z</time>
      </trkpt>
      <trkpt lat="45.03858" lon="5.89721">
        <ele>2394</ele>
        <time>2019-08-04T10:36:20.000Z</time>
      </trkpt>
      <trkpt lat="45.03861" lon="5.89715">
        <ele>2394</ele>
        <time>2019-08-04T10:36:24.000Z</time>
      </trkpt>
      <trkpt lat="45.03866" lon="5.89708">
        <ele>2393</ele>
        <time>2019-08-04T10:36:30.000Z</time>
      </trkpt>
      <trkpt lat="45.03871" lon="5.89702">
        <ele>2392</ele>
        <time>2019-08-04T10:36:34.000Z</time>
      </trkpt>
      <trkpt lat="45.03874" lon="5.8969">
        <ele>2391</ele>
        <time>2019-08-04T10:36:42.000Z</time>
      </trkpt>
      <trkpt lat="45.03878" lon="5.89681">
        <ele>2392</ele>
        <time>2019-08-04T10:36:49.000Z</time>
      </trkpt>
      <trkpt lat="45.03884" lon="5.89672">
        <ele>2391</ele>
        <time>2019-08-04T10:36:57.000Z</time>
      </trkpt>
      <trkpt lat="45.03886" lon="5.89667">
        <ele>2391</ele>
        <time>2019-08-04T10:37:01.000Z</time>
      </trkpt>
      <trkpt lat="45.03888" lon="5.89655">
        <ele>2391</ele>
        <time>2019-08-04T10:37:07.000Z</time>
      </trkpt>
      <trkpt lat="45.03887" lon="5.89648">
        <ele>2389</ele>
        <time>2019-08-04T10:37:11.000Z</time>
      </trkpt>
      <trkpt lat="45.03886" lon="5.89637">
        <ele>2390</ele>
        <time>2019-08-04T10:37:18.000Z</time>
      </trkpt>
      <trkpt lat="45.03886" lon="5.89626">
        <ele>2389</ele>
        <time>2019-08-04T10:37:24.000Z</time>
      </trkpt>
      <trkpt lat="45.03887" lon="5.89615">
        <ele>2388</ele>
        <time>2019-08-04T10:37:30.000Z</time>
      </trkpt>
      <trkpt lat="45.03889" lon="5.89604">
        <ele>2387</ele>
        <time>2019-08-04T10:37:38.000Z</time>
      </trkpt>
      <trkpt lat="45.03885" lon="5.89595">
        <ele>2385</ele>
        <time>2019-08-04T10:37:46.000Z</time>
      </trkpt>
      <trkpt lat="45.03886" lon="5.89588">
        <ele>2385</ele>
        <time>2019-08-04T10:37:50.000Z</time>
      </trkpt>
      <trkpt lat="45.03889" lon="5.8958">
        <ele>2384</ele>
        <time>2019-08-04T10:37:54.000Z</time>
      </trkpt>
      <trkpt lat="45.0389" lon="5.8957">
        <ele>2383</ele>
        <time>2019-08-04T10:38:01.000Z</time>
      </trkpt>
      <trkpt lat="45.03888" lon="5.89562">
        <ele>2383</ele>
        <time>2019-08-04T10:38:05.000Z</time>
      </trkpt>
      <trkpt lat="45.0389" lon="5.89552">
        <ele>2382</ele>
        <time>2019-08-04T10:38:12.000Z</time>
      </trkpt>
      <trkpt lat="45.03894" lon="5.89543">
        <ele>2380</ele>
        <time>2019-08-04T10:38:20.000Z</time>
      </trkpt>
      <trkpt lat="45.03896" lon="5.89537">
        <ele>2381</ele>
        <time>2019-08-04T10:38:24.000Z</time>
      </trkpt>
      <trkpt lat="45.03898" lon="5.89531">
        <ele>2381</ele>
        <time>2019-08-04T10:38:28.000Z</time>
      </trkpt>
      <trkpt lat="45.03901" lon="5.89518">
        <ele>2380</ele>
        <time>2019-08-04T10:38:36.000Z</time>
      </trkpt>
      <trkpt lat="45.03905" lon="5.89511">
        <ele>2379</ele>
        <time>2019-08-04T10:38:42.000Z</time>
      </trkpt>
      <trkpt lat="45.03906" lon="5.89499">
        <ele>2378</ele>
        <time>2019-08-04T10:38:48.000Z</time>
      </trkpt>
      <trkpt lat="45.03908" lon="5.8949">
        <ele>2377</ele>
        <time>2019-08-04T10:38:52.000Z</time>
      </trkpt>
      <trkpt lat="45.03909" lon="5.89482">
        <ele>2378</ele>
        <time>2019-08-04T10:38:56.000Z</time>
      </trkpt>
      <trkpt lat="45.03913" lon="5.89472">
        <ele>2376</ele>
        <time>2019-08-04T10:39:02.000Z</time>
      </trkpt>
      <trkpt lat="45.03916" lon="5.8946">
        <ele>2374</ele>
        <time>2019-08-04T10:39:09.000Z</time>
      </trkpt>
      <trkpt lat="45.03919" lon="5.8945">
        <ele>2374</ele>
        <time>2019-08-04T10:39:15.000Z</time>
      </trkpt>
      <trkpt lat="45.0392" lon="5.89439">
        <ele>2373</ele>
        <time>2019-08-04T10:39:22.000Z</time>
      </trkpt>
      <trkpt lat="45.03923" lon="5.89432">
        <ele>2371</ele>
        <time>2019-08-04T10:39:30.000Z</time>
      </trkpt>
      <trkpt lat="45.03924" lon="5.89423">
        <ele>2370</ele>
        <time>2019-08-04T10:39:38.000Z</time>
      </trkpt>
      <trkpt lat="45.03926" lon="5.89413">
        <ele>2367</ele>
        <time>2019-08-04T10:39:46.000Z</time>
      </trkpt>
      <trkpt lat="45.03926" lon="5.89404">
        <ele>2366</ele>
        <time>2019-08-04T10:39:53.000Z</time>
      </trkpt>
      <trkpt lat="45.03927" lon="5.89394">
        <ele>2363</ele>
        <time>2019-08-04T10:40:00.000Z</time>
      </trkpt>
      <trkpt lat="45.0393" lon="5.89386">
        <ele>2362</ele>
        <time>2019-08-04T10:40:07.000Z</time>
      </trkpt>
      <trkpt lat="45.0393" lon="5.89376">
        <ele>2358</ele>
        <time>2019-08-04T10:40:14.000Z</time>
      </trkpt>
      <trkpt lat="45.03931" lon="5.89369">
        <ele>2357</ele>
        <time>2019-08-04T10:40:18.000Z</time>
      </trkpt>
      <trkpt lat="45.03934" lon="5.89363">
        <ele>2356</ele>
        <time>2019-08-04T10:40:22.000Z</time>
      </trkpt>
      <trkpt lat="45.03938" lon="5.89355">
        <ele>2354</ele>
        <time>2019-08-04T10:40:29.000Z</time>
      </trkpt>
      <trkpt lat="45.03943" lon="5.89346">
        <ele>2353</ele>
        <time>2019-08-04T10:40:36.000Z</time>
      </trkpt>
      <trkpt lat="45.03945" lon="5.8934">
        <ele>2352</ele>
        <time>2019-08-04T10:40:40.000Z</time>
      </trkpt>
      <trkpt lat="45.03947" lon="5.8933">
        <ele>2350</ele>
        <time>2019-08-04T10:40:44.000Z</time>
      </trkpt>
      <trkpt lat="45.0395" lon="5.89325">
        <ele>2349</ele>
        <time>2019-08-04T10:40:48.000Z</time>
      </trkpt>
      <trkpt lat="45.03953" lon="5.8932">
        <ele>2348</ele>
        <time>2019-08-04T10:40:52.000Z</time>
      </trkpt>
      <trkpt lat="45.03957" lon="5.89314">
        <ele>2347</ele>
        <time>2019-08-04T10:40:58.000Z</time>
      </trkpt>
      <trkpt lat="45.0396" lon="5.89306">
        <ele>2346</ele>
        <time>2019-08-04T10:41:02.000Z</time>
      </trkpt>
      <trkpt lat="45.03963" lon="5.893">
        <ele>2344</ele>
        <time>2019-08-04T10:41:09.000Z</time>
      </trkpt>
      <trkpt lat="45.03961" lon="5.89293">
        <ele>2344</ele>
        <time>2019-08-04T10:41:15.000Z</time>
      </trkpt>
      <trkpt lat="45.03963" lon="5.89281">
        <ele>2342</ele>
        <time>2019-08-04T10:41:22.000Z</time>
      </trkpt>
      <trkpt lat="45.03966" lon="5.89271">
        <ele>2340</ele>
        <time>2019-08-04T10:41:29.000Z</time>
      </trkpt>
      <trkpt lat="45.03968" lon="5.89265">
        <ele>2338</ele>
        <time>2019-08-04T10:41:33.000Z</time>
      </trkpt>
      <trkpt lat="45.03971" lon="5.8926">
        <ele>2337</ele>
        <time>2019-08-04T10:41:37.000Z</time>
      </trkpt>
      <trkpt lat="45.03974" lon="5.89252">
        <ele>2336</ele>
        <time>2019-08-04T10:41:43.000Z</time>
      </trkpt>
      <trkpt lat="45.03977" lon="5.89243">
        <ele>2335</ele>
        <time>2019-08-04T10:41:50.000Z</time>
      </trkpt>
      <trkpt lat="45.03983" lon="5.89236">
        <ele>2333</ele>
        <time>2019-08-04T10:41:57.000Z</time>
      </trkpt>
      <trkpt lat="45.03987" lon="5.89225">
        <ele>2332</ele>
        <time>2019-08-04T10:42:04.000Z</time>
      </trkpt>
      <trkpt lat="45.03993" lon="5.89217">
        <ele>2330</ele>
        <time>2019-08-04T10:42:11.000Z</time>
      </trkpt>
      <trkpt lat="45.03997" lon="5.89212">
        <ele>2329</ele>
        <time>2019-08-04T10:42:15.000Z</time>
      </trkpt>
      <trkpt lat="45.04002" lon="5.89203">
        <ele>2328</ele>
        <time>2019-08-04T10:42:21.000Z</time>
      </trkpt>
      <trkpt lat="45.04006" lon="5.89192">
        <ele>2326</ele>
        <time>2019-08-04T10:42:28.000Z</time>
      </trkpt>
      <trkpt lat="45.04011" lon="5.89184">
        <ele>2323</ele>
        <time>2019-08-04T10:42:36.000Z</time>
      </trkpt>
      <trkpt lat="45.04017" lon="5.89176">
        <ele>2323</ele>
        <time>2019-08-04T10:42:43.000Z</time>
      </trkpt>
      <trkpt lat="45.04021" lon="5.89171">
        <ele>2322</ele>
        <time>2019-08-04T10:42:47.000Z</time>
      </trkpt>
      <trkpt lat="45.04026" lon="5.89164">
        <ele>2321</ele>
        <time>2019-08-04T10:42:54.000Z</time>
      </trkpt>
      <trkpt lat="45.04034" lon="5.89157">
        <ele>2316</ele>
        <time>2019-08-04T10:43:20.000Z</time>
      </trkpt>
      <trkpt lat="45.04039" lon="5.8915">
        <ele>2317</ele>
        <time>2019-08-04T10:43:26.000Z</time>
      </trkpt>
      <trkpt lat="45.04043" lon="5.89145">
        <ele>2316</ele>
        <time>2019-08-04T10:43:30.000Z</time>
      </trkpt>
      <trkpt lat="45.04048" lon="5.89137">
        <ele>2315</ele>
        <time>2019-08-04T10:43:37.000Z</time>
      </trkpt>
      <trkpt lat="45.04054" lon="5.89127">
        <ele>2313</ele>
        <time>2019-08-04T10:43:44.000Z</time>
      </trkpt>
      <trkpt lat="45.04055" lon="5.89121">
        <ele>2313</ele>
        <time>2019-08-04T10:43:47.000Z</time>
      </trkpt>
      <trkpt lat="45.04058" lon="5.89111">
        <ele>2313</ele>
        <time>2019-08-04T10:43:54.000Z</time>
      </trkpt>
      <trkpt lat="45.04059" lon="5.89104">
        <ele>2311</ele>
        <time>2019-08-04T10:43:58.000Z</time>
      </trkpt>
      <trkpt lat="45.04061" lon="5.89094">
        <ele>2311</ele>
        <time>2019-08-04T10:44:05.000Z</time>
      </trkpt>
      <trkpt lat="45.04063" lon="5.89087">
        <ele>2310</ele>
        <time>2019-08-04T10:44:09.000Z</time>
      </trkpt>
      <trkpt lat="45.04065" lon="5.8908">
        <ele>2308</ele>
        <time>2019-08-04T10:44:13.000Z</time>
      </trkpt>
      <trkpt lat="45.04067" lon="5.89074">
        <ele>2307</ele>
        <time>2019-08-04T10:44:16.000Z</time>
      </trkpt>
      <trkpt lat="45.04069" lon="5.89067">
        <ele>2307</ele>
        <time>2019-08-04T10:44:20.000Z</time>
      </trkpt>
      <trkpt lat="45.04071" lon="5.89053">
        <ele>2307</ele>
        <time>2019-08-04T10:44:27.000Z</time>
      </trkpt>
      <trkpt lat="45.04072" lon="5.89046">
        <ele>2307</ele>
        <time>2019-08-04T10:44:31.000Z</time>
      </trkpt>
      <trkpt lat="45.04073" lon="5.89039">
        <ele>2306</ele>
        <time>2019-08-04T10:44:35.000Z</time>
      </trkpt>
      <trkpt lat="45.04074" lon="5.89027">
        <ele>2305</ele>
        <time>2019-08-04T10:44:42.000Z</time>
      </trkpt>
      <trkpt lat="45.04074" lon="5.8902">
        <ele>2304</ele>
        <time>2019-08-04T10:44:46.000Z</time>
      </trkpt>
      <trkpt lat="45.04075" lon="5.89012">
        <ele>2303</ele>
        <time>2019-08-04T10:44:50.000Z</time>
      </trkpt>
      <trkpt lat="45.04076" lon="5.89006">
        <ele>2302</ele>
        <time>2019-08-04T10:44:54.000Z</time>
      </trkpt>
      <trkpt lat="45.04078" lon="5.88996">
        <ele>2301</ele>
        <time>2019-08-04T10:44:58.000Z</time>
      </trkpt>
      <trkpt lat="45.0408" lon="5.88985">
        <ele>2300</ele>
        <time>2019-08-04T10:45:04.000Z</time>
      </trkpt>
      <trkpt lat="45.0408" lon="5.88974">
        <ele>2299</ele>
        <time>2019-08-04T10:45:10.000Z</time>
      </trkpt>
      <trkpt lat="45.04081" lon="5.88966">
        <ele>2299</ele>
        <time>2019-08-04T10:45:14.000Z</time>
      </trkpt>
      <trkpt lat="45.04083" lon="5.88958">
        <ele>2299</ele>
        <time>2019-08-04T10:45:18.000Z</time>
      </trkpt>
      <trkpt lat="45.04084" lon="5.88945">
        <ele>2298</ele>
        <time>2019-08-04T10:45:26.000Z</time>
      </trkpt>
      <trkpt lat="45.04083" lon="5.88931">
        <ele>2298</ele>
        <time>2019-08-04T10:45:34.000Z</time>
      </trkpt>
      <trkpt lat="45.04083" lon="5.88924">
        <ele>2298</ele>
        <time>2019-08-04T10:45:37.000Z</time>
      </trkpt>
      <trkpt lat="45.04082" lon="5.88915">
        <ele>2298</ele>
        <time>2019-08-04T10:45:41.000Z</time>
      </trkpt>
      <trkpt lat="45.04083" lon="5.88908">
        <ele>2298</ele>
        <time>2019-08-04T10:45:45.000Z</time>
      </trkpt>
      <trkpt lat="45.04083" lon="5.88901">
        <ele>2298</ele>
        <time>2019-08-04T10:46:17.000Z</time>
      </trkpt>
      <trkpt lat="45.04083" lon="5.88895">
        <ele>2297</ele>
        <time>2019-08-04T10:46:21.000Z</time>
      </trkpt>
      <trkpt lat="45.04083" lon="5.88888">
        <ele>2297</ele>
        <time>2019-08-04T10:46:25.000Z</time>
      </trkpt>
      <trkpt lat="45.04082" lon="5.88881">
        <ele>2295</ele>
        <time>2019-08-04T10:46:29.000Z</time>
      </trkpt>
      <trkpt lat="45.04082" lon="5.88874">
        <ele>2295</ele>
        <time>2019-08-04T10:46:33.000Z</time>
      </trkpt>
      <trkpt lat="45.04081" lon="5.88866">
        <ele>2294</ele>
        <time>2019-08-04T10:46:37.000Z</time>
      </trkpt>
      <trkpt lat="45.0408" lon="5.88859">
        <ele>2294</ele>
        <time>2019-08-04T10:46:41.000Z</time>
      </trkpt>
      <trkpt lat="45.04077" lon="5.88845">
        <ele>2292</ele>
        <time>2019-08-04T10:46:48.000Z</time>
      </trkpt>
      <trkpt lat="45.04077" lon="5.88838">
        <ele>2292</ele>
        <time>2019-08-04T10:46:51.000Z</time>
      </trkpt>
      <trkpt lat="45.04075" lon="5.88824">
        <ele>2290</ele>
        <time>2019-08-04T10:46:58.000Z</time>
      </trkpt>
      <trkpt lat="45.04071" lon="5.88812">
        <ele>2289</ele>
        <time>2019-08-04T10:47:05.000Z</time>
      </trkpt>
      <trkpt lat="45.04068" lon="5.88801">
        <ele>2289</ele>
        <time>2019-08-04T10:47:12.000Z</time>
      </trkpt>
      <trkpt lat="45.04066" lon="5.88794">
        <ele>2287</ele>
        <time>2019-08-04T10:47:16.000Z</time>
      </trkpt>
      <trkpt lat="45.04063" lon="5.88788">
        <ele>2287</ele>
        <time>2019-08-04T10:47:20.000Z</time>
      </trkpt>
      <trkpt lat="45.04056" lon="5.88779">
        <ele>2285</ele>
        <time>2019-08-04T10:47:27.000Z</time>
      </trkpt>
      <trkpt lat="45.04054" lon="5.88773">
        <ele>2284</ele>
        <time>2019-08-04T10:47:30.000Z</time>
      </trkpt>
      <trkpt lat="45.04047" lon="5.88763">
        <ele>2283</ele>
        <time>2019-08-04T10:47:37.000Z</time>
      </trkpt>
      <trkpt lat="45.04044" lon="5.88757">
        <ele>2282</ele>
        <time>2019-08-04T10:47:41.000Z</time>
      </trkpt>
      <trkpt lat="45.04038" lon="5.8875">
        <ele>2281</ele>
        <time>2019-08-04T10:47:48.000Z</time>
      </trkpt>
      <trkpt lat="45.04033" lon="5.88745">
        <ele>2281</ele>
        <time>2019-08-04T10:47:52.000Z</time>
      </trkpt>
      <trkpt lat="45.04029" lon="5.88735">
        <ele>2280</ele>
        <time>2019-08-04T10:47:59.000Z</time>
      </trkpt>
      <trkpt lat="45.04026" lon="5.88729">
        <ele>2280</ele>
        <time>2019-08-04T10:48:02.000Z</time>
      </trkpt>
      <trkpt lat="45.04023" lon="5.88724">
        <ele>2279</ele>
        <time>2019-08-04T10:48:05.000Z</time>
      </trkpt>
      <trkpt lat="45.04016" lon="5.88716">
        <ele>2277</ele>
        <time>2019-08-04T10:48:12.000Z</time>
      </trkpt>
      <trkpt lat="45.04012" lon="5.88711">
        <ele>2276</ele>
        <time>2019-08-04T10:48:16.000Z</time>
      </trkpt>
      <trkpt lat="45.04007" lon="5.88706">
        <ele>2275</ele>
        <time>2019-08-04T10:48:20.000Z</time>
      </trkpt>
      <trkpt lat="45.04003" lon="5.88701">
        <ele>2274</ele>
        <time>2019-08-04T10:48:24.000Z</time>
      </trkpt>
      <trkpt lat="45.03998" lon="5.88695">
        <ele>2273</ele>
        <time>2019-08-04T10:48:28.000Z</time>
      </trkpt>
      <trkpt lat="45.03994" lon="5.8869">
        <ele>2271</ele>
        <time>2019-08-04T10:48:32.000Z</time>
      </trkpt>
      <trkpt lat="45.03991" lon="5.88683">
        <ele>2271</ele>
        <time>2019-08-04T10:48:36.000Z</time>
      </trkpt>
      <trkpt lat="45.03988" lon="5.88679">
        <ele>2269</ele>
        <time>2019-08-04T10:48:40.000Z</time>
      </trkpt>
      <trkpt lat="45.03982" lon="5.88672">
        <ele>2268</ele>
        <time>2019-08-04T10:48:46.000Z</time>
      </trkpt>
      <trkpt lat="45.03979" lon="5.88666">
        <ele>2268</ele>
        <time>2019-08-04T10:48:50.000Z</time>
      </trkpt>
      <trkpt lat="45.03973" lon="5.88656">
        <ele>2266</ele>
        <time>2019-08-04T10:48:57.000Z</time>
      </trkpt>
      <trkpt lat="45.03969" lon="5.88645">
        <ele>2265</ele>
        <time>2019-08-04T10:49:04.000Z</time>
      </trkpt>
      <trkpt lat="45.03965" lon="5.88635">
        <ele>2263</ele>
        <time>2019-08-04T10:49:11.000Z</time>
      </trkpt>
      <trkpt lat="45.03959" lon="5.88627">
        <ele>2261</ele>
        <time>2019-08-04T10:49:17.000Z</time>
      </trkpt>
      <trkpt lat="45.03955" lon="5.88622">
        <ele>2261</ele>
        <time>2019-08-04T10:49:23.000Z</time>
      </trkpt>
      <trkpt lat="45.03952" lon="5.88615">
        <ele>2256</ele>
        <time>2019-08-04T10:50:02.000Z</time>
      </trkpt>
      <trkpt lat="45.03948" lon="5.88609">
        <ele>2254</ele>
        <time>2019-08-04T10:50:06.000Z</time>
      </trkpt>
      <trkpt lat="45.03945" lon="5.88603">
        <ele>2253</ele>
        <time>2019-08-04T10:50:10.000Z</time>
      </trkpt>
      <trkpt lat="45.03942" lon="5.88598">
        <ele>2252</ele>
        <time>2019-08-04T10:50:14.000Z</time>
      </trkpt>
      <trkpt lat="45.03936" lon="5.88587">
        <ele>2251</ele>
        <time>2019-08-04T10:50:21.000Z</time>
      </trkpt>
      <trkpt lat="45.03932" lon="5.88583">
        <ele>2250</ele>
        <time>2019-08-04T10:50:24.000Z</time>
      </trkpt>
      <trkpt lat="45.03928" lon="5.88578">
        <ele>2249</ele>
        <time>2019-08-04T10:50:28.000Z</time>
      </trkpt>
      <trkpt lat="45.03924" lon="5.88573">
        <ele>2247</ele>
        <time>2019-08-04T10:50:32.000Z</time>
      </trkpt>
      <trkpt lat="45.03919" lon="5.88564">
        <ele>2246</ele>
        <time>2019-08-04T10:50:38.000Z</time>
      </trkpt>
      <trkpt lat="45.03916" lon="5.88559">
        <ele>2246</ele>
        <time>2019-08-04T10:50:42.000Z</time>
      </trkpt>
      <trkpt lat="45.03912" lon="5.88555">
        <ele>2245</ele>
        <time>2019-08-04T10:50:45.000Z</time>
      </trkpt>
      <trkpt lat="45.03909" lon="5.88548">
        <ele>2244</ele>
        <time>2019-08-04T10:50:49.000Z</time>
      </trkpt>
      <trkpt lat="45.03907" lon="5.88543">
        <ele>2243</ele>
        <time>2019-08-04T10:50:52.000Z</time>
      </trkpt>
      <trkpt lat="45.03902" lon="5.88536">
        <ele>2242</ele>
        <time>2019-08-04T10:50:56.000Z</time>
      </trkpt>
      <trkpt lat="45.03899" lon="5.8853">
        <ele>2241</ele>
        <time>2019-08-04T10:51:00.000Z</time>
      </trkpt>
      <trkpt lat="45.03894" lon="5.88521">
        <ele>2239</ele>
        <time>2019-08-04T10:51:06.000Z</time>
      </trkpt>
      <trkpt lat="45.0389" lon="5.88514">
        <ele>2238</ele>
        <time>2019-08-04T10:51:10.000Z</time>
      </trkpt>
      <trkpt lat="45.03884" lon="5.88505">
        <ele>2236</ele>
        <time>2019-08-04T10:51:17.000Z</time>
      </trkpt>
      <trkpt lat="45.0388" lon="5.88498">
        <ele>2234</ele>
        <time>2019-08-04T10:51:24.000Z</time>
      </trkpt>
      <trkpt lat="45.03876" lon="5.8849">
        <ele>2230</ele>
        <time>2019-08-04T10:51:38.000Z</time>
      </trkpt>
      <trkpt lat="45.03871" lon="5.8848">
        <ele>2229</ele>
        <time>2019-08-04T10:51:44.000Z</time>
      </trkpt>
      <trkpt lat="45.03866" lon="5.88472">
        <ele>2228</ele>
        <time>2019-08-04T10:51:50.000Z</time>
      </trkpt>
      <trkpt lat="45.03861" lon="5.88462">
        <ele>2226</ele>
        <time>2019-08-04T10:51:57.000Z</time>
      </trkpt>
      <trkpt lat="45.03858" lon="5.88457">
        <ele>2224</ele>
        <time>2019-08-04T10:52:01.000Z</time>
      </trkpt>
      <trkpt lat="45.03852" lon="5.8845">
        <ele>2222</ele>
        <time>2019-08-04T10:52:08.000Z</time>
      </trkpt>
      <trkpt lat="45.03848" lon="5.88445">
        <ele>2220</ele>
        <time>2019-08-04T10:52:12.000Z</time>
      </trkpt>
      <trkpt lat="45.03843" lon="5.88438">
        <ele>2219</ele>
        <time>2019-08-04T10:52:16.000Z</time>
      </trkpt>
      <trkpt lat="45.0384" lon="5.88433">
        <ele>2218</ele>
        <time>2019-08-04T10:52:20.000Z</time>
      </trkpt>
      <trkpt lat="45.03835" lon="5.88425">
        <ele>2216</ele>
        <time>2019-08-04T10:52:28.000Z</time>
      </trkpt>
      <trkpt lat="45.03831" lon="5.88417">
        <ele>2215</ele>
        <time>2019-08-04T10:52:35.000Z</time>
      </trkpt>
      <trkpt lat="45.03827" lon="5.88407">
        <ele>2213</ele>
        <time>2019-08-04T10:52:39.000Z</time>
      </trkpt>
      <trkpt lat="45.03825" lon="5.88401">
        <ele>2213</ele>
        <time>2019-08-04T10:52:42.000Z</time>
      </trkpt>
      <trkpt lat="45.0382" lon="5.88393">
        <ele>2211</ele>
        <time>2019-08-04T10:52:46.000Z</time>
      </trkpt>
      <trkpt lat="45.03817" lon="5.88381">
        <ele>2210</ele>
        <time>2019-08-04T10:52:52.000Z</time>
      </trkpt>
      <trkpt lat="45.03815" lon="5.88373">
        <ele>2209</ele>
        <time>2019-08-04T10:52:56.000Z</time>
      </trkpt>
      <trkpt lat="45.03812" lon="5.88363">
        <ele>2206</ele>
        <time>2019-08-04T10:53:03.000Z</time>
      </trkpt>
      <trkpt lat="45.03808" lon="5.88356">
        <ele>2204</ele>
        <time>2019-08-04T10:53:07.000Z</time>
      </trkpt>
      <trkpt lat="45.03806" lon="5.88349">
        <ele>2204</ele>
        <time>2019-08-04T10:53:11.000Z</time>
      </trkpt>
      <trkpt lat="45.03804" lon="5.88342">
        <ele>2202</ele>
        <time>2019-08-04T10:53:15.000Z</time>
      </trkpt>
      <trkpt lat="45.03799" lon="5.88332">
        <ele>2201</ele>
        <time>2019-08-04T10:53:21.000Z</time>
      </trkpt>
      <trkpt lat="45.03796" lon="5.88323">
        <ele>2200</ele>
        <time>2019-08-04T10:53:28.000Z</time>
      </trkpt>
      <trkpt lat="45.03793" lon="5.88312">
        <ele>2200</ele>
        <time>2019-08-04T10:53:34.000Z</time>
      </trkpt>
      <trkpt lat="45.03791" lon="5.88305">
        <ele>2200</ele>
        <time>2019-08-04T10:53:38.000Z</time>
      </trkpt>
      <trkpt lat="45.0379" lon="5.88297">
        <ele>2199</ele>
        <time>2019-08-04T10:53:42.000Z</time>
      </trkpt>
      <trkpt lat="45.03791" lon="5.88284">
        <ele>2198</ele>
        <time>2019-08-04T10:53:49.000Z</time>
      </trkpt>
      <trkpt lat="45.0379" lon="5.88277">
        <ele>2197</ele>
        <time>2019-08-04T10:53:53.000Z</time>
      </trkpt>
      <trkpt lat="45.03791" lon="5.88267">
        <ele>2196</ele>
        <time>2019-08-04T10:53:59.000Z</time>
      </trkpt>
      <trkpt lat="45.03795" lon="5.88254">
        <ele>2196</ele>
        <time>2019-08-04T10:54:06.000Z</time>
      </trkpt>
      <trkpt lat="45.03796" lon="5.88246">
        <ele>2196</ele>
        <time>2019-08-04T10:54:10.000Z</time>
      </trkpt>
      <trkpt lat="45.03797" lon="5.88238">
        <ele>2194</ele>
        <time>2019-08-04T10:54:14.000Z</time>
      </trkpt>
      <trkpt lat="45.03798" lon="5.88231">
        <ele>2194</ele>
        <time>2019-08-04T10:54:17.000Z</time>
      </trkpt>
      <trkpt lat="45.03799" lon="5.88224">
        <ele>2193</ele>
        <time>2019-08-04T10:54:21.000Z</time>
      </trkpt>
      <trkpt lat="45.03801" lon="5.88212">
        <ele>2193</ele>
        <time>2019-08-04T10:54:27.000Z</time>
      </trkpt>
      <trkpt lat="45.03801" lon="5.88204">
        <ele>2191</ele>
        <time>2019-08-04T10:54:31.000Z</time>
      </trkpt>
      <trkpt lat="45.03799" lon="5.88192">
        <ele>2190</ele>
        <time>2019-08-04T10:54:38.000Z</time>
      </trkpt>
      <trkpt lat="45.03798" lon="5.88185">
        <ele>2189</ele>
        <time>2019-08-04T10:54:42.000Z</time>
      </trkpt>
      <trkpt lat="45.03798" lon="5.88176">
        <ele>2189</ele>
        <time>2019-08-04T10:55:07.000Z</time>
      </trkpt>
      <trkpt lat="45.03796" lon="5.88162">
        <ele>2187</ele>
        <time>2019-08-04T10:55:15.000Z</time>
      </trkpt>
      <trkpt lat="45.03797" lon="5.88149">
        <ele>2186</ele>
        <time>2019-08-04T10:55:22.000Z</time>
      </trkpt>
      <trkpt lat="45.03799" lon="5.88137">
        <ele>2183</ele>
        <time>2019-08-04T10:55:29.000Z</time>
      </trkpt>
      <trkpt lat="45.03799" lon="5.88128">
        <ele>2182</ele>
        <time>2019-08-04T10:55:33.000Z</time>
      </trkpt>
      <trkpt lat="45.038" lon="5.88121">
        <ele>2182</ele>
        <time>2019-08-04T10:55:36.000Z</time>
      </trkpt>
      <trkpt lat="45.038" lon="5.88113">
        <ele>2180</ele>
        <time>2019-08-04T10:55:40.000Z</time>
      </trkpt>
      <trkpt lat="45.038" lon="5.88105">
        <ele>2177</ele>
        <time>2019-08-04T10:55:47.000Z</time>
      </trkpt>
      <trkpt lat="45.038" lon="5.88098">
        <ele>2178</ele>
        <time>2019-08-04T10:56:41.000Z</time>
      </trkpt>
      <trkpt lat="45.038" lon="5.88089">
        <ele>2177</ele>
        <time>2019-08-04T10:56:48.000Z</time>
      </trkpt>
      <trkpt lat="45.03801" lon="5.88077">
        <ele>2176</ele>
        <time>2019-08-04T10:56:56.000Z</time>
      </trkpt>
      <trkpt lat="45.03801" lon="5.88065">
        <ele>2173</ele>
        <time>2019-08-04T10:57:03.000Z</time>
      </trkpt>
      <trkpt lat="45.03801" lon="5.88053">
        <ele>2171</ele>
        <time>2019-08-04T10:57:09.000Z</time>
      </trkpt>
      <trkpt lat="45.038" lon="5.88042">
        <ele>2170</ele>
        <time>2019-08-04T10:57:15.000Z</time>
      </trkpt>
      <trkpt lat="45.038" lon="5.88028">
        <ele>2168</ele>
        <time>2019-08-04T10:57:23.000Z</time>
      </trkpt>
      <trkpt lat="45.038" lon="5.88016">
        <ele>2164</ele>
        <time>2019-08-04T10:57:30.000Z</time>
      </trkpt>
      <trkpt lat="45.038" lon="5.88008">
        <ele>2163</ele>
        <time>2019-08-04T10:57:34.000Z</time>
      </trkpt>
      <trkpt lat="45.03799" lon="5.88">
        <ele>2160</ele>
        <time>2019-08-04T10:57:38.000Z</time>
      </trkpt>
      <trkpt lat="45.03799" lon="5.87993">
        <ele>2159</ele>
        <time>2019-08-04T10:57:42.000Z</time>
      </trkpt>
      <trkpt lat="45.03799" lon="5.87979">
        <ele>2158</ele>
        <time>2019-08-04T10:57:49.000Z</time>
      </trkpt>
      <trkpt lat="45.03799" lon="5.87967">
        <ele>2156</ele>
        <time>2019-08-04T10:57:56.000Z</time>
      </trkpt>
      <trkpt lat="45.03798" lon="5.8796">
        <ele>2155</ele>
        <time>2019-08-04T10:58:00.000Z</time>
      </trkpt>
      <trkpt lat="45.038" lon="5.87947">
        <ele>2152</ele>
        <time>2019-08-04T10:58:08.000Z</time>
      </trkpt>
      <trkpt lat="45.03799" lon="5.8794">
        <ele>2151</ele>
        <time>2019-08-04T10:58:12.000Z</time>
      </trkpt>
      <trkpt lat="45.03799" lon="5.87928">
        <ele>2147</ele>
        <time>2019-08-04T10:58:19.000Z</time>
      </trkpt>
      <trkpt lat="45.03799" lon="5.87916">
        <ele>2146</ele>
        <time>2019-08-04T10:58:25.000Z</time>
      </trkpt>
      <trkpt lat="45.038" lon="5.87909">
        <ele>2144</ele>
        <time>2019-08-04T10:58:28.000Z</time>
      </trkpt>
      <trkpt lat="45.03799" lon="5.87902">
        <ele>2143</ele>
        <time>2019-08-04T10:58:32.000Z</time>
      </trkpt>
      <trkpt lat="45.03796" lon="5.87896">
        <ele>2141</ele>
        <time>2019-08-04T10:58:36.000Z</time>
      </trkpt>
      <trkpt lat="45.03793" lon="5.87891">
        <ele>2139</ele>
        <time>2019-08-04T10:58:46.000Z</time>
      </trkpt>
      <trkpt lat="45.03794" lon="5.87881">
        <ele>2137</ele>
        <time>2019-08-04T10:59:17.000Z</time>
      </trkpt>
      <trkpt lat="45.03792" lon="5.87869">
        <ele>2135</ele>
        <time>2019-08-04T10:59:25.000Z</time>
      </trkpt>
      <trkpt lat="45.03793" lon="5.8786">
        <ele>2133</ele>
        <time>2019-08-04T10:59:29.000Z</time>
      </trkpt>
      <trkpt lat="45.03797" lon="5.8785">
        <ele>2131</ele>
        <time>2019-08-04T10:59:35.000Z</time>
      </trkpt>
      <trkpt lat="45.03799" lon="5.87842">
        <ele>2130</ele>
        <time>2019-08-04T10:59:41.000Z</time>
      </trkpt>
      <trkpt lat="45.03803" lon="5.87833">
        <ele>2128</ele>
        <time>2019-08-04T10:59:48.000Z</time>
      </trkpt>
      <trkpt lat="45.03804" lon="5.87826">
        <ele>2127</ele>
        <time>2019-08-04T10:59:52.000Z</time>
      </trkpt>
      <trkpt lat="45.03806" lon="5.87817">
        <ele>2125</ele>
        <time>2019-08-04T10:59:59.000Z</time>
      </trkpt>
      <trkpt lat="45.03811" lon="5.87809">
        <ele>2122</ele>
        <time>2019-08-04T11:00:06.000Z</time>
      </trkpt>
      <trkpt lat="45.03814" lon="5.87804">
        <ele>2120</ele>
        <time>2019-08-04T11:00:10.000Z</time>
      </trkpt>
      <trkpt lat="45.03818" lon="5.87799">
        <ele>2119</ele>
        <time>2019-08-04T11:00:14.000Z</time>
      </trkpt>
      <trkpt lat="45.03823" lon="5.8779">
        <ele>2117</ele>
        <time>2019-08-04T11:00:20.000Z</time>
      </trkpt>
      <trkpt lat="45.03829" lon="5.87781">
        <ele>2115</ele>
        <time>2019-08-04T11:00:27.000Z</time>
      </trkpt>
      <trkpt lat="45.03831" lon="5.87775">
        <ele>2114</ele>
        <time>2019-08-04T11:00:38.000Z</time>
      </trkpt>
      <trkpt lat="45.03837" lon="5.87772">
        <ele>2111</ele>
        <time>2019-08-04T11:00:54.000Z</time>
      </trkpt>
      <trkpt lat="45.03841" lon="5.87763">
        <ele>2109</ele>
        <time>2019-08-04T11:01:02.000Z</time>
      </trkpt>
      <trkpt lat="45.03846" lon="5.87754">
        <ele>2107</ele>
        <time>2019-08-04T11:01:10.000Z</time>
      </trkpt>
      <trkpt lat="45.03848" lon="5.87746">
        <ele>2105</ele>
        <time>2019-08-04T11:01:18.000Z</time>
      </trkpt>
      <trkpt lat="45.03847" lon="5.87737">
        <ele>2101</ele>
        <time>2019-08-04T11:01:39.000Z</time>
      </trkpt>
      <trkpt lat="45.03846" lon="5.87727">
        <ele>2097</ele>
        <time>2019-08-04T11:01:46.000Z</time>
      </trkpt>
      <trkpt lat="45.03845" lon="5.87717">
        <ele>2095</ele>
        <time>2019-08-04T11:01:53.000Z</time>
      </trkpt>
      <trkpt lat="45.03841" lon="5.8771">
        <ele>2093</ele>
        <time>2019-08-04T11:02:00.000Z</time>
      </trkpt>
      <trkpt lat="45.03845" lon="5.87702">
        <ele>2090</ele>
        <time>2019-08-04T11:02:07.000Z</time>
      </trkpt>
      <trkpt lat="45.03849" lon="5.87695">
        <ele>2089</ele>
        <time>2019-08-04T11:02:14.000Z</time>
      </trkpt>
      <trkpt lat="45.0385" lon="5.87685">
        <ele>2087</ele>
        <time>2019-08-04T11:02:24.000Z</time>
      </trkpt>
      <trkpt lat="45.03847" lon="5.87677">
        <ele>2084</ele>
        <time>2019-08-04T11:02:32.000Z</time>
      </trkpt>
      <trkpt lat="45.0384" lon="5.87673">
        <ele>2080</ele>
        <time>2019-08-04T11:02:39.000Z</time>
      </trkpt>
      <trkpt lat="45.03842" lon="5.87667">
        <ele>2079</ele>
        <time>2019-08-04T11:02:45.000Z</time>
      </trkpt>
      <trkpt lat="45.03846" lon="5.87664">
        <ele>2077</ele>
        <time>2019-08-04T11:02:49.000Z</time>
      </trkpt>
      <trkpt lat="45.03849" lon="5.87657">
        <ele>2074</ele>
        <time>2019-08-04T11:02:56.000Z</time>
      </trkpt>
      <trkpt lat="45.03849" lon="5.87647">
        <ele>2072</ele>
        <time>2019-08-04T11:03:03.000Z</time>
      </trkpt>
      <trkpt lat="45.0385" lon="5.87638">
        <ele>2070</ele>
        <time>2019-08-04T11:03:10.000Z</time>
      </trkpt>
      <trkpt lat="45.03853" lon="5.8763">
        <ele>2067</ele>
        <time>2019-08-04T11:03:18.000Z</time>
      </trkpt>
      <trkpt lat="45.03854" lon="5.87621">
        <ele>2065</ele>
        <time>2019-08-04T11:03:25.000Z</time>
      </trkpt>
      <trkpt lat="45.03851" lon="5.87613">
        <ele>2063</ele>
        <time>2019-08-04T11:03:31.000Z</time>
      </trkpt>
      <trkpt lat="45.03854" lon="5.87603">
        <ele>2059</ele>
        <time>2019-08-04T11:03:38.000Z</time>
      </trkpt>
      <trkpt lat="45.03855" lon="5.87594">
        <ele>2057</ele>
        <time>2019-08-04T11:03:44.000Z</time>
      </trkpt>
      <trkpt lat="45.03858" lon="5.87583">
        <ele>2054</ele>
        <time>2019-08-04T11:03:52.000Z</time>
      </trkpt>
      <trkpt lat="45.03861" lon="5.87573">
        <ele>2052</ele>
        <time>2019-08-04T11:03:59.000Z</time>
      </trkpt>
      <trkpt lat="45.03866" lon="5.87565">
        <ele>2050</ele>
        <time>2019-08-04T11:04:19.000Z</time>
      </trkpt>
      <trkpt lat="45.03872" lon="5.87559">
        <ele>2048</ele>
        <time>2019-08-04T11:04:26.000Z</time>
      </trkpt>
      <trkpt lat="45.03865" lon="5.87554">
        <ele>2047</ele>
        <time>2019-08-04T11:04:32.000Z</time>
      </trkpt>
      <trkpt lat="45.0386" lon="5.87553">
        <ele>2046</ele>
        <time>2019-08-04T11:04:39.000Z</time>
      </trkpt>
      <trkpt lat="45.03859" lon="5.87543">
        <ele>2045</ele>
        <time>2019-08-04T11:04:45.000Z</time>
      </trkpt>
      <trkpt lat="45.03862" lon="5.87537">
        <ele>2043</ele>
        <time>2019-08-04T11:04:49.000Z</time>
      </trkpt>
      <trkpt lat="45.03866" lon="5.87533">
        <ele>2042</ele>
        <time>2019-08-04T11:04:53.000Z</time>
      </trkpt>
      <trkpt lat="45.03875" lon="5.87529">
        <ele>2039</ele>
        <time>2019-08-04T11:05:00.000Z</time>
      </trkpt>
      <trkpt lat="45.03875" lon="5.8752">
        <ele>2036</ele>
        <time>2019-08-04T11:05:09.000Z</time>
      </trkpt>
      <trkpt lat="45.0388" lon="5.87517">
        <ele>2034</ele>
        <time>2019-08-04T11:05:16.000Z</time>
      </trkpt>
      <trkpt lat="45.03886" lon="5.87511">
        <ele>2032</ele>
        <time>2019-08-04T11:05:23.000Z</time>
      </trkpt>
      <trkpt lat="45.03894" lon="5.8751">
        <ele>2028</ele>
        <time>2019-08-04T11:05:30.000Z</time>
      </trkpt>
      <trkpt lat="45.03901" lon="5.87509">
        <ele>2026</ele>
        <time>2019-08-04T11:05:37.000Z</time>
      </trkpt>
      <trkpt lat="45.03908" lon="5.87509">
        <ele>2024</ele>
        <time>2019-08-04T11:05:44.000Z</time>
      </trkpt>
      <trkpt lat="45.03914" lon="5.8751">
        <ele>2022</ele>
        <time>2019-08-04T11:05:51.000Z</time>
      </trkpt>
      <trkpt lat="45.03921" lon="5.87511">
        <ele>2020</ele>
        <time>2019-08-04T11:05:58.000Z</time>
      </trkpt>
      <trkpt lat="45.03927" lon="5.87508">
        <ele>2017</ele>
        <time>2019-08-04T11:06:05.000Z</time>
      </trkpt>
      <trkpt lat="45.03934" lon="5.87505">
        <ele>2014</ele>
        <time>2019-08-04T11:06:12.000Z</time>
      </trkpt>
      <trkpt lat="45.03942" lon="5.87507">
        <ele>2012</ele>
        <time>2019-08-04T11:06:20.000Z</time>
      </trkpt>
      <trkpt lat="45.03951" lon="5.8751">
        <ele>2010</ele>
        <time>2019-08-04T11:06:28.000Z</time>
      </trkpt>
      <trkpt lat="45.03957" lon="5.87513">
        <ele>2008</ele>
        <time>2019-08-04T11:06:34.000Z</time>
      </trkpt>
      <trkpt lat="45.03965" lon="5.87517">
        <ele>2005</ele>
        <time>2019-08-04T11:06:41.000Z</time>
      </trkpt>
      <trkpt lat="45.0397" lon="5.87518">
        <ele>2003</ele>
        <time>2019-08-04T11:06:45.000Z</time>
      </trkpt>
      <trkpt lat="45.03978" lon="5.87522">
        <ele>2001</ele>
        <time>2019-08-04T11:06:52.000Z</time>
      </trkpt>
      <trkpt lat="45.03985" lon="5.87525">
        <ele>2000</ele>
        <time>2019-08-04T11:06:56.000Z</time>
      </trkpt>
      <trkpt lat="45.03991" lon="5.87529">
        <ele>1999</ele>
        <time>2019-08-04T11:07:00.000Z</time>
      </trkpt>
      <trkpt lat="45.03999" lon="5.87532">
        <ele>1995</ele>
        <time>2019-08-04T11:07:06.000Z</time>
      </trkpt>
      <trkpt lat="45.04004" lon="5.87533">
        <ele>1991</ele>
        <time>2019-08-04T11:07:43.000Z</time>
      </trkpt>
      <trkpt lat="45.04011" lon="5.87529">
        <ele>1988</ele>
        <time>2019-08-04T11:08:27.000Z</time>
      </trkpt>
      <trkpt lat="45.04016" lon="5.87522">
        <ele>1987</ele>
        <time>2019-08-04T11:08:33.000Z</time>
      </trkpt>
      <trkpt lat="45.04022" lon="5.87514">
        <ele>1985</ele>
        <time>2019-08-04T11:08:52.000Z</time>
      </trkpt>
      <trkpt lat="45.04025" lon="5.87506">
        <ele>1983</ele>
        <time>2019-08-04T11:08:58.000Z</time>
      </trkpt>
      <trkpt lat="45.04027" lon="5.87499">
        <ele>1983</ele>
        <time>2019-08-04T11:09:02.000Z</time>
      </trkpt>
      <trkpt lat="45.04029" lon="5.87493">
        <ele>1983</ele>
        <time>2019-08-04T11:09:06.000Z</time>
      </trkpt>
      <trkpt lat="45.04032" lon="5.87487">
        <ele>1982</ele>
        <time>2019-08-04T11:09:10.000Z</time>
      </trkpt>
      <trkpt lat="45.04035" lon="5.87481">
        <ele>1981</ele>
        <time>2019-08-04T11:09:14.000Z</time>
      </trkpt>
      <trkpt lat="45.04041" lon="5.87474">
        <ele>1980</ele>
        <time>2019-08-04T11:09:20.000Z</time>
      </trkpt>
      <trkpt lat="45.04046" lon="5.87471">
        <ele>1979</ele>
        <time>2019-08-04T11:09:24.000Z</time>
      </trkpt>
      <trkpt lat="45.04049" lon="5.87465">
        <ele>1977</ele>
        <time>2019-08-04T11:09:30.000Z</time>
      </trkpt>
      <trkpt lat="45.04055" lon="5.8746">
        <ele>1973</ele>
        <time>2019-08-04T11:09:38.000Z</time>
      </trkpt>
      <trkpt lat="45.0406" lon="5.87453">
        <ele>1972</ele>
        <time>2019-08-04T11:09:45.000Z</time>
      </trkpt>
      <trkpt lat="45.04063" lon="5.87447">
        <ele>1969</ele>
        <time>2019-08-04T11:09:51.000Z</time>
      </trkpt>
      <trkpt lat="45.04071" lon="5.87444">
        <ele>1966</ele>
        <time>2019-08-04T11:09:58.000Z</time>
      </trkpt>
      <trkpt lat="45.04076" lon="5.87442">
        <ele>1964</ele>
        <time>2019-08-04T11:10:02.000Z</time>
      </trkpt>
      <trkpt lat="45.04081" lon="5.87435">
        <ele>1963</ele>
        <time>2019-08-04T11:10:09.000Z</time>
      </trkpt>
      <trkpt lat="45.04091" lon="5.87433">
        <ele>1959</ele>
        <time>2019-08-04T11:10:16.000Z</time>
      </trkpt>
      <trkpt lat="45.041" lon="5.87428">
        <ele>1957</ele>
        <time>2019-08-04T11:10:24.000Z</time>
      </trkpt>
      <trkpt lat="45.04109" lon="5.87427">
        <ele>1953</ele>
        <time>2019-08-04T11:10:32.000Z</time>
      </trkpt>
      <trkpt lat="45.04114" lon="5.87424">
        <ele>1953</ele>
        <time>2019-08-04T11:10:36.000Z</time>
      </trkpt>
      <trkpt lat="45.04118" lon="5.87423">
        <ele>1951</ele>
        <time>2019-08-04T11:10:39.000Z</time>
      </trkpt>
      <trkpt lat="45.04127" lon="5.87421">
        <ele>1950</ele>
        <time>2019-08-04T11:10:45.000Z</time>
      </trkpt>
      <trkpt lat="45.04129" lon="5.87414">
        <ele>1947</ele>
        <time>2019-08-04T11:10:52.000Z</time>
      </trkpt>
      <trkpt lat="45.04125" lon="5.87403">
        <ele>1944</ele>
        <time>2019-08-04T11:10:59.000Z</time>
      </trkpt>
      <trkpt lat="45.04121" lon="5.87394">
        <ele>1943</ele>
        <time>2019-08-04T11:11:06.000Z</time>
      </trkpt>
      <trkpt lat="45.04118" lon="5.87383">
        <ele>1940</ele>
        <time>2019-08-04T11:11:14.000Z</time>
      </trkpt>
      <trkpt lat="45.04118" lon="5.87375">
        <ele>1939</ele>
        <time>2019-08-04T11:11:21.000Z</time>
      </trkpt>
      <trkpt lat="45.04117" lon="5.87368">
        <ele>1937</ele>
        <time>2019-08-04T11:11:27.000Z</time>
      </trkpt>
      <trkpt lat="45.04118" lon="5.87358">
        <ele>1934</ele>
        <time>2019-08-04T11:11:35.000Z</time>
      </trkpt>
      <trkpt lat="45.0412" lon="5.87349">
        <ele>1930</ele>
        <time>2019-08-04T11:11:45.000Z</time>
      </trkpt>
      <trkpt lat="45.04119" lon="5.87342">
        <ele>1926</ele>
        <time>2019-08-04T11:11:52.000Z</time>
      </trkpt>
      <trkpt lat="45.0412" lon="5.87333">
        <ele>1923</ele>
        <time>2019-08-04T11:12:00.000Z</time>
      </trkpt>
      <trkpt lat="45.04126" lon="5.87325">
        <ele>1921</ele>
        <time>2019-08-04T11:12:07.000Z</time>
      </trkpt>
      <trkpt lat="45.04132" lon="5.87317">
        <ele>1921</ele>
        <time>2019-08-04T11:12:14.000Z</time>
      </trkpt>
      <trkpt lat="45.04139" lon="5.87313">
        <ele>1917</ele>
        <time>2019-08-04T11:12:22.000Z</time>
      </trkpt>
      <trkpt lat="45.04148" lon="5.87309">
        <ele>1916</ele>
        <time>2019-08-04T11:12:29.000Z</time>
      </trkpt>
      <trkpt lat="45.04157" lon="5.8731">
        <ele>1913</ele>
        <time>2019-08-04T11:12:36.000Z</time>
      </trkpt>
      <trkpt lat="45.04162" lon="5.87308">
        <ele>1910</ele>
        <time>2019-08-04T11:12:42.000Z</time>
      </trkpt>
      <trkpt lat="45.04171" lon="5.87302">
        <ele>1909</ele>
        <time>2019-08-04T11:12:49.000Z</time>
      </trkpt>
      <trkpt lat="45.04175" lon="5.87292">
        <ele>1905</ele>
        <time>2019-08-04T11:12:57.000Z</time>
      </trkpt>
      <trkpt lat="45.04179" lon="5.87285">
        <ele>1904</ele>
        <time>2019-08-04T11:13:04.000Z</time>
      </trkpt>
      <trkpt lat="45.04181" lon="5.87277">
        <ele>1902</ele>
        <time>2019-08-04T11:13:08.000Z</time>
      </trkpt>
      <trkpt lat="45.04184" lon="5.87269">
        <ele>1900</ele>
        <time>2019-08-04T11:13:12.000Z</time>
      </trkpt>
      <trkpt lat="45.04189" lon="5.8726">
        <ele>1900</ele>
        <time>2019-08-04T11:13:19.000Z</time>
      </trkpt>
      <trkpt lat="45.04196" lon="5.87253">
        <ele>1898</ele>
        <time>2019-08-04T11:13:27.000Z</time>
      </trkpt>
      <trkpt lat="45.04203" lon="5.87249">
        <ele>1896</ele>
        <time>2019-08-04T11:13:33.000Z</time>
      </trkpt>
      <trkpt lat="45.04209" lon="5.87248">
        <ele>1894</ele>
        <time>2019-08-04T11:13:40.000Z</time>
      </trkpt>
      <trkpt lat="45.04214" lon="5.87246">
        <ele>1892</ele>
        <time>2019-08-04T11:13:44.000Z</time>
      </trkpt>
      <trkpt lat="45.04223" lon="5.87243">
        <ele>1890</ele>
        <time>2019-08-04T11:13:51.000Z</time>
      </trkpt>
      <trkpt lat="45.04228" lon="5.87246">
        <ele>1888</ele>
        <time>2019-08-04T11:13:57.000Z</time>
      </trkpt>
      <trkpt lat="45.04233" lon="5.87253">
        <ele>1887</ele>
        <time>2019-08-04T11:14:04.000Z</time>
      </trkpt>
      <trkpt lat="45.04237" lon="5.87259">
        <ele>1883</ele>
        <time>2019-08-04T11:14:10.000Z</time>
      </trkpt>
      <trkpt lat="45.04239" lon="5.87265">
        <ele>1882</ele>
        <time>2019-08-04T11:14:14.000Z</time>
      </trkpt>
      <trkpt lat="45.04241" lon="5.87274">
        <ele>1880</ele>
        <time>2019-08-04T11:14:18.000Z</time>
      </trkpt>
      <trkpt lat="45.04243" lon="5.8728">
        <ele>1879</ele>
        <time>2019-08-04T11:14:22.000Z</time>
      </trkpt>
      <trkpt lat="45.04247" lon="5.87288">
        <ele>1877</ele>
        <time>2019-08-04T11:14:28.000Z</time>
      </trkpt>
      <trkpt lat="45.04247" lon="5.87297">
        <ele>1875</ele>
        <time>2019-08-04T11:14:34.000Z</time>
      </trkpt>
      <trkpt lat="45.04249" lon="5.87306">
        <ele>1871</ele>
        <time>2019-08-04T11:14:41.000Z</time>
      </trkpt>
      <trkpt lat="45.04253" lon="5.87315">
        <ele>1871</ele>
        <time>2019-08-04T11:14:48.000Z</time>
      </trkpt>
      <trkpt lat="45.04258" lon="5.87324">
        <ele>1865</ele>
        <time>2019-08-04T11:15:00.000Z</time>
      </trkpt>
      <trkpt lat="45.04262" lon="5.87328">
        <ele>1862</ele>
        <time>2019-08-04T11:15:07.000Z</time>
      </trkpt>
      <trkpt lat="45.04269" lon="5.8733">
        <ele>1854</ele>
        <time>2019-08-04T11:15:21.000Z</time>
      </trkpt>
      <trkpt lat="45.04277" lon="5.87331">
        <ele>1853</ele>
        <time>2019-08-04T11:15:29.000Z</time>
      </trkpt>
      <trkpt lat="45.04283" lon="5.87328">
        <ele>1850</ele>
        <time>2019-08-04T11:15:37.000Z</time>
      </trkpt>
      <trkpt lat="45.04288" lon="5.87325">
        <ele>1847</ele>
        <time>2019-08-04T11:15:44.000Z</time>
      </trkpt>
      <trkpt lat="45.04293" lon="5.87323">
        <ele>1843</ele>
        <time>2019-08-04T11:15:55.000Z</time>
      </trkpt>
      <trkpt lat="45.04296" lon="5.87317">
        <ele>1840</ele>
        <time>2019-08-04T11:16:02.000Z</time>
      </trkpt>
      <trkpt lat="45.043" lon="5.87312">
        <ele>1838</ele>
        <time>2019-08-04T11:16:13.000Z</time>
      </trkpt>
      <trkpt lat="45.04306" lon="5.87307">
        <ele>1837</ele>
        <time>2019-08-04T11:16:23.000Z</time>
      </trkpt>
      <trkpt lat="45.04311" lon="5.87308">
        <ele>1835</ele>
        <time>2019-08-04T11:16:31.000Z</time>
      </trkpt>
      <trkpt lat="45.04316" lon="5.87307">
        <ele>1830</ele>
        <time>2019-08-04T11:16:42.000Z</time>
      </trkpt>
      <trkpt lat="45.04322" lon="5.87307">
        <ele>1826</ele>
        <time>2019-08-04T11:16:50.000Z</time>
      </trkpt>
      <trkpt lat="45.04326" lon="5.87303">
        <ele>1823</ele>
        <time>2019-08-04T11:16:59.000Z</time>
      </trkpt>
      <trkpt lat="45.04329" lon="5.87297">
        <ele>1819</ele>
        <time>2019-08-04T11:17:07.000Z</time>
      </trkpt>
      <trkpt lat="45.0433" lon="5.87291">
        <ele>1818</ele>
        <time>2019-08-04T11:17:15.000Z</time>
      </trkpt>
      <trkpt lat="45.04334" lon="5.87287">
        <ele>1814</ele>
        <time>2019-08-04T11:17:22.000Z</time>
      </trkpt>
      <trkpt lat="45.04337" lon="5.87282">
        <ele>1813</ele>
        <time>2019-08-04T11:17:29.000Z</time>
      </trkpt>
      <trkpt lat="45.04343" lon="5.87277">
        <ele>1813</ele>
        <time>2019-08-04T11:17:36.000Z</time>
      </trkpt>
      <trkpt lat="45.04347" lon="5.8727">
        <ele>1810</ele>
        <time>2019-08-04T11:17:43.000Z</time>
      </trkpt>
      <trkpt lat="45.04353" lon="5.87265">
        <ele>1807</ele>
        <time>2019-08-04T11:17:50.000Z</time>
      </trkpt>
      <trkpt lat="45.04358" lon="5.87261">
        <ele>1804</ele>
        <time>2019-08-04T11:17:58.000Z</time>
      </trkpt>
      <trkpt lat="45.04365" lon="5.87258">
        <ele>1801</ele>
        <time>2019-08-04T11:18:06.000Z</time>
      </trkpt>
      <trkpt lat="45.04372" lon="5.87254">
        <ele>1796</ele>
        <time>2019-08-04T11:18:14.000Z</time>
      </trkpt>
      <trkpt lat="45.04379" lon="5.87254">
        <ele>1793</ele>
        <time>2019-08-04T11:18:21.000Z</time>
      </trkpt>
      <trkpt lat="45.04386" lon="5.87254">
        <ele>1791</ele>
        <time>2019-08-04T11:18:27.000Z</time>
      </trkpt>
      <trkpt lat="45.04391" lon="5.87251">
        <ele>1790</ele>
        <time>2019-08-04T11:18:31.000Z</time>
      </trkpt>
      <trkpt lat="45.04398" lon="5.87249">
        <ele>1787</ele>
        <time>2019-08-04T11:18:38.000Z</time>
      </trkpt>
      <trkpt lat="45.04403" lon="5.87248">
        <ele>1787</ele>
        <time>2019-08-04T11:18:42.000Z</time>
      </trkpt>
      <trkpt lat="45.04408" lon="5.87244">
        <ele>1785</ele>
        <time>2019-08-04T11:18:48.000Z</time>
      </trkpt>
      <trkpt lat="45.04414" lon="5.87237">
        <ele>1783</ele>
        <time>2019-08-04T11:18:56.000Z</time>
      </trkpt>
      <trkpt lat="45.0442" lon="5.87233">
        <ele>1780</ele>
        <time>2019-08-04T11:19:03.000Z</time>
      </trkpt>
      <trkpt lat="45.04425" lon="5.87229">
        <ele>1775</ele>
        <time>2019-08-04T11:19:11.000Z</time>
      </trkpt>
      <trkpt lat="45.0443" lon="5.87223">
        <ele>1774</ele>
        <time>2019-08-04T11:19:18.000Z</time>
      </trkpt>
      <trkpt lat="45.04434" lon="5.8722">
        <ele>1772</ele>
        <time>2019-08-04T11:19:24.000Z</time>
      </trkpt>
      <trkpt lat="45.0444" lon="5.87214">
        <ele>1769</ele>
        <time>2019-08-04T11:19:30.000Z</time>
      </trkpt>
      <trkpt lat="45.04444" lon="5.8721">
        <ele>1768</ele>
        <time>2019-08-04T11:19:34.000Z</time>
      </trkpt>
      <trkpt lat="45.04449" lon="5.87205">
        <ele>1767</ele>
        <time>2019-08-04T11:19:41.000Z</time>
      </trkpt>
      <trkpt lat="45.04455" lon="5.87198">
        <ele>1766</ele>
        <time>2019-08-04T11:19:48.000Z</time>
      </trkpt>
      <trkpt lat="45.04459" lon="5.87195">
        <ele>1766</ele>
        <time>2019-08-04T11:19:56.000Z</time>
      </trkpt>
      <trkpt lat="45.04465" lon="5.8719">
        <ele>1764</ele>
        <time>2019-08-04T11:20:03.000Z</time>
      </trkpt>
      <trkpt lat="45.04471" lon="5.87188">
        <ele>1763</ele>
        <time>2019-08-04T11:20:10.000Z</time>
      </trkpt>
      <trkpt lat="45.04479" lon="5.87187">
        <ele>1763</ele>
        <time>2019-08-04T11:20:18.000Z</time>
      </trkpt>
      <trkpt lat="45.04485" lon="5.87188">
        <ele>1761</ele>
        <time>2019-08-04T11:20:27.000Z</time>
      </trkpt>
      <trkpt lat="45.0449" lon="5.87192">
        <ele>1760</ele>
        <time>2019-08-04T11:20:31.000Z</time>
      </trkpt>
      <trkpt lat="45.04496" lon="5.87193">
        <ele>1758</ele>
        <time>2019-08-04T11:20:37.000Z</time>
      </trkpt>
      <trkpt lat="45.04502" lon="5.87192">
        <ele>1755</ele>
        <time>2019-08-04T11:20:41.000Z</time>
      </trkpt>
      <trkpt lat="45.04506" lon="5.87191">
        <ele>1753</ele>
        <time>2019-08-04T11:20:44.000Z</time>
      </trkpt>
      <trkpt lat="45.04514" lon="5.87191">
        <ele>1751</ele>
        <time>2019-08-04T11:20:52.000Z</time>
      </trkpt>
      <trkpt lat="45.04519" lon="5.87194">
        <ele>1749</ele>
        <time>2019-08-04T11:21:00.000Z</time>
      </trkpt>
      <trkpt lat="45.04526" lon="5.872">
        <ele>1744</ele>
        <time>2019-08-04T11:21:07.000Z</time>
      </trkpt>
      <trkpt lat="45.04531" lon="5.87202">
        <ele>1742</ele>
        <time>2019-08-04T11:21:27.000Z</time>
      </trkpt>
      <trkpt lat="45.04533" lon="5.87209">
        <ele>1741</ele>
        <time>2019-08-04T11:21:34.000Z</time>
      </trkpt>
      <trkpt lat="45.04537" lon="5.87216">
        <ele>1742</ele>
        <time>2019-08-04T11:21:41.000Z</time>
      </trkpt>
      <trkpt lat="45.04535" lon="5.87222">
        <ele>1744</ele>
        <time>2019-08-04T11:21:47.000Z</time>
      </trkpt>
      <trkpt lat="45.04528" lon="5.87227">
        <ele>1744</ele>
        <time>2019-08-04T11:21:59.000Z</time>
      </trkpt>
      <trkpt lat="45.04526" lon="5.87235">
        <ele>1745</ele>
        <time>2019-08-04T11:22:06.000Z</time>
      </trkpt>
      <trkpt lat="45.04524" lon="5.87244">
        <ele>1749</ele>
        <time>2019-08-04T11:22:17.000Z</time>
      </trkpt>
      <trkpt lat="45.04522" lon="5.8725">
        <ele>1748</ele>
        <time>2019-08-04T11:22:21.000Z</time>
      </trkpt>
      <trkpt lat="45.0452" lon="5.87259">
        <ele>1749</ele>
        <time>2019-08-04T11:22:30.000Z</time>
      </trkpt>
      <trkpt lat="45.0452" lon="5.87268">
        <ele>1751</ele>
        <time>2019-08-04T11:22:37.000Z</time>
      </trkpt>
      <trkpt lat="45.04521" lon="5.87278">
        <ele>1752</ele>
        <time>2019-08-04T11:22:44.000Z</time>
      </trkpt>
      <trkpt lat="45.04522" lon="5.87287">
        <ele>1750</ele>
        <time>2019-08-04T11:22:51.000Z</time>
      </trkpt>
      <trkpt lat="45.04521" lon="5.87295">
        <ele>1749</ele>
        <time>2019-08-04T11:23:50.000Z</time>
      </trkpt>
      <trkpt lat="45.04525" lon="5.873">
        <ele>1751</ele>
        <time>2019-08-04T11:23:54.000Z</time>
      </trkpt>
      <trkpt lat="45.04528" lon="5.87307">
        <ele>1752</ele>
        <time>2019-08-04T11:24:00.000Z</time>
      </trkpt>
      <trkpt lat="45.0453" lon="5.87313">
        <ele>1753</ele>
        <time>2019-08-04T11:24:04.000Z</time>
      </trkpt>
      <trkpt lat="45.04535" lon="5.8732">
        <ele>1755</ele>
        <time>2019-08-04T11:24:10.000Z</time>
      </trkpt>
      <trkpt lat="45.0454" lon="5.87327">
        <ele>1757</ele>
        <time>2019-08-04T11:24:16.000Z</time>
      </trkpt>
      <trkpt lat="45.04545" lon="5.87336">
        <ele>1760</ele>
        <time>2019-08-04T11:24:23.000Z</time>
      </trkpt>
      <trkpt lat="45.0455" lon="5.87344">
        <ele>1763</ele>
        <time>2019-08-04T11:24:30.000Z</time>
      </trkpt>
      <trkpt lat="45.04553" lon="5.87351">
        <ele>1762</ele>
        <time>2019-08-04T11:24:34.000Z</time>
      </trkpt>
      <trkpt lat="45.04556" lon="5.87356">
        <ele>1763</ele>
        <time>2019-08-04T11:24:38.000Z</time>
      </trkpt>
      <trkpt lat="45.04559" lon="5.87363">
        <ele>1763</ele>
        <time>2019-08-04T11:24:42.000Z</time>
      </trkpt>
      <trkpt lat="45.04564" lon="5.87372">
        <ele>1765</ele>
        <time>2019-08-04T11:24:50.000Z</time>
      </trkpt>
      <trkpt lat="45.04566" lon="5.87378">
        <ele>1766</ele>
        <time>2019-08-04T11:24:56.000Z</time>
      </trkpt>
      <trkpt lat="45.04571" lon="5.87379">
        <ele>1767</ele>
        <time>2019-08-04T11:25:03.000Z</time>
      </trkpt>
      <trkpt lat="45.04577" lon="5.8738">
        <ele>1767</ele>
        <time>2019-08-04T11:25:07.000Z</time>
      </trkpt>
      <trkpt lat="45.04581" lon="5.87383">
        <ele>1768</ele>
        <time>2019-08-04T11:25:11.000Z</time>
      </trkpt>
      <trkpt lat="45.04589" lon="5.87386">
        <ele>1769</ele>
        <time>2019-08-04T11:25:18.000Z</time>
      </trkpt>
      <trkpt lat="45.04597" lon="5.87387">
        <ele>1768</ele>
        <time>2019-08-04T11:25:25.000Z</time>
      </trkpt>
      <trkpt lat="45.04604" lon="5.87391">
        <ele>1768</ele>
        <time>2019-08-04T11:25:31.000Z</time>
      </trkpt>
      <trkpt lat="45.04608" lon="5.87395">
        <ele>1767</ele>
        <time>2019-08-04T11:25:35.000Z</time>
      </trkpt>
      <trkpt lat="45.0461" lon="5.87403">
        <ele>1769</ele>
        <time>2019-08-04T11:25:42.000Z</time>
      </trkpt>
      <trkpt lat="45.04612" lon="5.87411">
        <ele>1769</ele>
        <time>2019-08-04T11:25:49.000Z</time>
      </trkpt>
      <trkpt lat="45.04613" lon="5.87419">
        <ele>1771</ele>
        <time>2019-08-04T11:25:56.000Z</time>
      </trkpt>
      <trkpt lat="45.04613" lon="5.87428">
        <ele>1771</ele>
        <time>2019-08-04T11:26:03.000Z</time>
      </trkpt>
      <trkpt lat="45.04613" lon="5.87438">
        <ele>1773</ele>
        <time>2019-08-04T11:26:11.000Z</time>
      </trkpt>
      <trkpt lat="45.04613" lon="5.87447">
        <ele>1773</ele>
        <time>2019-08-04T11:26:18.000Z</time>
      </trkpt>
      <trkpt lat="45.04616" lon="5.87453">
        <ele>1775</ele>
        <time>2019-08-04T11:26:25.000Z</time>
      </trkpt>
      <trkpt lat="45.04619" lon="5.87459">
        <ele>1776</ele>
        <time>2019-08-04T11:26:29.000Z</time>
      </trkpt>
      <trkpt lat="45.04623" lon="5.87466">
        <ele>1775</ele>
        <time>2019-08-04T11:26:36.000Z</time>
      </trkpt>
      <trkpt lat="45.04627" lon="5.87475">
        <ele>1775</ele>
        <time>2019-08-04T11:26:42.000Z</time>
      </trkpt>
      <trkpt lat="45.0463" lon="5.87484">
        <ele>1774</ele>
        <time>2019-08-04T11:26:48.000Z</time>
      </trkpt>
      <trkpt lat="45.04635" lon="5.87493">
        <ele>1774</ele>
        <time>2019-08-04T11:26:55.000Z</time>
      </trkpt>
      <trkpt lat="45.04641" lon="5.87502">
        <ele>1773</ele>
        <time>2019-08-04T11:27:02.000Z</time>
      </trkpt>
      <trkpt lat="45.04643" lon="5.87508">
        <ele>1773</ele>
        <time>2019-08-04T11:27:06.000Z</time>
      </trkpt>
      <trkpt lat="45.04646" lon="5.87516">
        <ele>1772</ele>
        <time>2019-08-04T11:27:10.000Z</time>
      </trkpt>
      <trkpt lat="45.04651" lon="5.87524">
        <ele>1771</ele>
        <time>2019-08-04T11:27:17.000Z</time>
      </trkpt>
      <trkpt lat="45.04657" lon="5.87533">
        <ele>1770</ele>
        <time>2019-08-04T11:27:23.000Z</time>
      </trkpt>
      <trkpt lat="45.0466" lon="5.87539">
        <ele>1768</ele>
        <time>2019-08-04T11:27:31.000Z</time>
      </trkpt>
      <trkpt lat="45.04664" lon="5.87547">
        <ele>1765</ele>
        <time>2019-08-04T11:27:45.000Z</time>
      </trkpt>
      <trkpt lat="45.04669" lon="5.87551">
        <ele>1764</ele>
        <time>2019-08-04T11:27:52.000Z</time>
      </trkpt>
      <trkpt lat="45.04675" lon="5.87555">
        <ele>1764</ele>
        <time>2019-08-04T11:27:58.000Z</time>
      </trkpt>
      <trkpt lat="45.04681" lon="5.8756">
        <ele>1762</ele>
        <time>2019-08-04T11:28:05.000Z</time>
      </trkpt>
      <trkpt lat="45.04686" lon="5.87566">
        <ele>1760</ele>
        <time>2019-08-04T11:28:12.000Z</time>
      </trkpt>
      <trkpt lat="45.04688" lon="5.87574">
        <ele>1759</ele>
        <time>2019-08-04T11:28:16.000Z</time>
      </trkpt>
      <trkpt lat="45.04693" lon="5.87584">
        <ele>1760</ele>
        <time>2019-08-04T11:28:24.000Z</time>
      </trkpt>
      <trkpt lat="45.04696" lon="5.8759">
        <ele>1760</ele>
        <time>2019-08-04T11:28:31.000Z</time>
      </trkpt>
      <trkpt lat="45.047" lon="5.87596">
        <ele>1762</ele>
        <time>2019-08-04T11:28:38.000Z</time>
      </trkpt>
      <trkpt lat="45.04703" lon="5.87605">
        <ele>1763</ele>
        <time>2019-08-04T11:28:45.000Z</time>
      </trkpt>
      <trkpt lat="45.04708" lon="5.87608">
        <ele>1765</ele>
        <time>2019-08-04T11:28:52.000Z</time>
      </trkpt>
      <trkpt lat="45.04711" lon="5.87614">
        <ele>1763</ele>
        <time>2019-08-04T11:29:03.000Z</time>
      </trkpt>
      <trkpt lat="45.04715" lon="5.87618">
        <ele>1760</ele>
        <time>2019-08-04T11:29:42.000Z</time>
      </trkpt>
      <trkpt lat="45.04718" lon="5.87624">
        <ele>1757</ele>
        <time>2019-08-04T11:29:55.000Z</time>
      </trkpt>
      <trkpt lat="45.04723" lon="5.87631">
        <ele>1755</ele>
        <time>2019-08-04T11:30:02.000Z</time>
      </trkpt>
      <trkpt lat="45.04728" lon="5.87638">
        <ele>1753</ele>
        <time>2019-08-04T11:30:10.000Z</time>
      </trkpt>
      <trkpt lat="45.04728" lon="5.87645">
        <ele>1747</ele>
        <time>2019-08-04T11:30:38.000Z</time>
      </trkpt>
      <trkpt lat="45.04731" lon="5.8765">
        <ele>1742</ele>
        <time>2019-08-04T11:30:56.000Z</time>
      </trkpt>
      <trkpt lat="45.04737" lon="5.87654">
        <ele>1740</ele>
        <time>2019-08-04T11:31:09.000Z</time>
      </trkpt>
      <trkpt lat="45.04741" lon="5.87656">
        <ele>1738</ele>
        <time>2019-08-04T11:31:22.000Z</time>
      </trkpt>
      <trkpt lat="45.04746" lon="5.87657">
        <ele>1737</ele>
        <time>2019-08-04T11:31:31.000Z</time>
      </trkpt>
      <trkpt lat="45.04751" lon="5.87657">
        <ele>1735</ele>
        <time>2019-08-04T11:31:41.000Z</time>
      </trkpt>
      <trkpt lat="45.04755" lon="5.87652">
        <ele>1733</ele>
        <time>2019-08-04T11:31:51.000Z</time>
      </trkpt>
      <trkpt lat="45.04759" lon="5.87652">
        <ele>1727</ele>
        <time>2019-08-04T11:32:04.000Z</time>
      </trkpt>
      <trkpt lat="45.04765" lon="5.87656">
        <ele>1727</ele>
        <time>2019-08-04T11:32:12.000Z</time>
      </trkpt>
      <trkpt lat="45.0477" lon="5.87658">
        <ele>1725</ele>
        <time>2019-08-04T11:32:19.000Z</time>
      </trkpt>
      <trkpt lat="45.04777" lon="5.87659">
        <ele>1724</ele>
        <time>2019-08-04T11:32:26.000Z</time>
      </trkpt>
      <trkpt lat="45.0478" lon="5.87667">
        <ele>1722</ele>
        <time>2019-08-04T11:32:48.000Z</time>
      </trkpt>
      <trkpt lat="45.0478" lon="5.87676">
        <ele>1722</ele>
        <time>2019-08-04T11:32:54.000Z</time>
      </trkpt>
      <trkpt lat="45.0478" lon="5.87687">
        <ele>1722</ele>
        <time>2019-08-04T11:33:01.000Z</time>
      </trkpt>
      <trkpt lat="45.04781" lon="5.87694">
        <ele>1721</ele>
        <time>2019-08-04T11:33:04.000Z</time>
      </trkpt>
      <trkpt lat="45.04782" lon="5.87702">
        <ele>1722</ele>
        <time>2019-08-04T11:33:08.000Z</time>
      </trkpt>
      <trkpt lat="45.04782" lon="5.87709">
        <ele>1723</ele>
        <time>2019-08-04T11:33:12.000Z</time>
      </trkpt>
      <trkpt lat="45.0478" lon="5.8772">
        <ele>1724</ele>
        <time>2019-08-04T11:33:19.000Z</time>
      </trkpt>
      <trkpt lat="45.0478" lon="5.8773">
        <ele>1723</ele>
        <time>2019-08-04T11:33:25.000Z</time>
      </trkpt>
      <trkpt lat="45.04781" lon="5.87737">
        <ele>1725</ele>
        <time>2019-08-04T11:33:32.000Z</time>
      </trkpt>
      <trkpt lat="45.0478" lon="5.87747">
        <ele>1725</ele>
        <time>2019-08-04T11:33:39.000Z</time>
      </trkpt>
      <trkpt lat="45.04783" lon="5.87755">
        <ele>1727</ele>
        <time>2019-08-04T11:33:46.000Z</time>
      </trkpt>
      <trkpt lat="45.04784" lon="5.87764">
        <ele>1731</ele>
        <time>2019-08-04T11:33:54.000Z</time>
      </trkpt>
      <trkpt lat="45.04784" lon="5.87772">
        <ele>1732</ele>
        <time>2019-08-04T11:33:58.000Z</time>
      </trkpt>
      <trkpt lat="45.04781" lon="5.87781">
        <ele>1735</ele>
        <time>2019-08-04T11:34:04.000Z</time>
      </trkpt>
      <trkpt lat="45.04778" lon="5.8779">
        <ele>1735</ele>
        <time>2019-08-04T11:34:10.000Z</time>
      </trkpt>
      <trkpt lat="45.04778" lon="5.87799">
        <ele>1739</ele>
        <time>2019-08-04T11:34:18.000Z</time>
      </trkpt>
      <trkpt lat="45.04777" lon="5.87807">
        <ele>1739</ele>
        <time>2019-08-04T11:34:22.000Z</time>
      </trkpt>
      <trkpt lat="45.04777" lon="5.87815">
        <ele>1738</ele>
        <time>2019-08-04T11:34:29.000Z</time>
      </trkpt>
      <trkpt lat="45.04777" lon="5.87823">
        <ele>1738</ele>
        <time>2019-08-04T11:34:36.000Z</time>
      </trkpt>
      <trkpt lat="45.04776" lon="5.87832">
        <ele>1738</ele>
        <time>2019-08-04T11:34:42.000Z</time>
      </trkpt>
      <trkpt lat="45.04775" lon="5.87842">
        <ele>1741</ele>
        <time>2019-08-04T11:34:48.000Z</time>
      </trkpt>
      <trkpt lat="45.04777" lon="5.87849">
        <ele>1740</ele>
        <time>2019-08-04T11:34:52.000Z</time>
      </trkpt>
      <trkpt lat="45.0478" lon="5.87855">
        <ele>1742</ele>
        <time>2019-08-04T11:34:56.000Z</time>
      </trkpt>
      <trkpt lat="45.04784" lon="5.87863">
        <ele>1744</ele>
        <time>2019-08-04T11:35:04.000Z</time>
      </trkpt>
      <trkpt lat="45.04786" lon="5.87872">
        <ele>1748</ele>
        <time>2019-08-04T11:35:12.000Z</time>
      </trkpt>
      <trkpt lat="45.04787" lon="5.87878">
        <ele>1749</ele>
        <time>2019-08-04T11:35:15.000Z</time>
      </trkpt>
      <trkpt lat="45.04788" lon="5.8789">
        <ele>1751</ele>
        <time>2019-08-04T11:35:23.000Z</time>
      </trkpt>
      <trkpt lat="45.04787" lon="5.87898">
        <ele>1753</ele>
        <time>2019-08-04T11:35:30.000Z</time>
      </trkpt>
      <trkpt lat="45.04781" lon="5.87904">
        <ele>1752</ele>
        <time>2019-08-04T11:35:44.000Z</time>
      </trkpt>
      <trkpt lat="45.04787" lon="5.87902">
        <ele>1752</ele>
        <time>2019-08-04T11:37:05.000Z</time>
      </trkpt>
      <trkpt lat="45.04792" lon="5.87901">
        <ele>1753</ele>
        <time>2019-08-04T11:37:12.000Z</time>
      </trkpt>
      <trkpt lat="45.04797" lon="5.8791">
        <ele>1753</ele>
        <time>2019-08-04T11:37:20.000Z</time>
      </trkpt>
      <trkpt lat="45.048" lon="5.87922">
        <ele>1752</ele>
        <time>2019-08-04T11:37:26.000Z</time>
      </trkpt>
      <trkpt lat="45.04803" lon="5.87926">
        <ele>1752</ele>
        <time>2019-08-04T11:37:30.000Z</time>
      </trkpt>
      <trkpt lat="45.04804" lon="5.87936">
        <ele>1750</ele>
        <time>2019-08-04T11:37:37.000Z</time>
      </trkpt>
      <trkpt lat="45.04806" lon="5.87942">
        <ele>1751</ele>
        <time>2019-08-04T11:37:43.000Z</time>
      </trkpt>
      <trkpt lat="45.04805" lon="5.87954">
        <ele>1752</ele>
        <time>2019-08-04T11:37:50.000Z</time>
      </trkpt>
      <trkpt lat="45.04804" lon="5.87964">
        <ele>1750</ele>
        <time>2019-08-04T11:37:57.000Z</time>
      </trkpt>
      <trkpt lat="45.04805" lon="5.87973">
        <ele>1748</ele>
        <time>2019-08-04T11:38:01.000Z</time>
      </trkpt>
      <trkpt lat="45.04808" lon="5.87985">
        <ele>1747</ele>
        <time>2019-08-04T11:38:08.000Z</time>
      </trkpt>
      <trkpt lat="45.04812" lon="5.87991">
        <ele>1746</ele>
        <time>2019-08-04T11:38:12.000Z</time>
      </trkpt>
      <trkpt lat="45.04817" lon="5.87998">
        <ele>1745</ele>
        <time>2019-08-04T11:38:19.000Z</time>
      </trkpt>
      <trkpt lat="45.04816" lon="5.88006">
        <ele>1744</ele>
        <time>2019-08-04T11:38:25.000Z</time>
      </trkpt>
      <trkpt lat="45.04821" lon="5.88013">
        <ele>1742</ele>
        <time>2019-08-04T11:38:33.000Z</time>
      </trkpt>
      <trkpt lat="45.04824" lon="5.88021">
        <ele>1742</ele>
        <time>2019-08-04T11:38:40.000Z</time>
      </trkpt>
      <trkpt lat="45.04827" lon="5.88027">
        <ele>1741</ele>
        <time>2019-08-04T11:38:46.000Z</time>
      </trkpt>
      <trkpt lat="45.04832" lon="5.88032">
        <ele>1743</ele>
        <time>2019-08-04T11:38:53.000Z</time>
      </trkpt>
      <trkpt lat="45.04836" lon="5.88036">
        <ele>1744</ele>
        <time>2019-08-04T11:38:56.000Z</time>
      </trkpt>
      <trkpt lat="45.04844" lon="5.88045">
        <ele>1743</ele>
        <time>2019-08-04T11:39:03.000Z</time>
      </trkpt>
      <trkpt lat="45.04849" lon="5.88049">
        <ele>1742</ele>
        <time>2019-08-04T11:39:07.000Z</time>
      </trkpt>
      <trkpt lat="45.04853" lon="5.88054">
        <ele>1742</ele>
        <time>2019-08-04T11:39:10.000Z</time>
      </trkpt>
      <trkpt lat="45.04857" lon="5.88059">
        <ele>1742</ele>
        <time>2019-08-04T11:39:14.000Z</time>
      </trkpt>
      <trkpt lat="45.04862" lon="5.88067">
        <ele>1740</ele>
        <time>2019-08-04T11:39:21.000Z</time>
      </trkpt>
      <trkpt lat="45.04866" lon="5.88073">
        <ele>1740</ele>
        <time>2019-08-04T11:39:25.000Z</time>
      </trkpt>
      <trkpt lat="45.04873" lon="5.8808">
        <ele>1739</ele>
        <time>2019-08-04T11:39:31.000Z</time>
      </trkpt>
      <trkpt lat="45.04878" lon="5.88082">
        <ele>1738</ele>
        <time>2019-08-04T11:39:34.000Z</time>
      </trkpt>
      <trkpt lat="45.04885" lon="5.88088">
        <ele>1737</ele>
        <time>2019-08-04T11:39:40.000Z</time>
      </trkpt>
      <trkpt lat="45.0489" lon="5.88093">
        <ele>1737</ele>
        <time>2019-08-04T11:39:44.000Z</time>
      </trkpt>
      <trkpt lat="45.04895" lon="5.88098">
        <ele>1737</ele>
        <time>2019-08-04T11:39:48.000Z</time>
      </trkpt>
      <trkpt lat="45.04899" lon="5.88107">
        <ele>1735</ele>
        <time>2019-08-04T11:39:52.000Z</time>
      </trkpt>
      <trkpt lat="45.04903" lon="5.88114">
        <ele>1735</ele>
        <time>2019-08-04T11:39:56.000Z</time>
      </trkpt>
      <trkpt lat="45.04906" lon="5.8812">
        <ele>1735</ele>
        <time>2019-08-04T11:40:00.000Z</time>
      </trkpt>
      <trkpt lat="45.04908" lon="5.88127">
        <ele>1734</ele>
        <time>2019-08-04T11:40:04.000Z</time>
      </trkpt>
      <trkpt lat="45.04908" lon="5.88133">
        <ele>1733</ele>
        <time>2019-08-04T11:40:07.000Z</time>
      </trkpt>
      <trkpt lat="45.04909" lon="5.88141">
        <ele>1733</ele>
        <time>2019-08-04T11:40:11.000Z</time>
      </trkpt>
      <trkpt lat="45.0491" lon="5.88147">
        <ele>1733</ele>
        <time>2019-08-04T11:40:14.000Z</time>
      </trkpt>
      <trkpt lat="45.04912" lon="5.88154">
        <ele>1733</ele>
        <time>2019-08-04T11:40:17.000Z</time>
      </trkpt>
      <trkpt lat="45.04915" lon="5.88161">
        <ele>1733</ele>
        <time>2019-08-04T11:40:21.000Z</time>
      </trkpt>
      <trkpt lat="45.04919" lon="5.88166">
        <ele>1733</ele>
        <time>2019-08-04T11:40:24.000Z</time>
      </trkpt>
      <trkpt lat="45.04921" lon="5.88171">
        <ele>1732</ele>
        <time>2019-08-04T11:40:28.000Z</time>
      </trkpt>
      <trkpt lat="45.04923" lon="5.88178">
        <ele>1733</ele>
        <time>2019-08-04T11:40:32.000Z</time>
      </trkpt>
      <trkpt lat="45.04926" lon="5.88185">
        <ele>1732</ele>
        <time>2019-08-04T11:40:36.000Z</time>
      </trkpt>
      <trkpt lat="45.0493" lon="5.88189">
        <ele>1731</ele>
        <time>2019-08-04T11:40:40.000Z</time>
      </trkpt>
      <trkpt lat="45.04935" lon="5.88199">
        <ele>1732</ele>
        <time>2019-08-04T11:40:47.000Z</time>
      </trkpt>
      <trkpt lat="45.04938" lon="5.88206">
        <ele>1732</ele>
        <time>2019-08-04T11:40:51.000Z</time>
      </trkpt>
      <trkpt lat="45.0494" lon="5.88215">
        <ele>1733</ele>
        <time>2019-08-04T11:40:58.000Z</time>
      </trkpt>
      <trkpt lat="45.04942" lon="5.88224">
        <ele>1736</ele>
        <time>2019-08-04T11:41:05.000Z</time>
      </trkpt>
      <trkpt lat="45.04947" lon="5.88231">
        <ele>1737</ele>
        <time>2019-08-04T11:41:09.000Z</time>
      </trkpt>
      <trkpt lat="45.04952" lon="5.8824">
        <ele>1740</ele>
        <time>2019-08-04T11:41:16.000Z</time>
      </trkpt>
      <trkpt lat="45.04955" lon="5.8825">
        <ele>1739</ele>
        <time>2019-08-04T11:41:22.000Z</time>
      </trkpt>
      <trkpt lat="45.04957" lon="5.8826">
        <ele>1740</ele>
        <time>2019-08-04T11:41:28.000Z</time>
      </trkpt>
      <trkpt lat="45.04957" lon="5.88271">
        <ele>1741</ele>
        <time>2019-08-04T11:41:35.000Z</time>
      </trkpt>
      <trkpt lat="45.04958" lon="5.88277">
        <ele>1743</ele>
        <time>2019-08-04T11:41:39.000Z</time>
      </trkpt>
      <trkpt lat="45.04963" lon="5.88285">
        <ele>1744</ele>
        <time>2019-08-04T11:41:46.000Z</time>
      </trkpt>
      <trkpt lat="45.04967" lon="5.88295">
        <ele>1743</ele>
        <time>2019-08-04T11:42:44.000Z</time>
      </trkpt>
      <trkpt lat="45.04972" lon="5.88299">
        <ele>1744</ele>
        <time>2019-08-04T11:42:48.000Z</time>
      </trkpt>
      <trkpt lat="45.04978" lon="5.88309">
        <ele>1745</ele>
        <time>2019-08-04T11:42:55.000Z</time>
      </trkpt>
      <trkpt lat="45.04981" lon="5.88314">
        <ele>1744</ele>
        <time>2019-08-04T11:42:58.000Z</time>
      </trkpt>
      <trkpt lat="45.04985" lon="5.88323">
        <ele>1745</ele>
        <time>2019-08-04T11:43:02.000Z</time>
      </trkpt>
      <trkpt lat="45.04988" lon="5.8833">
        <ele>1745</ele>
        <time>2019-08-04T11:43:06.000Z</time>
      </trkpt>
      <trkpt lat="45.0499" lon="5.88337">
        <ele>1743</ele>
        <time>2019-08-04T11:43:10.000Z</time>
      </trkpt>
      <trkpt lat="45.0499" lon="5.88348">
        <ele>1744</ele>
        <time>2019-08-04T11:43:16.000Z</time>
      </trkpt>
      <trkpt lat="45.04994" lon="5.88355">
        <ele>1746</ele>
        <time>2019-08-04T11:43:22.000Z</time>
      </trkpt>
      <trkpt lat="45.05001" lon="5.88361">
        <ele>1748</ele>
        <time>2019-08-04T11:43:30.000Z</time>
      </trkpt>
      <trkpt lat="45.05005" lon="5.88366">
        <ele>1749</ele>
        <time>2019-08-04T11:43:34.000Z</time>
      </trkpt>
      <trkpt lat="45.05011" lon="5.88373">
        <ele>1752</ele>
        <time>2019-08-04T11:43:41.000Z</time>
      </trkpt>
      <trkpt lat="45.05015" lon="5.88381">
        <ele>1754</ele>
        <time>2019-08-04T11:43:47.000Z</time>
      </trkpt>
      <trkpt lat="45.05018" lon="5.88388">
        <ele>1754</ele>
        <time>2019-08-04T11:43:51.000Z</time>
      </trkpt>
      <trkpt lat="45.05021" lon="5.88393">
        <ele>1754</ele>
        <time>2019-08-04T11:43:54.000Z</time>
      </trkpt>
      <trkpt lat="45.05024" lon="5.88398">
        <ele>1755</ele>
        <time>2019-08-04T11:43:58.000Z</time>
      </trkpt>
      <trkpt lat="45.05028" lon="5.88402">
        <ele>1755</ele>
        <time>2019-08-04T11:44:02.000Z</time>
      </trkpt>
      <trkpt lat="45.05034" lon="5.88411">
        <ele>1753</ele>
        <time>2019-08-04T11:44:10.000Z</time>
      </trkpt>
      <trkpt lat="45.0504" lon="5.88415">
        <ele>1754</ele>
        <time>2019-08-04T11:44:14.000Z</time>
      </trkpt>
      <trkpt lat="45.05043" lon="5.8842">
        <ele>1754</ele>
        <time>2019-08-04T11:44:18.000Z</time>
      </trkpt>
      <trkpt lat="45.05048" lon="5.88427">
        <ele>1754</ele>
        <time>2019-08-04T11:44:24.000Z</time>
      </trkpt>
      <trkpt lat="45.05055" lon="5.88432">
        <ele>1755</ele>
        <time>2019-08-04T11:44:30.000Z</time>
      </trkpt>
      <trkpt lat="45.05059" lon="5.88436">
        <ele>1757</ele>
        <time>2019-08-04T11:44:34.000Z</time>
      </trkpt>
      <trkpt lat="45.05062" lon="5.88441">
        <ele>1758</ele>
        <time>2019-08-04T11:44:38.000Z</time>
      </trkpt>
      <trkpt lat="45.05065" lon="5.88447">
        <ele>1757</ele>
        <time>2019-08-04T11:44:42.000Z</time>
      </trkpt>
      <trkpt lat="45.05069" lon="5.88454">
        <ele>1760</ele>
        <time>2019-08-04T11:44:49.000Z</time>
      </trkpt>
      <trkpt lat="45.05073" lon="5.88458">
        <ele>1762</ele>
        <time>2019-08-04T11:44:56.000Z</time>
      </trkpt>
      <trkpt lat="45.05079" lon="5.88463">
        <ele>1766</ele>
        <time>2019-08-04T11:45:04.000Z</time>
      </trkpt>
      <trkpt lat="45.05084" lon="5.88465">
        <ele>1766</ele>
        <time>2019-08-04T11:45:08.000Z</time>
      </trkpt>
      <trkpt lat="45.05092" lon="5.88468">
        <ele>1767</ele>
        <time>2019-08-04T11:45:14.000Z</time>
      </trkpt>
      <trkpt lat="45.05098" lon="5.88473">
        <ele>1766</ele>
        <time>2019-08-04T11:45:18.000Z</time>
      </trkpt>
      <trkpt lat="45.05102" lon="5.88477">
        <ele>1765</ele>
        <time>2019-08-04T11:45:22.000Z</time>
      </trkpt>
      <trkpt lat="45.0511" lon="5.88484">
        <ele>1765</ele>
        <time>2019-08-04T11:45:28.000Z</time>
      </trkpt>
      <trkpt lat="45.05112" lon="5.88492">
        <ele>1765</ele>
        <time>2019-08-04T11:45:35.000Z</time>
      </trkpt>
      <trkpt lat="45.05111" lon="5.88504">
        <ele>1764</ele>
        <time>2019-08-04T11:45:41.000Z</time>
      </trkpt>
      <trkpt lat="45.05113" lon="5.88513">
        <ele>1763</ele>
        <time>2019-08-04T11:45:47.000Z</time>
      </trkpt>
      <trkpt lat="45.05117" lon="5.88519">
        <ele>1763</ele>
        <time>2019-08-04T11:45:54.000Z</time>
      </trkpt>
      <trkpt lat="45.05122" lon="5.8853">
        <ele>1762</ele>
        <time>2019-08-04T11:46:02.000Z</time>
      </trkpt>
      <trkpt lat="45.05128" lon="5.88544">
        <ele>1763</ele>
        <time>2019-08-04T11:46:09.000Z</time>
      </trkpt>
      <trkpt lat="45.05131" lon="5.88551">
        <ele>1763</ele>
        <time>2019-08-04T11:46:13.000Z</time>
      </trkpt>
      <trkpt lat="45.05134" lon="5.88556">
        <ele>1765</ele>
        <time>2019-08-04T11:46:16.000Z</time>
      </trkpt>
      <trkpt lat="45.05138" lon="5.88562">
        <ele>1765</ele>
        <time>2019-08-04T11:46:20.000Z</time>
      </trkpt>
      <trkpt lat="45.05142" lon="5.88571">
        <ele>1767</ele>
        <time>2019-08-04T11:46:26.000Z</time>
      </trkpt>
      <trkpt lat="45.05145" lon="5.88579">
        <ele>1770</ele>
        <time>2019-08-04T11:46:34.000Z</time>
      </trkpt>
      <trkpt lat="45.05147" lon="5.88588">
        <ele>1771</ele>
        <time>2019-08-04T11:46:41.000Z</time>
      </trkpt>
      <trkpt lat="45.0515" lon="5.88596">
        <ele>1769</ele>
        <time>2019-08-04T11:46:48.000Z</time>
      </trkpt>
      <trkpt lat="45.05152" lon="5.88605">
        <ele>1768</ele>
        <time>2019-08-04T11:46:55.000Z</time>
      </trkpt>
      <trkpt lat="45.05155" lon="5.88614">
        <ele>1767</ele>
        <time>2019-08-04T11:47:02.000Z</time>
      </trkpt>
      <trkpt lat="45.0516" lon="5.88625">
        <ele>1767</ele>
        <time>2019-08-04T11:47:10.000Z</time>
      </trkpt>
      <trkpt lat="45.05161" lon="5.88635">
        <ele>1766</ele>
        <time>2019-08-04T11:47:17.000Z</time>
      </trkpt>
      <trkpt lat="45.05164" lon="5.88643">
        <ele>1765</ele>
        <time>2019-08-04T11:47:26.000Z</time>
      </trkpt>
      <trkpt lat="45.05167" lon="5.88647">
        <ele>1764</ele>
        <time>2019-08-04T11:47:30.000Z</time>
      </trkpt>
      <trkpt lat="45.05171" lon="5.88657">
        <ele>1764</ele>
        <time>2019-08-04T11:47:37.000Z</time>
      </trkpt>
      <trkpt lat="45.05172" lon="5.88666">
        <ele>1762</ele>
        <time>2019-08-04T11:47:44.000Z</time>
      </trkpt>
      <trkpt lat="45.05173" lon="5.88672">
        <ele>1759</ele>
        <time>2019-08-04T11:47:57.000Z</time>
      </trkpt>
      <trkpt lat="45.05179" lon="5.88681">
        <ele>1757</ele>
        <time>2019-08-04T11:48:07.000Z</time>
      </trkpt>
      <trkpt lat="45.05181" lon="5.8869">
        <ele>1758</ele>
        <time>2019-08-04T11:48:11.000Z</time>
      </trkpt>
      <trkpt lat="45.0518" lon="5.88699">
        <ele>1758</ele>
        <time>2019-08-04T11:48:18.000Z</time>
      </trkpt>
      <trkpt lat="45.05177" lon="5.8871">
        <ele>1760</ele>
        <time>2019-08-04T11:48:25.000Z</time>
      </trkpt>
      <trkpt lat="45.05178" lon="5.88717">
        <ele>1760</ele>
        <time>2019-08-04T11:48:29.000Z</time>
      </trkpt>
      <trkpt lat="45.05179" lon="5.88729">
        <ele>1758</ele>
        <time>2019-08-04T11:48:37.000Z</time>
      </trkpt>
      <trkpt lat="45.0518" lon="5.88736">
        <ele>1757</ele>
        <time>2019-08-04T11:48:40.000Z</time>
      </trkpt>
      <trkpt lat="45.05181" lon="5.88742">
        <ele>1755</ele>
        <time>2019-08-04T11:48:44.000Z</time>
      </trkpt>
      <trkpt lat="45.05179" lon="5.88751">
        <ele>1754</ele>
        <time>2019-08-04T11:48:50.000Z</time>
      </trkpt>
      <trkpt lat="45.05179" lon="5.88758">
        <ele>1752</ele>
        <time>2019-08-04T11:48:54.000Z</time>
      </trkpt>
      <trkpt lat="45.05178" lon="5.88764">
        <ele>1753</ele>
        <time>2019-08-04T11:48:58.000Z</time>
      </trkpt>
      <trkpt lat="45.05179" lon="5.88777">
        <ele>1753</ele>
        <time>2019-08-04T11:49:05.000Z</time>
      </trkpt>
      <trkpt lat="45.05181" lon="5.88783">
        <ele>1753</ele>
        <time>2019-08-04T11:49:09.000Z</time>
      </trkpt>
      <trkpt lat="45.05182" lon="5.88795">
        <ele>1752</ele>
        <time>2019-08-04T11:49:16.000Z</time>
      </trkpt>
      <trkpt lat="45.05179" lon="5.88808">
        <ele>1752</ele>
        <time>2019-08-04T11:49:23.000Z</time>
      </trkpt>
      <trkpt lat="45.05176" lon="5.88817">
        <ele>1753</ele>
        <time>2019-08-04T11:49:30.000Z</time>
      </trkpt>
      <trkpt lat="45.05179" lon="5.88823">
        <ele>1751</ele>
        <time>2019-08-04T11:49:34.000Z</time>
      </trkpt>
      <trkpt lat="45.05182" lon="5.88831">
        <ele>1751</ele>
        <time>2019-08-04T11:49:42.000Z</time>
      </trkpt>
      <trkpt lat="45.05186" lon="5.88838">
        <ele>1750</ele>
        <time>2019-08-04T11:49:49.000Z</time>
      </trkpt>
      <trkpt lat="45.05186" lon="5.88847">
        <ele>1748</ele>
        <time>2019-08-04T11:49:55.000Z</time>
      </trkpt>
      <trkpt lat="45.05187" lon="5.88854">
        <ele>1748</ele>
        <time>2019-08-04T11:49:58.000Z</time>
      </trkpt>
      <trkpt lat="45.05186" lon="5.88871">
        <ele>1746</ele>
        <time>2019-08-04T11:50:05.000Z</time>
      </trkpt>
      <trkpt lat="45.05186" lon="5.88878">
        <ele>1746</ele>
        <time>2019-08-04T11:50:08.000Z</time>
      </trkpt>
      <trkpt lat="45.05187" lon="5.88886">
        <ele>1745</ele>
        <time>2019-08-04T11:50:12.000Z</time>
      </trkpt>
      <trkpt lat="45.05188" lon="5.88896">
        <ele>1743</ele>
        <time>2019-08-04T11:50:19.000Z</time>
      </trkpt>
      <trkpt lat="45.05188" lon="5.88905">
        <ele>1742</ele>
        <time>2019-08-04T11:50:22.000Z</time>
      </trkpt>
      <trkpt lat="45.0519" lon="5.88913">
        <ele>1742</ele>
        <time>2019-08-04T11:50:26.000Z</time>
      </trkpt>
      <trkpt lat="45.05194" lon="5.88917">
        <ele>1742</ele>
        <time>2019-08-04T11:50:29.000Z</time>
      </trkpt>
      <trkpt lat="45.05198" lon="5.88921">
        <ele>1741</ele>
        <time>2019-08-04T11:50:33.000Z</time>
      </trkpt>
      <trkpt lat="45.05207" lon="5.88927">
        <ele>1743</ele>
        <time>2019-08-04T11:50:40.000Z</time>
      </trkpt>
      <trkpt lat="45.05212" lon="5.88933">
        <ele>1743</ele>
        <time>2019-08-04T11:50:44.000Z</time>
      </trkpt>
      <trkpt lat="45.05212" lon="5.8894">
        <ele>1745</ele>
        <time>2019-08-04T11:50:48.000Z</time>
      </trkpt>
      <trkpt lat="45.05216" lon="5.88946">
        <ele>1744</ele>
        <time>2019-08-04T11:50:55.000Z</time>
      </trkpt>
      <trkpt lat="45.05217" lon="5.88953">
        <ele>1744</ele>
        <time>2019-08-04T11:51:14.000Z</time>
      </trkpt>
      <trkpt lat="45.05218" lon="5.88964">
        <ele>1743</ele>
        <time>2019-08-04T11:51:21.000Z</time>
      </trkpt>
      <trkpt lat="45.05223" lon="5.88972">
        <ele>1740</ele>
        <time>2019-08-04T11:51:27.000Z</time>
      </trkpt>
      <trkpt lat="45.05226" lon="5.88978">
        <ele>1739</ele>
        <time>2019-08-04T11:51:30.000Z</time>
      </trkpt>
      <trkpt lat="45.05226" lon="5.8899">
        <ele>1737</ele>
        <time>2019-08-04T11:51:37.000Z</time>
      </trkpt>
      <trkpt lat="45.05223" lon="5.88997">
        <ele>1739</ele>
        <time>2019-08-04T11:51:41.000Z</time>
      </trkpt>
      <trkpt lat="45.0522" lon="5.89008">
        <ele>1739</ele>
        <time>2019-08-04T11:51:48.000Z</time>
      </trkpt>
      <trkpt lat="45.05218" lon="5.89015">
        <ele>1739</ele>
        <time>2019-08-04T11:51:52.000Z</time>
      </trkpt>
      <trkpt lat="45.05218" lon="5.89022">
        <ele>1740</ele>
        <time>2019-08-04T11:51:56.000Z</time>
      </trkpt>
      <trkpt lat="45.05218" lon="5.89029">
        <ele>1740</ele>
        <time>2019-08-04T11:52:00.000Z</time>
      </trkpt>
      <trkpt lat="45.05218" lon="5.89036">
        <ele>1739</ele>
        <time>2019-08-04T11:52:06.000Z</time>
      </trkpt>
      <trkpt lat="45.05216" lon="5.89046">
        <ele>1738</ele>
        <time>2019-08-04T11:52:12.000Z</time>
      </trkpt>
      <trkpt lat="45.05217" lon="5.89053">
        <ele>1737</ele>
        <time>2019-08-04T11:52:16.000Z</time>
      </trkpt>
      <trkpt lat="45.05217" lon="5.89063">
        <ele>1738</ele>
        <time>2019-08-04T11:52:23.000Z</time>
      </trkpt>
      <trkpt lat="45.05214" lon="5.89079">
        <ele>1739</ele>
        <time>2019-08-04T11:52:30.000Z</time>
      </trkpt>
      <trkpt lat="45.05212" lon="5.89085">
        <ele>1740</ele>
        <time>2019-08-04T11:52:34.000Z</time>
      </trkpt>
      <trkpt lat="45.05208" lon="5.8909">
        <ele>1739</ele>
        <time>2019-08-04T11:52:38.000Z</time>
      </trkpt>
      <trkpt lat="45.05204" lon="5.891">
        <ele>1738</ele>
        <time>2019-08-04T11:52:45.000Z</time>
      </trkpt>
      <trkpt lat="45.05203" lon="5.89107">
        <ele>1738</ele>
        <time>2019-08-04T11:52:49.000Z</time>
      </trkpt>
      <trkpt lat="45.05199" lon="5.89115">
        <ele>1739</ele>
        <time>2019-08-04T11:52:57.000Z</time>
      </trkpt>
      <trkpt lat="45.05195" lon="5.89124">
        <ele>1740</ele>
        <time>2019-08-04T11:53:04.000Z</time>
      </trkpt>
      <trkpt lat="45.05194" lon="5.89132">
        <ele>1738</ele>
        <time>2019-08-04T11:53:08.000Z</time>
      </trkpt>
      <trkpt lat="45.05188" lon="5.89139">
        <ele>1737</ele>
        <time>2019-08-04T11:53:15.000Z</time>
      </trkpt>
      <trkpt lat="45.05182" lon="5.89143">
        <ele>1736</ele>
        <time>2019-08-04T11:53:21.000Z</time>
      </trkpt>
      <trkpt lat="45.05175" lon="5.89147">
        <ele>1737</ele>
        <time>2019-08-04T11:53:27.000Z</time>
      </trkpt>
      <trkpt lat="45.05172" lon="5.89152">
        <ele>1737</ele>
        <time>2019-08-04T11:53:31.000Z</time>
      </trkpt>
      <trkpt lat="45.05163" lon="5.89162">
        <ele>1739</ele>
        <time>2019-08-04T11:53:38.000Z</time>
      </trkpt>
      <trkpt lat="45.05159" lon="5.89168">
        <ele>1740</ele>
        <time>2019-08-04T11:53:42.000Z</time>
      </trkpt>
      <trkpt lat="45.05155" lon="5.89177">
        <ele>1740</ele>
        <time>2019-08-04T11:53:46.000Z</time>
      </trkpt>
      <trkpt lat="45.05152" lon="5.89188">
        <ele>1740</ele>
        <time>2019-08-04T11:53:53.000Z</time>
      </trkpt>
      <trkpt lat="45.05151" lon="5.89195">
        <ele>1731</ele>
        <time>2019-08-04T11:54:06.000Z</time>
      </trkpt>
      <trkpt lat="45.05154" lon="5.89201">
        <ele>1733</ele>
        <time>2019-08-04T11:54:13.000Z</time>
      </trkpt>
      <trkpt lat="45.05158" lon="5.89204">
        <ele>1732</ele>
        <time>2019-08-04T11:54:20.000Z</time>
      </trkpt>
      <trkpt lat="45.05161" lon="5.89211">
        <ele>1731</ele>
        <time>2019-08-04T11:54:27.000Z</time>
      </trkpt>
      <trkpt lat="45.05165" lon="5.8922">
        <ele>1731</ele>
        <time>2019-08-04T11:54:36.000Z</time>
      </trkpt>
      <trkpt lat="45.0517" lon="5.89228">
        <ele>1731</ele>
        <time>2019-08-04T11:54:43.000Z</time>
      </trkpt>
      <trkpt lat="45.05173" lon="5.89235">
        <ele>1730</ele>
        <time>2019-08-04T11:54:49.000Z</time>
      </trkpt>
      <trkpt lat="45.05176" lon="5.89241">
        <ele>1730</ele>
        <time>2019-08-04T11:54:53.000Z</time>
      </trkpt>
      <trkpt lat="45.05178" lon="5.8925">
        <ele>1729</ele>
        <time>2019-08-04T11:54:57.000Z</time>
      </trkpt>
      <trkpt lat="45.05179" lon="5.89257">
        <ele>1728</ele>
        <time>2019-08-04T11:55:00.000Z</time>
      </trkpt>
      <trkpt lat="45.0518" lon="5.89264">
        <ele>1729</ele>
        <time>2019-08-04T11:55:03.000Z</time>
      </trkpt>
      <trkpt lat="45.05179" lon="5.89276">
        <ele>1730</ele>
        <time>2019-08-04T11:55:10.000Z</time>
      </trkpt>
      <trkpt lat="45.05178" lon="5.89283">
        <ele>1730</ele>
        <time>2019-08-04T11:55:14.000Z</time>
      </trkpt>
      <trkpt lat="45.05177" lon="5.89289">
        <ele>1731</ele>
        <time>2019-08-04T11:55:17.000Z</time>
      </trkpt>
      <trkpt lat="45.05175" lon="5.89298">
        <ele>1731</ele>
        <time>2019-08-04T11:55:21.000Z</time>
      </trkpt>
      <trkpt lat="45.05177" lon="5.89314">
        <ele>1731</ele>
        <time>2019-08-04T11:55:28.000Z</time>
      </trkpt>
      <trkpt lat="45.05178" lon="5.8932">
        <ele>1729</ele>
        <time>2019-08-04T11:55:31.000Z</time>
      </trkpt>
      <trkpt lat="45.05179" lon="5.89328">
        <ele>1728</ele>
        <time>2019-08-04T11:55:35.000Z</time>
      </trkpt>
      <trkpt lat="45.05183" lon="5.89341">
        <ele>1727</ele>
        <time>2019-08-04T11:55:42.000Z</time>
      </trkpt>
      <trkpt lat="45.05185" lon="5.89348">
        <ele>1728</ele>
        <time>2019-08-04T11:55:46.000Z</time>
      </trkpt>
      <trkpt lat="45.05187" lon="5.89356">
        <ele>1729</ele>
        <time>2019-08-04T11:55:50.000Z</time>
      </trkpt>
      <trkpt lat="45.05187" lon="5.89368">
        <ele>1732</ele>
        <time>2019-08-04T11:55:57.000Z</time>
      </trkpt>
      <trkpt lat="45.05189" lon="5.89377">
        <ele>1733</ele>
        <time>2019-08-04T11:56:01.000Z</time>
      </trkpt>
      <trkpt lat="45.05191" lon="5.89391">
        <ele>1734</ele>
        <time>2019-08-04T11:56:08.000Z</time>
      </trkpt>
      <trkpt lat="45.05192" lon="5.89398">
        <ele>1734</ele>
        <time>2019-08-04T11:56:11.000Z</time>
      </trkpt>
      <trkpt lat="45.05194" lon="5.89409">
        <ele>1733</ele>
        <time>2019-08-04T11:56:18.000Z</time>
      </trkpt>
      <trkpt lat="45.05192" lon="5.8942">
        <ele>1732</ele>
        <time>2019-08-04T11:56:25.000Z</time>
      </trkpt>
      <trkpt lat="45.05191" lon="5.89431">
        <ele>1731</ele>
        <time>2019-08-04T11:56:31.000Z</time>
      </trkpt>
      <trkpt lat="45.05192" lon="5.89442">
        <ele>1733</ele>
        <time>2019-08-04T11:56:37.000Z</time>
      </trkpt>
      <trkpt lat="45.05186" lon="5.89454">
        <ele>1734</ele>
        <time>2019-08-04T11:56:44.000Z</time>
      </trkpt>
      <trkpt lat="45.05182" lon="5.89464">
        <ele>1734</ele>
        <time>2019-08-04T11:56:50.000Z</time>
      </trkpt>
      <trkpt lat="45.0518" lon="5.89473">
        <ele>1734</ele>
        <time>2019-08-04T11:56:56.000Z</time>
      </trkpt>
      <trkpt lat="45.0518" lon="5.89485">
        <ele>1730</ele>
        <time>2019-08-04T11:57:03.000Z</time>
      </trkpt>
      <trkpt lat="45.05181" lon="5.89497">
        <ele>1730</ele>
        <time>2019-08-04T11:57:10.000Z</time>
      </trkpt>
      <trkpt lat="45.05182" lon="5.89503">
        <ele>1730</ele>
        <time>2019-08-04T11:57:13.000Z</time>
      </trkpt>
      <trkpt lat="45.05184" lon="5.89511">
        <ele>1729</ele>
        <time>2019-08-04T11:57:17.000Z</time>
      </trkpt>
      <trkpt lat="45.05184" lon="5.89517">
        <ele>1728</ele>
        <time>2019-08-04T11:57:20.000Z</time>
      </trkpt>
      <trkpt lat="45.05185" lon="5.89526">
        <ele>1725</ele>
        <time>2019-08-04T11:57:24.000Z</time>
      </trkpt>
      <trkpt lat="45.05191" lon="5.89534">
        <ele>1723</ele>
        <time>2019-08-04T11:57:30.000Z</time>
      </trkpt>
      <trkpt lat="45.05199" lon="5.89542">
        <ele>1723</ele>
        <time>2019-08-04T11:57:38.000Z</time>
      </trkpt>
      <trkpt lat="45.05203" lon="5.89547">
        <ele>1722</ele>
        <time>2019-08-04T11:57:42.000Z</time>
      </trkpt>
      <trkpt lat="45.05204" lon="5.89556">
        <ele>1721</ele>
        <time>2019-08-04T11:57:49.000Z</time>
      </trkpt>
      <trkpt lat="45.05206" lon="5.89562">
        <ele>1720</ele>
        <time>2019-08-04T11:58:00.000Z</time>
      </trkpt>
      <trkpt lat="45.05208" lon="5.89573">
        <ele>1720</ele>
        <time>2019-08-04T11:58:06.000Z</time>
      </trkpt>
      <trkpt lat="45.05209" lon="5.89583">
        <ele>1719</ele>
        <time>2019-08-04T11:58:12.000Z</time>
      </trkpt>
      <trkpt lat="45.05209" lon="5.89591">
        <ele>1718</ele>
        <time>2019-08-04T11:58:16.000Z</time>
      </trkpt>
      <trkpt lat="45.05211" lon="5.89599">
        <ele>1718</ele>
        <time>2019-08-04T11:58:20.000Z</time>
      </trkpt>
      <trkpt lat="45.05212" lon="5.89613">
        <ele>1716</ele>
        <time>2019-08-04T11:58:27.000Z</time>
      </trkpt>
      <trkpt lat="45.05212" lon="5.8962">
        <ele>1717</ele>
        <time>2019-08-04T11:58:30.000Z</time>
      </trkpt>
      <trkpt lat="45.05214" lon="5.89628">
        <ele>1717</ele>
        <time>2019-08-04T11:58:34.000Z</time>
      </trkpt>
      <trkpt lat="45.0522" lon="5.89636">
        <ele>1715</ele>
        <time>2019-08-04T11:58:41.000Z</time>
      </trkpt>
      <trkpt lat="45.05224" lon="5.89645">
        <ele>1716</ele>
        <time>2019-08-04T11:58:47.000Z</time>
      </trkpt>
      <trkpt lat="45.05225" lon="5.89651">
        <ele>1715</ele>
        <time>2019-08-04T11:58:50.000Z</time>
      </trkpt>
      <trkpt lat="45.05226" lon="5.89662">
        <ele>1714</ele>
        <time>2019-08-04T11:58:54.000Z</time>
      </trkpt>
      <trkpt lat="45.05229" lon="5.89668">
        <ele>1713</ele>
        <time>2019-08-04T11:58:58.000Z</time>
      </trkpt>
      <trkpt lat="45.05231" lon="5.89674">
        <ele>1712</ele>
        <time>2019-08-04T11:59:02.000Z</time>
      </trkpt>
      <trkpt lat="45.05232" lon="5.89681">
        <ele>1712</ele>
        <time>2019-08-04T11:59:06.000Z</time>
      </trkpt>
      <trkpt lat="45.05234" lon="5.89691">
        <ele>1712</ele>
        <time>2019-08-04T11:59:10.000Z</time>
      </trkpt>
      <trkpt lat="45.05234" lon="5.89698">
        <ele>1713</ele>
        <time>2019-08-04T11:59:14.000Z</time>
      </trkpt>
      <trkpt lat="45.05233" lon="5.89706">
        <ele>1712</ele>
        <time>2019-08-04T11:59:17.000Z</time>
      </trkpt>
      <trkpt lat="45.05236" lon="5.89713">
        <ele>1710</ele>
        <time>2019-08-04T11:59:21.000Z</time>
      </trkpt>
      <trkpt lat="45.05238" lon="5.89721">
        <ele>1709</ele>
        <time>2019-08-04T11:59:51.000Z</time>
      </trkpt>
      <trkpt lat="45.05239" lon="5.89733">
        <ele>1708</ele>
        <time>2019-08-04T11:59:58.000Z</time>
      </trkpt>
      <trkpt lat="45.05239" lon="5.89745">
        <ele>1706</ele>
        <time>2019-08-04T12:00:05.000Z</time>
      </trkpt>
      <trkpt lat="45.05239" lon="5.89757">
        <ele>1705</ele>
        <time>2019-08-04T12:00:11.000Z</time>
      </trkpt>
      <trkpt lat="45.05238" lon="5.89768">
        <ele>1705</ele>
        <time>2019-08-04T12:00:17.000Z</time>
      </trkpt>
      <trkpt lat="45.05238" lon="5.89775">
        <ele>1705</ele>
        <time>2019-08-04T12:00:20.000Z</time>
      </trkpt>
      <trkpt lat="45.05237" lon="5.89782">
        <ele>1706</ele>
        <time>2019-08-04T12:00:23.000Z</time>
      </trkpt>
      <trkpt lat="45.05236" lon="5.8979">
        <ele>1706</ele>
        <time>2019-08-04T12:00:26.000Z</time>
      </trkpt>
      <trkpt lat="45.05236" lon="5.89802">
        <ele>1706</ele>
        <time>2019-08-04T12:00:33.000Z</time>
      </trkpt>
      <trkpt lat="45.05234" lon="5.89808">
        <ele>1706</ele>
        <time>2019-08-04T12:00:36.000Z</time>
      </trkpt>
      <trkpt lat="45.05233" lon="5.89818">
        <ele>1706</ele>
        <time>2019-08-04T12:00:40.000Z</time>
      </trkpt>
      <trkpt lat="45.0523" lon="5.89829">
        <ele>1704</ele>
        <time>2019-08-04T12:00:48.000Z</time>
      </trkpt>
      <trkpt lat="45.05229" lon="5.89836">
        <ele>1703</ele>
        <time>2019-08-04T12:00:52.000Z</time>
      </trkpt>
      <trkpt lat="45.05229" lon="5.89848">
        <ele>1702</ele>
        <time>2019-08-04T12:00:59.000Z</time>
      </trkpt>
      <trkpt lat="45.05231" lon="5.89862">
        <ele>1700</ele>
        <time>2019-08-04T12:01:06.000Z</time>
      </trkpt>
      <trkpt lat="45.05233" lon="5.89868">
        <ele>1698</ele>
        <time>2019-08-04T12:01:09.000Z</time>
      </trkpt>
      <trkpt lat="45.05233" lon="5.89876">
        <ele>1699</ele>
        <time>2019-08-04T12:01:13.000Z</time>
      </trkpt>
      <trkpt lat="45.05233" lon="5.89884">
        <ele>1699</ele>
        <time>2019-08-04T12:01:17.000Z</time>
      </trkpt>
      <trkpt lat="45.05235" lon="5.89898">
        <ele>1698</ele>
        <time>2019-08-04T12:01:24.000Z</time>
      </trkpt>
      <trkpt lat="45.05234" lon="5.89906">
        <ele>1697</ele>
        <time>2019-08-04T12:01:28.000Z</time>
      </trkpt>
      <trkpt lat="45.05232" lon="5.89912">
        <ele>1696</ele>
        <time>2019-08-04T12:01:32.000Z</time>
      </trkpt>
      <trkpt lat="45.05231" lon="5.89923">
        <ele>1694</ele>
        <time>2019-08-04T12:01:38.000Z</time>
      </trkpt>
      <trkpt lat="45.05229" lon="5.8993">
        <ele>1692</ele>
        <time>2019-08-04T12:01:41.000Z</time>
      </trkpt>
      <trkpt lat="45.05228" lon="5.89939">
        <ele>1690</ele>
        <time>2019-08-04T12:01:47.000Z</time>
      </trkpt>
      <trkpt lat="45.05229" lon="5.8995">
        <ele>1691</ele>
        <time>2019-08-04T12:02:06.000Z</time>
      </trkpt>
      <trkpt lat="45.05231" lon="5.89957">
        <ele>1690</ele>
        <time>2019-08-04T12:02:10.000Z</time>
      </trkpt>
      <trkpt lat="45.05234" lon="5.89965">
        <ele>1688</ele>
        <time>2019-08-04T12:02:17.000Z</time>
      </trkpt>
      <trkpt lat="45.05237" lon="5.89971">
        <ele>1685</ele>
        <time>2019-08-04T12:02:20.000Z</time>
      </trkpt>
      <trkpt lat="45.05239" lon="5.89979">
        <ele>1686</ele>
        <time>2019-08-04T12:02:24.000Z</time>
      </trkpt>
      <trkpt lat="45.05241" lon="5.89986">
        <ele>1685</ele>
        <time>2019-08-04T12:02:28.000Z</time>
      </trkpt>
      <trkpt lat="45.05244" lon="5.89992">
        <ele>1686</ele>
        <time>2019-08-04T12:02:31.000Z</time>
      </trkpt>
      <trkpt lat="45.05246" lon="5.9">
        <ele>1687</ele>
        <time>2019-08-04T12:02:35.000Z</time>
      </trkpt>
      <trkpt lat="45.05251" lon="5.90012">
        <ele>1688</ele>
        <time>2019-08-04T12:02:42.000Z</time>
      </trkpt>
      <trkpt lat="45.05252" lon="5.90019">
        <ele>1689</ele>
        <time>2019-08-04T12:02:45.000Z</time>
      </trkpt>
      <trkpt lat="45.05258" lon="5.90022">
        <ele>1690</ele>
        <time>2019-08-04T12:02:55.000Z</time>
      </trkpt>
      <trkpt lat="45.05264" lon="5.90022">
        <ele>1691</ele>
        <time>2019-08-04T12:02:59.000Z</time>
      </trkpt>
      <trkpt lat="45.05259" lon="5.90016">
        <ele>1697</ele>
        <time>2019-08-04T12:05:14.000Z</time>
      </trkpt>
      <trkpt lat="45.05258" lon="5.90009">
        <ele>1697</ele>
        <time>2019-08-04T12:05:24.000Z</time>
      </trkpt>
      <trkpt lat="45.05264" lon="5.90001">
        <ele>1698</ele>
        <time>2019-08-04T12:05:32.000Z</time>
      </trkpt>
      <trkpt lat="45.0527" lon="5.89993">
        <ele>1700</ele>
        <time>2019-08-04T12:05:39.000Z</time>
      </trkpt>
      <trkpt lat="45.05274" lon="5.89989">
        <ele>1700</ele>
        <time>2019-08-04T12:05:42.000Z</time>
      </trkpt>
      <trkpt lat="45.05279" lon="5.89985">
        <ele>1699</ele>
        <time>2019-08-04T12:05:46.000Z</time>
      </trkpt>
      <trkpt lat="45.05284" lon="5.89981">
        <ele>1699</ele>
        <time>2019-08-04T12:05:50.000Z</time>
      </trkpt>
      <trkpt lat="45.0529" lon="5.89974">
        <ele>1701</ele>
        <time>2019-08-04T12:05:56.000Z</time>
      </trkpt>
      <trkpt lat="45.05295" lon="5.89965">
        <ele>1701</ele>
        <time>2019-08-04T12:06:02.000Z</time>
      </trkpt>
      <trkpt lat="45.05297" lon="5.89959">
        <ele>1702</ele>
        <time>2019-08-04T12:06:06.000Z</time>
      </trkpt>
      <trkpt lat="45.053" lon="5.89953">
        <ele>1702</ele>
        <time>2019-08-04T12:06:10.000Z</time>
      </trkpt>
      <trkpt lat="45.05302" lon="5.89947">
        <ele>1701</ele>
        <time>2019-08-04T12:06:14.000Z</time>
      </trkpt>
      <trkpt lat="45.05303" lon="5.89939">
        <ele>1700</ele>
        <time>2019-08-04T12:06:18.000Z</time>
      </trkpt>
      <trkpt lat="45.05304" lon="5.89933">
        <ele>1700</ele>
        <time>2019-08-04T12:06:21.000Z</time>
      </trkpt>
      <trkpt lat="45.05306" lon="5.89927">
        <ele>1699</ele>
        <time>2019-08-04T12:06:24.000Z</time>
      </trkpt>
      <trkpt lat="45.05309" lon="5.8992">
        <ele>1698</ele>
        <time>2019-08-04T12:06:27.000Z</time>
      </trkpt>
      <trkpt lat="45.05311" lon="5.89914">
        <ele>1698</ele>
        <time>2019-08-04T12:06:30.000Z</time>
      </trkpt>
      <trkpt lat="45.05312" lon="5.89901">
        <ele>1697</ele>
        <time>2019-08-04T12:06:36.000Z</time>
      </trkpt>
      <trkpt lat="45.05312" lon="5.89894">
        <ele>1696</ele>
        <time>2019-08-04T12:06:40.000Z</time>
      </trkpt>
      <trkpt lat="45.05313" lon="5.89887">
        <ele>1695</ele>
        <time>2019-08-04T12:06:44.000Z</time>
      </trkpt>
      <trkpt lat="45.05313" lon="5.89881">
        <ele>1695</ele>
        <time>2019-08-04T12:06:48.000Z</time>
      </trkpt>
      <trkpt lat="45.05313" lon="5.89873">
        <ele>1695</ele>
        <time>2019-08-04T12:06:52.000Z</time>
      </trkpt>
      <trkpt lat="45.05313" lon="5.89865">
        <ele>1694</ele>
        <time>2019-08-04T12:06:56.000Z</time>
      </trkpt>
      <trkpt lat="45.05311" lon="5.89855">
        <ele>1693</ele>
        <time>2019-08-04T12:07:02.000Z</time>
      </trkpt>
      <trkpt lat="45.05307" lon="5.89844">
        <ele>1694</ele>
        <time>2019-08-04T12:07:08.000Z</time>
      </trkpt>
    </trkseg>
  </trk>
</gpx>